GFSSGP_sfc_temp_000.txt.gz
Temp
71 68 68 69 57 52 47 55 61 63 66 71 73 71 68 68 66 60 71 74 76 76 73 77 78 78 78 78 78 78 77 77 77 77 77 77 77 77 76 76 76 76 76 77 77 77 78 78 78
70 71 70 64 51 45 49 58 62 66 70 69 70 69 68 70 73 73 72 74 75 73 73 75 78 78 78 78 78 77 77 77 77 77 77 77 77 77 77 77 77 76 77 77 77 77 78 78 78
72 77 67 59 50 46 51 61 64 70 73 73 69 73 71 71 74 74 74 74 72 73 73 74 78 77 78 78 78 77 77 77 77 77 77 77 77 77 77 77 77 77 78 78 78 78 77 77 78
73 69 64 52 49 55 58 64 66 68 73 71 70 69 72 78 76 77 75 73 73 73 74 76 78 77 78 78 78 77 77 77 77 77 77 77 77 76 75 76 77 77 78 78 78 78 77 77 77
69 63 52 47 53 58 64 67 66 68 68 70 69 69 69 75 76 73 73 75 73 70 72 74 77 77 78 78 78 77 77 77 76 77 77 77 76 76 76 76 76 77 77 78 78 78 77 76 77
62 60 47 46 54 63 65 68 67 67 68 71 68 67 70 72 73 72 73 72 73 70 68 71 78 77 77 77 77 77 76 76 76 76 76 76 76 76 75 75 76 76 76 77 77 77 77 76 75
59 54 49 52 56 60 64 68 67 65 67 70 69 66 69 70 74 72 71 70 70 70 69 70 74 76 77 77 77 76 76 76 75 75 75 74 74 75 74 74 74 75 75 75 75 75 75 75 75
64 57 49 53 54 57 67 67 68 68 71 73 74 67 68 72 72 70 68 67 66 67 69 70 71 72 72 73 77 76 75 75 74 74 74 74 74 74 73 73 72 73 74 74 74 75 75 75 75
64 52 49 53 55 60 63 62 68 74 71 72 76 74 76 72 70 67 66 65 64 67 66 68 69 69 69 70 73 75 76 75 74 73 74 72 66 66 68 69 72 72 72 73 73 74 74 74 74
60 51 54 64 65 62 62 62 67 69 70 70 74 77 75 71 68 68 66 67 64 65 65 66 66 66 67 69 68 68 68 67 66 66 65 65 64 63 66 68 71 72 73 73 74 73 74 74 69
59 58 66 68 70 65 64 66 68 68 67 73 70 75 72 68 67 68 68 70 70 70 68 64 64 64 65 65 64 63 63 63 63 64 64 63 63 62 63 63 63 63 67 65 66 66 68 68 67
54 63 68 70 71 66 65 68 69 70 71 78 77 75 72 68 66 68 68 70 67 65 67 64 63 63 63 63 62 62 61 61 61 62 63 61 61 61 61 61 62 62 63 63 64 64 65 65 66
58 63 67 67 66 68 68 66 68 71 77 78 76 73 71 68 70 71 73 72 67 64 63 63 62 62 61 61 61 61 61 61 61 61 61 61 60 60 61 61 61 62 63 63 63 63 63 64 64
61 64 66 66 68 71 67 68 69 73 78 74 73 71 70 68 70 69 65 68 64 65 63 61 62 62 61 60 60 61 60 61 61 60 61 62 61 61 60 61 61 62 62 61 62 63 62 63 63
63 57 60 64 68 66 69 62 65 75 72 70 71 72 70 68 69 69 72 72 71 63 61 62 62 61 61 61 61 60 61 61 60 61 62 62 62 61 61 61 61 61 61 61 61 61 62 61 62
55 54 48 62 65 66 65 56 69 74 69 70 71 72 69 68 69 72 73 71 62 60 62 61 66 61 61 60 60 60 60 60 60 61 61 63 63 62 61 61 60 61 60 60 60 60 60 61 61
49 48 50 55 65 63 62 59 68 68 67 67 68 68 69 68 65 67 68 63 61 61 61 61 62 61 61 60 60 60 61 60 61 61 61 62 63 63 61 60 60 61 60 59 59 59 60 59 60
45 45 50 53 61 61 58 58 66 70 68 66 66 66 66 65 68 69 64 61 60 61 63 63 61 61 60 60 59 59 59 60 61 61 62 63 62 63 61 60 60 60 59 58 58 59 59 60 60
54 53 52 54 63 61 56 56 61 66 64 63 67 69 68 66 66 64 61 60 60 61 61 61 60 59 59 58 58 58 59 59 60 61 63 63 63 63 61 60 60 59 59 59 58 59 59 59 60
53 51 51 57 62 60 57 57 62 65 66 64 68 69 69 62 61 60 57 60 62 62 62 59 60 59 59 59 59 59 59 59 60 61 63 63 63 62 61 60 60 59 58 58 58 58 57 58 59
52 51 52 51 60 60 55 53 57 64 64 65 65 64 63 63 61 58 57 58 61 61 60 61 60 59 60 60 59 59 59 59 59 59 60 61 63 63 62 61 60 59 58 57 57 58 59 57 58
48 58 57 55 53 44 54 37 52 57 62 63 66 64 64 63 59 57 57 57 61 61 61 60 60 60 61 60 60 60 58 57 57 58 59 60 63 63 62 61 60 59 58 57 58 59 60 60 58
53 63 57 57 50 43 48 41 50 54 55 61 63 66 65 63 58 57 58 60 61 60 61 60 60 60 61 60 60 59 58 57 58 58 59 59 61 63 62 61 60 59 58 59 59 59 59 60 59
63 56 53 49 44 38 48 45 45 50 58 60 62 64 64 57 56 56 58 61 59 59 59 59 60 60 60 60 60 60 59 58 57 57 57 57 58 60 61 61 60 60 59 59 59 60 60 60 61
56 47 34 30 29 34 50 44 52 57 60 63 65 64 57 54 55 57 59 59 57 58 58 59 60 59 60 61 61 60 60 59 58 57 57 56 56 58 59 60 60 60 61 61 60 60 61 60 61
54 50 36 30 32 40 48 42 52 61 65 64 65 62 55 53 55 58 60 59 59 59 58 60 59 59 60 61 60 60 60 57 57 57 57 56 56 57 59 60 61 62 62 62 61 61 61 61 62
54 45 54 42 45 38 41 50 59 61 63 64 59 57 53 52 54 57 59 58 59 58 58 59 59 59 60 61 60 60 60 58 58 58 57 57 57 59 60 61 61 61 62 62 62 61 62 62 62
54 57 43 44 32 30 41 44 48 54 59 59 57 55 52 52 54 57 58 57 58 58 59 59 59 60 61 61 60 61 61 60 59 58 58 58 58 60 60 61 61 61 62 62 61 62 64 64 61
48 47 45 48 40 34 33 41 53 58 61 61 59 56 52 54 56 58 57 58 58 58 58 58 59 60 61 61 60 63 61 60 59 59 59 59 59 59 61 61 61 61 61 61 62 63 63 62 62
60 54 48 45 37 43 40 42 57 59 59 59 59 56 53 54 57 58 59 57 57 57 57 58 59 60 61 61 62 63 63 60 59 59 59 59 59 60 61 61 61 61 61 61 61 63 63 63 62

GFSSGP_sfc_temp_003.txt.gz
Temp
76 77 78 78 68 69 65 68 74 75 78 84 84 82 82 83 79 77 85 85 87 86 84 82 78 78 78 78 78 78 77 77 77 77 77 77 77 77 77 76 76 76 77 77 77 77 78 78 78
78 77 81 77 66 59 68 72 73 79 83 85 84 84 82 83 85 88 87 84 88 86 82 84 78 78 78 78 78 77 77 77 77 77 78 78 77 77 77 77 77 77 77 78 78 78 78 78 78
78 81 78 73 66 64 69 74 78 81 84 81 83 84 84 84 86 87 89 85 86 84 83 83 78 78 78 78 78 77 77 77 77 77 77 78 77 77 77 77 77 77 78 79 78 78 78 78 78
80 81 78 66 64 68 70 77 79 80 84 83 83 82 86 89 88 89 87 86 84 85 84 82 78 78 78 78 78 77 77 77 77 77 77 77 77 77 76 77 77 78 78 78 79 78 78 77 77
83 79 70 64 66 69 75 79 80 79 80 83 83 81 83 88 87 86 85 86 86 86 84 85 78 77 78 78 78 77 77 77 77 77 77 77 77 76 76 76 77 77 77 78 78 78 78 77 77
76 77 66 64 68 72 78 82 80 80 83 84 81 80 85 87 85 87 87 87 91 86 84 84 79 77 77 78 78 77 77 77 77 77 77 77 77 76 76 76 76 76 76 76 77 77 77 76 76
73 71 66 65 66 70 76 84 78 82 81 83 86 80 87 87 91 88 86 89 88 88 84 84 85 81 77 77 77 77 76 76 76 76 76 76 75 75 75 75 75 75 75 75 75 76 76 75 75
77 74 65 66 66 69 78 80 82 81 81 86 85 80 82 90 87 86 86 87 86 86 86 85 84 85 84 84 77 76 76 76 75 75 75 75 75 75 74 73 73 73 74 74 75 75 75 75 74
75 68 65 66 67 74 78 77 80 84 82 84 86 87 90 84 82 83 83 83 84 84 83 84 84 83 83 85 82 77 77 76 75 75 75 75 79 78 77 74 72 72 73 73 74 74 74 74 75
73 67 68 75 77 76 78 75 78 78 80 80 83 89 89 84 83 84 82 83 82 82 82 84 80 82 82 82 81 82 82 81 79 78 77 78 77 76 76 74 72 72 73 73 73 73 73 75 80
73 66 74 76 78 77 76 77 81 78 75 82 80 84 89 89 83 83 85 87 86 85 84 82 79 79 80 81 81 81 80 79 77 76 76 76 75 75 76 76 76 76 74 77 76 76 78 76 78
67 73 75 77 79 76 74 78 75 78 79 85 85 86 86 85 84 82 84 85 86 85 83 81 79 77 77 80 79 80 78 77 77 77 75 75 75 74 73 75 75 73 75 74 75 76 74 75 76
67 72 75 77 77 76 76 73 74 76 82 86 86 84 84 84 84 84 85 86 85 82 82 80 77 77 76 76 78 77 77 77 78 77 76 75 75 73 74 73 75 74 76 74 72 72 74 73 74
75 72 74 76 75 77 73 74 77 77 83 83 83 83 85 85 85 84 81 81 81 81 81 78 77 76 76 76 75 75 75 77 77 76 76 74 74 73 74 73 73 71 68 71 72 74 73 74 73
72 66 70 71 73 72 74 69 70 80 83 80 81 83 83 84 86 82 83 79 81 81 80 74 75 75 74 74 75 76 78 77 76 75 73 73 73 72 71 70 71 70 67 69 71 72 72 71 73
66 66 61 72 72 73 71 64 77 83 80 79 80 80 81 84 86 85 84 80 81 81 73 75 77 74 74 74 75 77 77 77 76 75 75 73 73 72 71 70 70 68 68 70 71 70 71 71 72
62 58 59 64 72 72 70 68 77 80 78 76 78 79 80 81 83 82 82 82 79 75 73 73 74 74 73 74 76 75 74 74 75 75 75 73 73 72 70 69 67 69 69 71 69 69 70 69 70
57 56 60 60 70 70 70 68 74 76 75 74 77 79 78 79 81 84 81 80 75 73 73 73 74 73 73 74 73 74 74 74 74 74 74 73 73 72 69 67 66 69 70 70 70 68 69 69 69
63 61 60 67 71 67 67 67 70 74 75 75 76 77 78 79 83 82 80 75 72 71 71 72 72 71 73 73 73 73 73 74 74 74 73 73 73 72 70 69 67 65 68 68 69 69 68 67 68
60 58 59 64 68 66 66 64 70 73 73 76 75 76 77 80 81 79 73 71 70 70 71 71 72 71 73 74 73 75 74 75 75 74 72 73 73 72 70 67 68 66 67 67 67 67 67 66 68
59 58 59 59 66 67 64 61 66 74 74 76 77 78 78 77 77 77 71 69 71 70 70 71 71 71 72 73 72 71 72 72 73 73 73 73 72 71 69 69 69 68 69 68 67 66 67 65 68
54 63 62 60 57 53 64 50 62 68 69 74 76 76 78 80 78 75 70 68 70 71 72 73 72 71 72 72 72 71 73 72 72 71 71 71 72 71 70 69 69 69 71 68 68 69 69 68 65
58 66 61 60 57 57 58 53 60 67 65 70 75 78 80 80 78 73 71 70 71 71 72 72 72 72 72 71 73 73 71 72 71 71 68 69 70 70 70 70 70 69 71 68 68 67 67 67 66
67 63 61 60 58 47 56 54 55 61 66 71 76 79 78 75 71 70 70 70 70 73 73 72 72 71 72 73 72 72 71 69 71 69 69 69 70 68 70 70 70 69 70 69 69 69 68 68 68
62 57 48 45 45 44 60 54 56 68 72 73 75 80 77 69 68 68 68 70 71 72 73 73 73 71 72 72 72 72 71 69 68 68 69 67 66 68 68 69 69 70 70 70 69 68 69 69 68
58 57 50 40 43 51 56 50 56 71 75 76 78 78 73 68 68 69 70 71 72 72 72 74 73 72 72 73 73 72 71 73 72 69 69 68 69 69 69 69 70 70 71 71 69 70 71 70 68
59 53 64 54 53 50 54 58 65 71 72 74 74 71 69 67 68 69 70 72 73 72 72 73 74 74 73 73 73 72 71 69 70 67 67 69 68 69 69 70 70 71 71 71 69 69 69 70 70
64 67 51 55 42 40 50 53 58 66 70 74 73 71 67 67 68 69 71 71 72 73 74 74 74 74 74 74 74 74 72 71 70 68 67 68 68 69 69 70 70 71 71 71 70 68 69 68 70
58 57 59 59 55 46 44 53 69 69 75 75 76 73 68 67 69 70 71 72 73 74 73 72 73 73 73 74 74 74 73 72 70 69 69 69 69 69 70 71 71 71 71 70 69 68 67 67 69
65 61 59 52 46 54 49 54 70 70 74 73 73 70 69 69 70 72 72 72 73 73 74 73 73 75 75 75 75 75 73 71 69 70 69 70 70 70 71 71 71 71 71 70 69 67 66 65 64

GFSSGP_sfc_temp_006.txt.gz
Temp
79 89 95 90 78 78 75 77 87 84 86 92 93 90 90 93 88 82 98 99 98 98 93 85 79 79 79 79 78 78 78 78 78 78 78 78 77 77 77 77 77 77 77 77 78 78 78 78 79
93 90 92 92 75 73 78 86 82 87 90 94 94 93 91 89 98 98 100 98 99 97 92 90 78 79 79 79 78 78 78 78 78 78 78 78 77 77 77 77 77 77 77 78 78 78 78 78 78
92 93 88 83 79 74 79 85 87 89 92 91 90 93 93 91 96 99 100 97 99 95 92 91 78 78 79 79 78 77 77 77 77 78 78 78 78 77 77 77 78 78 78 78 79 79 79 78 78
89 90 89 76 75 81 82 87 88 89 92 93 92 88 96 99 97 100 99 98 97 96 95 88 78 78 78 79 78 77 77 77 77 78 78 78 78 77 77 77 77 78 78 79 79 79 79 79 77
92 90 79 77 79 85 87 90 92 88 90 91 92 88 91 100 99 98 97 98 98 98 96 95 78 78 78 79 78 78 77 77 77 77 78 78 77 77 77 77 77 77 78 78 78 78 78 78 78
84 88 75 75 80 86 88 92 92 91 92 93 90 89 93 100 98 100 100 100 102 99 96 96 80 78 77 78 78 77 77 77 77 77 77 77 77 77 77 76 76 76 76 76 77 77 77 77 77
81 81 76 79 80 81 86 92 90 90 90 91 94 86 95 99 101 101 100 102 102 102 98 96 92 83 77 77 77 77 77 76 76 76 76 76 77 76 75 75 75 75 75 76 76 75 75 76 76
86 84 76 80 77 79 87 88 92 90 89 96 93 86 88 97 99 101 102 102 103 102 100 98 93 91 88 88 77 77 76 76 76 76 76 76 75 76 75 74 74 74 74 74 75 75 75 75 75
90 76 74 78 80 82 92 86 90 92 90 92 94 93 97 99 99 99 98 100 101 99 97 97 95 93 91 94 87 77 77 77 76 77 76 76 83 85 83 78 73 73 73 73 74 74 74 74 75
81 76 77 86 88 86 90 89 89 86 87 88 92 98 100 99 98 96 97 98 97 96 97 98 92 92 92 95 91 86 87 87 85 85 83 82 83 83 81 77 74 73 73 74 74 73 73 74 83
82 75 86 87 90 91 87 86 91 86 82 86 89 92 96 97 96 96 96 99 100 99 97 96 91 89 90 92 90 89 89 87 86 84 82 82 83 82 83 83 83 82 77 82 81 81 83 83 80
76 83 86 88 90 89 84 88 85 87 86 91 94 95 95 94 95 96 97 99 100 99 98 95 93 87 86 92 90 91 90 87 86 85 81 80 81 80 79 82 83 80 82 81 81 83 80 80 81
78 81 86 88 87 87 88 83 84 86 88 92 93 93 93 94 95 97 98 98 98 96 97 95 91 86 85 86 89 88 88 86 86 86 83 82 82 80 81 79 80 79 82 82 81 80 80 79 79
83 83 83 86 85 86 82 82 85 86 88 89 91 92 94 94 95 96 96 95 93 95 95 95 90 86 85 85 85 84 84 86 85 86 84 81 81 80 81 76 74 73 75 80 80 78 80 81 80
82 75 79 80 83 82 84 76 78 88 88 88 90 92 93 94 96 95 95 94 95 94 94 90 88 85 83 82 83 84 86 85 86 85 82 81 80 79 77 73 73 74 74 74 76 76 76 79 80
75 76 68 79 81 81 79 69 83 91 90 88 89 91 91 92 94 95 95 95 94 93 92 90 88 85 82 82 83 85 87 86 86 85 84 81 79 78 76 72 71 73 72 70 69 74 76 79 80
71 64 69 73 84 81 79 72 82 90 88 85 86 88 90 90 92 93 94 95 93 91 88 85 84 85 81 81 83 84 82 84 85 85 84 82 80 79 75 72 72 73 67 67 72 73 74 74 77
64 66 69 70 80 80 75 74 81 87 87 84 85 87 88 88 90 94 95 94 92 89 85 82 83 83 81 82 82 85 84 84 84 84 84 81 81 79 74 72 72 67 67 70 73 72 73 76 75
70 70 69 74 80 76 74 74 79 85 84 82 84 85 86 88 93 94 94 90 89 84 81 80 80 80 81 82 82 82 82 82 83 83 81 80 80 78 75 71 70 71 69 66 69 70 70 70 72
68 67 67 73 78 75 72 71 78 81 82 83 83 84 87 88 91 93 93 85 82 80 80 80 80 78 80 83 83 84 83 85 85 85 81 80 79 77 75 72 72 72 74 72 71 69 68 68 71
67 65 66 66 72 75 70 66 71 79 82 84 86 87 87 87 89 90 89 83 81 79 79 79 79 78 81 81 81 80 80 81 81 81 81 81 78 78 75 74 72 73 71 69 70 69 68 66 70
62 71 68 66 64 59 72 56 69 75 77 81 83 85 88 89 91 91 87 80 80 80 80 80 78 78 79 79 80 78 80 80 82 81 82 80 77 77 77 74 75 72 73 71 70 72 70 69 65
66 70 69 67 64 63 64 60 66 75 72 77 81 85 88 90 91 91 85 81 81 80 79 78 78 78 78 79 80 80 79 80 81 81 75 75 75 76 77 75 75 74 74 72 73 72 71 72 70
74 68 68 68 65 54 62 62 63 70 74 78 84 86 88 89 85 85 83 80 79 81 80 79 78 77 78 79 79 78 76 77 79 77 77 75 70 75 75 76 75 75 73 74 75 74 73 71 70
70 63 54 50 52 51 67 63 65 75 79 81 83 85 86 83 82 80 79 79 79 79 80 80 79 77 78 79 79 79 77 75 74 74 78 74 70 74 73 75 74 73 73 75 76 74 74 73 71
65 63 58 46 50 58 67 57 66 77 83 85 86 87 86 81 81 80 80 80 81 80 80 80 79 77 79 79 79 79 77 80 79 76 78 78 73 77 75 74 75 75 76 76 74 74 73 74 73
65 62 71 63 63 58 65 68 73 78 80 82 84 84 83 81 80 79 80 81 81 80 80 80 79 79 79 79 79 78 77 77 76 74 74 76 76 76 75 75 75 77 77 76 74 74 72 72 73
70 73 59 64 49 48 58 60 61 70 78 81 83 84 81 79 80 79 80 81 81 81 81 80 80 79 79 80 80 79 77 77 76 75 74 74 74 75 75 75 77 77 77 77 74 71 72 72 73
67 65 66 66 63 53 52 58 75 75 80 81 84 84 79 79 80 80 81 81 81 81 81 79 80 79 79 80 80 79 78 78 76 75 75 74 74 75 76 76 76 78 76 75 73 71 72 73 71
72 68 66 59 54 61 59 58 81 79 81 81 84 82 82 82 81 82 82 81 81 81 81 80 80 80 81 82 81 80 79 77 74 75 75 75 75 76 77 77 77 78 78 76 73 71 69 70 70

GFSSGP_sfc_temp_009.txt.gz
Temp
80 87 98 95 81 82 80 84 94 89 90 97 98 94 94 97 90 83 106 107 106 103 92 85 79 79 79 79 79 78 78 78 78 78 78 78 78 78 78 78 78 77 78 78 78 78 78 78 79
97 96 96 90 78 76 82 91 87 92 96 98 98 97 94 92 102 102 105 105 106 102 92 89 79 79 79 79 78 78 78 78 78 78 78 78 78 78 78 78 78 78 78 78 79 79 79 78 79
92 98 89 85 81 78 82 84 92 94 97 96 94 98 96 94 101 102 104 104 105 100 94 91 78 78 79 79 78 78 77 78 78 78 78 78 78 78 78 78 78 78 78 79 79 79 79 78 78
94 92 89 78 78 87 88 92 94 93 97 97 97 92 100 105 101 105 105 105 104 101 98 87 78 78 79 79 78 78 77 78 78 78 78 78 78 77 77 77 77 78 78 79 79 79 79 78 78
97 92 80 79 80 88 94 95 96 93 94 95 97 91 94 102 105 104 103 104 103 102 100 93 78 78 78 79 78 78 77 77 77 78 78 78 77 77 77 77 77 77 78 78 78 78 77 77 78
86 90 77 77 82 90 94 96 95 94 97 97 94 94 95 105 104 105 106 105 107 104 100 98 80 78 78 78 78 78 77 77 77 77 77 77 77 77 77 77 76 77 77 77 77 76 76 76 77
83 83 77 81 82 86 90 97 94 94 95 95 99 88 97 102 104 105 106 107 107 108 103 101 91 83 77 78 77 77 77 77 76 76 76 77 77 77 77 76 76 76 76 76 76 76 76 76 76
87 85 77 81 80 81 93 94 98 94 93 102 97 88 91 101 105 107 109 109 109 108 106 102 97 91 87 87 77 77 77 76 76 76 76 76 77 77 76 75 75 76 75 74 74 75 75 75 75
92 77 74 79 81 85 95 93 98 99 94 96 98 98 101 105 105 104 104 105 106 106 105 103 101 96 91 93 88 77 77 77 76 77 76 77 83 85 82 80 75 74 74 74 74 74 74 75 75
83 77 78 88 90 89 93 94 95 94 92 92 95 101 104 105 104 101 102 102 103 103 104 105 98 96 94 96 92 86 86 85 84 85 84 83 83 84 84 80 75 74 74 74 74 74 74 75 82
84 76 85 89 92 93 92 91 95 92 87 92 92 95 99 101 100 100 102 103 103 105 105 103 96 94 94 94 95 90 89 88 87 85 85 84 84 85 86 85 85 79 74 81 78 78 79 79 78
80 86 87 90 92 90 89 93 91 92 91 97 98 98 98 97 98 99 101 102 103 104 104 102 99 92 90 96 95 94 91 90 89 88 84 82 83 82 81 84 85 82 83 82 82 82 79 80 80
83 85 89 91 91 91 93 89 89 91 95 98 98 97 95 97 99 101 102 102 102 100 101 102 97 91 89 88 94 92 92 91 89 89 86 84 84 82 84 82 81 81 82 81 76 77 75 76 76
86 87 87 89 89 90 87 88 90 91 95 94 95 94 96 97 99 100 100 99 99 99 100 101 97 90 88 87 89 88 89 90 88 89 88 84 83 82 83 81 78 77 78 81 81 76 73 72 73
86 80 84 85 88 86 89 81 82 91 93 92 92 95 96 98 100 99 99 97 99 99 99 96 96 91 86 85 88 88 90 89 88 87 86 85 83 81 79 81 76 73 72 72 71 74 75 77 77
79 79 71 82 86 87 85 72 84 91 90 89 93 94 95 97 98 100 99 98 98 97 96 95 98 91 86 85 87 88 90 87 89 89 88 83 82 81 79 79 74 74 73 72 72 68 74 76 71
75 67 71 76 87 85 81 75 85 91 90 88 89 92 93 94 95 97 98 98 96 96 95 94 93 92 85 85 86 86 86 86 88 89 88 86 84 83 79 79 76 74 72 74 74 71 71 71 71
65 68 71 71 81 84 80 79 86 90 88 87 89 92 92 92 93 97 98 98 97 96 95 92 91 88 85 85 85 86 87 86 88 87 87 85 84 82 77 79 74 73 74 73 70 70 69 72 71
74 72 71 77 84 79 77 78 83 88 86 86 88 89 90 90 95 97 98 98 97 94 91 88 84 84 84 84 83 84 84 84 85 86 85 83 83 80 78 77 74 72 72 71 72 70 66 69 72
71 69 70 76 81 77 76 75 81 84 85 86 85 87 88 90 92 94 97 97 91 89 86 83 82 83 83 85 84 86 86 86 86 87 85 83 83 82 76 75 71 72 70 71 72 71 68 66 69
70 68 68 70 76 78 75 71 75 82 84 85 87 88 89 89 90 92 94 95 89 85 82 82 82 81 82 84 85 84 85 85 83 84 83 83 82 81 77 75 73 74 73 72 70 69 68 65 67
64 76 73 71 68 62 76 61 72 78 80 83 86 87 89 90 92 94 95 89 85 85 84 83 82 80 83 83 82 80 81 81 84 84 85 82 81 77 77 76 75 74 75 71 71 71 70 69 66
70 77 74 72 68 66 67 63 69 77 75 80 84 87 89 91 92 93 96 88 86 85 83 81 80 81 81 82 82 81 82 83 84 83 79 77 78 77 76 76 74 74 72 73 72 72 70 69 67
78 74 73 72 68 57 65 64 65 73 77 82 86 89 91 93 94 95 91 86 84 84 82 80 79 79 80 81 80 81 79 80 81 79 79 74 76 76 76 79 77 76 76 74 74 75 71 70 70
74 67 56 53 54 54 69 65 68 78 83 85 85 88 90 90 90 88 85 84 82 82 81 80 80 78 80 80 80 80 79 78 76 77 77 74 74 72 74 77 76 76 74 75 76 75 73 72 71
70 67 59 47 52 58 70 61 70 83 86 87 88 90 90 87 87 85 85 83 83 81 81 81 79 78 80 80 80 80 79 81 81 78 81 75 76 70 76 77 76 75 75 75 75 73 74 74 72
68 65 73 65 67 63 69 72 79 83 84 85 86 89 88 86 85 84 84 84 83 82 81 81 80 80 80 80 80 80 79 80 76 76 76 77 75 77 77 77 76 76 76 77 75 73 73 74 73
72 77 62 66 53 52 63 65 68 74 79 84 85 87 86 85 85 84 84 83 83 83 83 82 81 80 81 81 81 80 79 79 78 77 77 77 77 78 77 77 76 77 78 77 74 72 73 71 73
69 68 68 68 66 57 54 62 78 77 80 83 87 88 85 85 84 84 85 84 84 84 83 81 81 81 81 82 80 75 75 79 78 76 77 77 76 77 77 78 78 79 78 77 74 72 73 72 70
74 70 68 62 58 67 65 66 83 82 83 85 86 86 86 86 86 86 85 84 84 83 83 82 81 82 82 83 82 75 74 79 76 75 76 78 76 78 79 79 79 79 75 75 73 71 72 72 72

GFSSGP_sfc_temp_012.txt.gz
Temp
79 84 87 86 73 75 71 78 91 89 89 97 98 94 91 94 89 80 102 104 98 90 83 81 78 79 79 78 78 78 77 77 78 78 78 78 78 78 78 78 78 77 78 78 78 78 78 78 78
89 91 89 85 70 69 75 88 87 82 92 98 97 96 93 90 100 98 98 103 99 89 82 82 78 78 79 78 78 78 77 77 77 78 78 78 78 78 78 78 78 78 78 78 78 79 79 78 78
87 94 84 78 74 69 73 84 82 84 92 95 94 99 95 92 100 100 102 103 98 88 84 83 78 78 78 78 78 77 77 77 77 78 78 78 78 77 77 78 78 78 78 78 79 79 79 78 78
86 89 86 72 71 82 84 87 90 85 95 98 96 90 100 103 101 103 104 104 98 92 89 82 78 78 78 78 78 77 77 77 77 78 78 78 78 77 77 77 77 78 78 78 79 79 78 78 77
89 87 74 74 76 83 89 89 89 88 89 95 97 90 92 99 103 103 101 103 100 97 92 82 78 78 78 78 78 78 77 77 77 77 78 78 77 77 77 77 77 77 78 78 78 78 77 77 77
78 82 69 68 76 86 92 96 95 93 94 95 95 93 93 102 101 103 105 104 104 99 94 84 79 78 78 78 78 77 77 77 77 77 77 77 77 77 77 77 77 77 77 77 77 77 76 76 76
77 75 71 74 77 82 89 98 93 92 93 93 97 88 95 99 102 104 105 106 106 105 97 85 82 79 78 77 77 77 76 76 76 76 76 76 77 77 77 76 76 76 76 76 76 76 76 76 75
82 77 71 76 76 78 90 93 96 93 91 102 99 87 88 97 105 106 105 105 107 107 99 88 84 82 80 80 77 77 76 76 76 76 76 76 76 76 76 75 75 76 76 75 75 75 75 75 75
88 72 69 74 76 80 91 88 96 100 94 96 98 96 99 104 105 103 101 103 104 105 98 95 87 83 82 84 81 77 77 77 76 76 76 75 76 78 80 78 78 76 75 74 74 74 74 74 75
79 72 73 83 85 84 89 90 91 91 90 91 92 97 103 103 102 99 99 98 99 100 102 99 87 85 85 90 83 78 79 78 77 78 77 76 76 77 80 76 75 75 75 75 74 74 74 74 74
80 72 79 83 89 90 88 89 93 88 85 91 90 94 99 99 97 97 98 99 100 100 99 99 87 85 86 87 84 81 80 79 78 78 77 76 78 76 78 77 76 73 74 73 74 73 73 73 74
75 81 83 85 89 88 86 91 88 89 90 97 97 98 98 96 95 95 97 98 98 97 97 95 89 84 83 87 87 83 83 80 80 79 78 76 76 75 75 76 76 72 74 72 72 71 71 72 75
78 80 85 87 89 88 90 87 87 88 94 98 98 97 95 95 95 96 97 98 95 93 93 95 87 84 83 82 85 84 84 82 82 81 79 78 76 74 76 76 76 76 74 73 73 72 72 73 73
83 83 84 87 87 89 85 86 88 89 94 94 95 93 95 95 96 95 95 94 92 93 92 95 87 82 82 82 81 80 81 82 82 81 80 78 76 75 76 75 75 73 73 70 69 69 70 70 71
83 77 82 84 86 85 88 80 82 90 93 90 91 93 94 95 97 95 94 92 94 93 92 90 87 82 80 80 81 82 83 83 81 80 79 78 76 76 75 74 74 73 71 70 69 69 67 66 71
76 76 69 80 83 85 84 70 84 91 90 88 90 91 93 93 96 96 96 94 95 92 90 89 93 83 80 80 81 82 82 81 81 79 79 78 78 77 75 74 73 72 71 69 68 67 66 66 66
71 64 67 73 83 82 81 74 84 90 89 86 87 89 91 92 93 92 94 93 91 89 88 88 85 84 80 80 81 81 81 80 80 80 79 78 78 78 75 74 73 73 70 68 67 67 67 65 65
61 64 68 69 78 81 78 76 84 88 88 86 87 89 89 89 90 93 92 92 89 88 85 85 85 82 80 81 80 82 80 79 79 79 79 79 78 79 75 74 73 71 70 68 68 66 66 66 65
70 69 67 73 81 78 76 76 81 86 86 85 86 86 87 87 92 93 92 90 89 87 85 84 82 80 80 79 78 79 78 77 78 79 80 80 80 79 76 74 72 71 68 67 67 66 65 64 65
67 65 66 74 79 77 75 74 80 83 84 84 84 85 85 86 88 90 90 89 85 86 84 82 81 79 79 80 78 80 78 78 78 78 78 78 78 78 75 73 71 70 67 67 66 66 64 64 64
66 64 65 66 73 77 73 69 74 80 84 85 87 87 86 85 84 86 89 87 84 82 80 80 79 79 79 80 79 78 78 77 76 76 76 77 78 77 75 73 70 68 67 65 67 66 64 62 63
60 72 71 69 66 60 73 57 70 76 78 82 85 85 86 87 89 88 88 87 82 81 81 79 78 78 79 79 77 75 74 74 75 75 73 75 78 76 75 74 71 70 67 68 66 67 65 64 60
64 73 71 71 67 65 66 61 66 75 73 78 82 85 86 88 88 89 90 84 83 80 79 78 78 78 79 78 77 76 75 75 76 75 73 73 73 75 76 74 72 69 68 69 67 67 66 64 63
74 69 69 69 67 56 64 62 63 69 73 78 84 87 89 91 90 91 85 82 80 80 79 78 76 76 77 77 75 75 76 75 73 74 72 73 72 72 74 73 69 69 69 69 68 68 67 64 63
68 63 53 50 52 51 67 62 65 75 80 82 84 86 89 87 85 81 81 80 79 78 77 77 76 74 77 76 76 76 75 74 73 73 72 71 71 69 69 71 70 69 71 70 69 68 68 66 65
64 63 56 43 48 54 67 57 66 80 84 87 87 87 88 87 85 82 81 79 79 77 76 77 75 75 76 76 76 76 75 74 74 74 70 69 71 69 70 71 70 72 71 71 70 67 68 68 66
63 58 69 60 63 57 64 70 76 81 83 85 85 86 83 84 83 81 80 80 79 77 76 76 76 76 76 76 75 75 75 72 73 72 73 72 71 72 72 71 71 72 72 70 69 66 67 68 68
65 72 57 62 48 48 59 64 66 74 78 83 82 84 82 82 82 81 80 79 78 78 78 77 76 76 76 76 76 76 76 75 74 74 73 72 71 73 73 70 71 70 70 70 69 68 69 67 67
62 61 64 66 62 53 52 62 79 77 80 81 84 84 81 81 81 80 80 79 80 79 79 76 77 77 76 77 76 74 74 72 72 72 73 71 73 73 73 74 72 70 71 70 69 67 69 69 67
68 64 65 58 54 62 61 63 81 81 83 84 84 82 83 82 82 82 80 80 80 79 79 78 77 77 78 78 75 75 73 71 71 72 71 73 73 74 75 75 74 71 71 69 67 69 70 70 68

GFSSGP_sfc_temp_015.txt.gz
Temp
73 76 75 74 62 62 58 67 78 80 78 84 89 86 80 78 78 66 82 86 84 77 76 78 78 78 79 78 78 78 77 77 77 77 77 77 77 78 77 77 77 77 77 78 78 78 78 78 78
79 83 78 71 58 54 57 75 72 76 82 89 91 85 83 78 89 87 84 85 83 77 75 76 78 78 79 78 78 77 77 77 77 77 77 77 77 77 77 77 77 77 78 78 78 78 78 78 78
79 85 69 64 60 57 60 75 76 82 87 88 88 91 86 83 89 88 87 85 81 77 75 76 78 78 79 78 78 77 77 77 77 77 77 77 77 77 77 77 77 78 78 78 78 78 79 79 78
78 73 72 60 60 69 71 79 80 79 82 87 89 84 88 90 90 91 89 85 80 78 78 78 78 78 78 78 78 77 77 77 77 77 77 77 77 77 76 77 77 77 78 78 78 78 78 78 78
75 69 57 58 63 73 80 85 81 79 83 85 86 84 82 89 92 93 89 87 81 79 80 77 77 78 78 78 78 77 77 77 77 77 77 77 77 76 76 77 77 77 77 78 78 78 77 76 77
66 68 54 54 65 76 82 86 85 81 85 87 87 85 80 90 91 90 93 87 85 82 81 77 78 77 77 78 78 77 77 76 76 77 77 77 76 76 76 76 77 77 77 77 77 77 76 76 76
61 58 56 61 66 73 80 87 83 82 83 84 84 81 82 87 91 92 91 89 88 86 80 77 77 77 77 77 77 76 76 76 76 76 76 76 76 76 76 76 76 76 76 76 76 76 75 75 75
71 62 57 61 65 68 82 85 85 83 84 93 93 80 75 84 91 92 93 91 86 86 80 77 76 77 76 75 77 76 76 76 75 76 76 76 76 76 76 75 75 76 76 76 75 75 75 75 75
79 57 54 62 66 71 83 81 88 93 88 89 90 87 88 94 93 87 82 86 83 86 80 77 75 75 75 75 76 76 76 76 75 75 75 74 70 70 73 74 75 75 75 75 75 74 74 74 74
69 58 61 72 74 73 79 82 84 85 82 83 88 93 94 95 91 84 81 79 82 83 80 79 76 75 75 79 76 74 75 74 73 73 72 70 69 67 74 75 76 76 76 75 75 74 74 74 68
71 63 71 74 78 80 78 80 86 83 77 83 82 87 91 91 91 81 81 80 82 85 81 81 78 77 76 79 75 73 73 72 72 71 70 69 70 69 70 67 71 68 73 69 71 70 69 68 67
66 73 74 76 78 78 76 83 81 82 81 86 88 89 86 84 83 84 84 84 83 85 84 83 80 78 77 81 76 74 73 72 72 72 71 69 69 68 67 67 67 66 66 65 66 65 66 66 69
68 71 76 79 79 79 81 78 80 81 87 89 89 90 84 83 83 82 84 84 83 80 84 80 81 79 79 79 77 76 75 74 74 73 73 71 69 67 68 68 67 66 65 65 65 65 67 67 68
71 73 75 77 77 79 78 79 81 83 86 87 88 85 85 83 83 82 82 82 81 81 81 77 80 80 80 80 77 77 77 75 75 74 73 71 69 68 67 67 67 67 66 65 65 65 66 65 66
71 65 70 74 76 76 81 74 75 84 84 83 82 85 85 84 85 82 82 81 81 81 82 76 77 79 79 80 76 77 77 76 76 72 73 73 70 69 68 67 66 66 66 66 65 65 65 64 65
64 64 57 69 73 77 77 64 76 82 83 81 84 86 87 81 83 83 84 80 81 80 81 79 83 77 77 78 72 75 75 76 75 72 73 73 70 70 68 67 66 66 66 65 64 63 63 62 62
57 52 56 62 74 73 71 66 75 82 81 80 81 84 85 85 81 80 81 82 81 81 78 76 75 76 74 71 71 72 72 72 72 71 71 72 73 72 68 67 66 66 65 64 64 63 62 61 61
50 53 58 58 67 70 69 68 75 79 80 79 81 82 82 83 81 81 82 81 79 76 76 76 74 75 74 74 71 71 71 70 71 70 67 71 71 72 68 66 66 65 64 64 63 62 62 61 61
60 58 58 63 70 67 66 67 72 77 78 77 78 73 74 75 78 78 79 80 80 77 75 73 71 71 75 74 73 71 67 68 69 71 72 71 71 71 68 66 65 65 63 63 62 62 61 59 60
57 55 55 63 70 67 65 64 72 74 74 73 73 72 73 74 77 80 79 78 78 76 73 71 71 73 74 76 73 70 69 68 70 70 68 72 71 71 68 67 65 64 62 62 61 61 59 59 59
56 54 55 56 64 67 64 60 65 72 74 76 77 75 75 80 74 76 78 75 73 71 70 70 71 71 71 72 72 69 69 68 68 67 67 69 71 71 67 66 64 63 62 61 61 61 60 56 58
51 62 62 60 57 49 63 47 61 66 69 74 76 77 76 79 81 80 78 72 70 69 70 70 70 71 71 73 70 69 66 64 66 66 66 67 70 70 68 66 65 63 62 61 61 62 59 58 56
55 64 62 61 57 55 57 49 55 64 63 66 72 73 75 77 75 73 75 73 70 70 68 68 69 70 70 71 69 68 66 67 66 65 65 65 65 68 69 66 65 63 62 62 62 61 60 59 57
65 60 59 59 54 43 54 53 55 59 62 68 72 76 79 75 75 72 72 72 69 70 68 69 69 68 69 69 69 68 67 66 66 63 62 62 62 64 66 67 64 63 62 62 62 62 61 61 59
58 51 39 38 39 40 57 53 57 63 69 72 71 72 70 69 68 69 69 69 69 69 69 68 67 66 67 68 67 67 66 65 64 63 62 62 61 61 62 64 62 62 64 64 64 62 61 61 60
51 51 40 31 36 43 58 47 55 71 75 74 78 75 71 69 70 68 68 69 69 69 68 68 66 65 67 67 67 67 66 65 64 64 62 62 61 61 63 63 64 65 66 65 64 62 61 62 61
51 46 57 47 50 45 49 57 66 72 72 71 75 72 68 69 69 69 68 69 69 68 67 67 66 66 67 66 66 66 65 64 64 63 63 62 62 64 64 64 64 66 66 66 64 61 61 62 61
54 58 44 48 35 34 47 52 53 63 68 71 69 67 68 69 69 68 69 69 69 67 69 66 66 66 66 66 66 66 65 66 65 64 63 63 62 67 64 64 64 65 67 65 63 62 63 62 61
49 49 50 50 48 40 39 47 67 66 66 68 68 71 69 69 69 69 69 70 68 70 67 66 66 67 66 67 66 65 65 66 65 64 64 64 63 65 66 66 67 68 68 65 63 62 63 62 62
53 49 52 42 44 47 46 49 70 69 69 70 70 71 70 71 71 71 71 70 70 68 68 66 66 67 67 67 66 65 65 65 64 64 68 65 64 65 66 67 70 70 66 62 63 62 63 63 62

GFSSGP_sfc_temp_018.txt.gz
Temp
73 75 74 73 62 59 55 61 72 73 76 80 82 81 77 75 75 64 78 85 79 76 75 77 78 78 78 78 78 77 77 77 77 77 77 77 77 77 77 77 77 77 77 77 77 77 77 77 78
75 79 74 68 57 51 56 67 69 73 79 85 86 85 79 75 84 81 81 80 79 75 74 75 78 78 78 78 77 77 77 77 77 77 77 77 77 77 77 77 77 77 77 77 78 78 78 78 78
77 81 66 61 57 54 58 68 74 78 84 84 81 87 80 78 84 82 80 78 76 74 74 75 78 78 78 78 77 77 77 77 77 77 77 77 77 77 77 77 77 77 77 78 78 78 78 78 78
75 71 68 58 57 63 67 75 78 78 82 86 85 79 85 87 87 87 82 79 76 75 75 77 77 78 78 78 77 77 77 77 77 77 77 77 77 76 76 77 77 77 78 78 78 78 78 78 78
72 65 55 54 60 68 75 78 79 76 78 81 82 79 78 87 88 84 80 81 76 75 76 76 77 78 78 78 78 77 77 77 77 77 77 77 76 76 76 76 77 77 77 77 77 77 77 77 77
64 64 52 53 61 72 75 80 78 77 81 83 79 79 79 88 84 83 83 80 80 77 76 75 78 77 77 77 77 77 76 76 76 77 77 77 76 76 76 76 76 77 77 77 77 77 76 76 75
60 57 53 56 62 67 75 81 79 79 80 82 85 75 80 83 86 85 84 81 80 79 77 76 76 77 77 77 77 76 76 76 76 76 76 76 76 76 76 76 76 76 76 76 76 76 75 75 75
66 59 53 57 60 62 77 79 80 81 83 93 89 76 73 84 89 85 79 80 78 78 77 76 76 76 75 75 77 76 76 76 75 75 75 76 76 76 76 75 75 76 76 75 75 75 75 75 74
73 53 50 57 62 66 75 73 86 90 85 86 87 85 87 90 92 81 82 76 77 78 74 75 75 75 75 75 76 76 77 76 75 75 75 74 71 71 73 74 74 75 75 75 75 75 74 74 74
62 51 56 67 70 67 73 74 77 79 79 81 83 86 90 89 84 84 81 80 75 77 74 74 74 74 74 77 75 73 73 73 73 73 72 71 69 68 71 73 75 75 75 75 75 75 74 74 66
63 59 66 69 73 74 73 75 80 76 74 78 80 83 88 87 85 86 82 83 82 80 78 75 74 74 73 76 74 73 72 71 71 71 70 69 69 67 67 66 69 70 74 69 71 69 68 67 65
60 68 70 71 75 75 71 77 75 77 77 83 83 84 84 84 80 79 80 82 82 82 77 77 76 74 73 75 74 73 72 71 70 70 69 68 66 64 64 64 65 65 66 65 64 63 64 65 66
63 67 71 73 73 74 76 73 74 75 82 86 86 84 82 78 78 79 79 80 81 79 78 77 76 75 74 74 74 73 71 71 71 69 69 68 66 66 65 65 64 64 63 63 63 63 63 64 65
63 65 67 70 71 73 72 73 76 78 84 84 82 80 81 79 79 78 77 77 77 79 79 77 76 76 75 75 74 73 73 72 70 70 69 69 68 67 66 65 64 64 63 63 63 63 63 63 64
66 59 64 67 67 68 74 68 70 80 83 80 81 78 79 79 80 78 79 78 79 79 80 72 76 76 75 76 74 74 73 72 71 71 70 70 69 68 66 65 65 64 64 64 63 63 63 62 63
57 56 51 64 68 70 69 58 73 79 77 76 79 82 84 84 85 85 80 77 76 75 75 72 79 75 75 76 74 75 74 72 72 70 70 71 70 69 67 66 64 64 64 63 63 62 61 61 61
51 47 50 57 66 66 66 62 71 77 76 73 75 77 80 82 80 77 81 81 78 76 75 72 71 73 74 75 74 74 72 73 71 70 71 70 71 71 68 66 65 65 64 63 63 62 61 60 60
45 48 53 53 61 65 64 63 71 75 76 76 77 79 79 80 81 83 81 81 75 74 73 72 71 72 73 69 68 67 67 68 69 70 69 70 71 71 66 65 64 64 63 62 62 61 61 60 59
54 52 53 56 64 62 62 62 66 70 71 71 74 76 77 73 79 77 75 75 76 71 71 70 68 67 70 69 69 70 70 68 67 69 68 68 70 69 65 65 64 64 62 62 61 60 60 59 59
52 49 48 56 62 60 60 60 66 70 70 73 73 75 74 69 72 76 75 75 75 75 70 68 68 68 71 73 76 71 69 66 68 66 67 67 68 68 67 64 63 63 61 61 60 60 58 57 58
51 48 50 50 58 62 58 55 59 67 69 69 69 70 70 71 72 72 74 73 71 71 71 68 67 69 70 68 70 67 67 66 65 64 64 66 69 68 66 64 63 62 61 60 59 59 58 56 56
45 56 56 54 51 43 58 43 57 62 65 68 68 69 70 72 76 74 77 71 68 69 67 67 67 68 69 71 72 72 68 66 64 64 64 65 67 67 66 64 63 62 60 59 60 60 59 57 55
50 58 55 55 49 46 50 42 48 60 60 64 69 73 69 70 71 74 76 71 67 66 66 68 68 68 68 69 70 70 67 64 62 63 63 62 63 66 66 64 63 61 60 60 60 60 58 57 56
59 54 53 53 45 37 49 46 46 54 60 63 67 69 72 71 72 68 65 65 64 66 68 68 68 66 67 68 66 67 65 63 63 61 62 60 62 65 64 64 62 61 61 60 61 61 59 58 57
50 41 32 30 32 36 52 47 52 57 62 67 69 72 70 64 61 61 62 63 65 65 66 66 67 64 65 65 65 65 64 65 63 61 61 60 62 60 61 61 61 60 61 62 61 61 60 59 58
44 42 32 26 28 37 53 41 49 64 71 73 74 69 66 62 61 61 62 64 65 65 65 66 66 64 66 66 64 64 64 64 62 61 60 60 60 60 60 61 61 62 63 64 62 60 60 60 59
44 41 47 39 45 36 42 51 57 66 69 71 68 66 62 60 62 62 64 65 64 64 64 65 65 64 66 65 64 62 62 62 61 61 61 60 60 62 61 62 62 63 64 64 62 60 60 60 60
47 51 39 37 30 28 40 44 48 56 60 65 66 63 60 61 62 62 64 63 64 64 63 64 65 65 64 64 64 64 62 62 61 61 60 60 60 62 62 62 62 62 63 63 62 61 60 60 60
42 41 43 42 39 32 32 40 58 58 64 65 62 64 62 62 62 63 64 64 65 64 64 63 64 64 63 64 63 63 62 63 62 61 61 60 61 62 62 63 63 64 64 63 62 61 61 61 60
47 44 41 33 35 41 39 42 62 60 66 62 64 65 64 64 64 64 65 65 65 64 63 62 63 64 64 64 62 62 62 62 61 61 61 62 62 62 64 64 66 67 64 62 62 62 62 61 61

GFSSGP_sfc_temp_021.txt.gz
Temp
73 73 72 72 60 55 52 59 69 70 70 76 78 78 75 74 72 64 75 79 77 74 74 76 78 78 78 78 78 78 77 77 77 77 77 77 77 77 77 77 77 77 77 77 77 77 77 77 77
74 76 73 67 55 46 51 63 69 71 76 78 81 79 75 74 81 78 78 77 76 74 74 75 78 78 78 78 77 77 77 77 77 77 77 77 77 77 77 77 77 77 77 77 77 77 78 77 77
76 79 67 61 54 51 55 66 71 75 80 80 78 82 80 77 83 79 78 76 74 73 74 74 78 78 78 78 77 77 77 77 77 77 77 77 77 77 76 77 77 77 78 78 78 78 78 78 77
75 70 66 56 54 59 63 69 74 73 79 79 79 78 80 86 86 86 78 76 74 73 74 76 78 78 78 78 77 77 77 77 77 77 77 77 77 76 76 76 77 77 77 78 78 78 77 77 78
71 64 53 53 57 63 69 73 75 73 75 77 79 74 76 83 85 81 77 78 74 72 73 75 77 78 78 78 77 77 77 77 77 77 77 77 76 76 76 76 77 77 77 78 78 77 77 77 77
63 61 50 51 58 67 73 74 76 74 76 77 75 76 74 84 83 79 78 75 77 74 74 75 77 77 77 78 77 77 76 76 76 76 76 77 76 76 76 76 76 77 77 77 77 77 76 76 76
60 55 51 54 59 64 72 74 73 74 77 76 77 74 75 80 82 82 76 74 74 76 74 74 76 76 78 77 77 76 76 76 76 76 76 76 76 76 76 76 76 76 76 76 76 76 76 75 75
63 58 51 56 59 61 74 75 77 78 77 86 83 72 72 82 85 81 77 74 72 73 75 73 74 75 75 75 77 76 76 76 76 76 76 76 76 76 75 74 75 76 76 76 76 76 75 75 75
67 51 49 56 60 63 73 73 82 84 80 79 82 81 85 88 85 78 74 73 72 74 71 72 73 74 74 74 75 76 77 76 76 75 76 74 71 71 72 73 74 76 76 75 75 75 75 74 74
59 50 54 64 68 65 70 70 77 80 78 76 77 84 86 86 83 78 75 74 74 74 73 72 72 73 73 76 73 73 72 73 72 72 70 70 67 68 70 72 75 75 75 75 75 75 75 74 66
59 56 63 65 69 71 70 72 74 74 70 76 74 79 84 82 80 78 78 76 76 78 75 74 73 73 72 74 72 72 70 70 70 69 68 67 68 67 69 66 67 69 73 69 70 69 68 66 64
55 63 67 68 71 70 69 73 72 72 74 80 81 82 80 81 80 79 79 77 76 74 77 76 74 72 72 74 72 72 71 70 69 69 68 68 66 64 64 64 64 66 66 66 65 64 64 64 65
59 63 66 68 68 68 72 69 70 72 77 80 81 81 79 78 78 77 78 78 77 73 76 75 74 73 73 72 73 72 71 71 71 69 69 68 66 65 63 63 63 64 64 64 63 62 62 62 63
59 60 64 65 66 66 67 69 71 74 79 79 80 78 79 77 77 75 74 74 74 77 74 76 73 74 73 72 73 72 72 72 71 69 69 68 67 64 63 63 63 63 63 63 62 62 61 62 62
61 56 61 62 60 63 69 64 66 74 78 77 78 79 80 75 76 76 77 75 78 80 79 71 73 73 72 71 73 72 72 72 70 69 69 68 66 65 65 65 65 63 63 63 62 62 62 61 62
52 52 48 60 64 65 67 55 70 73 74 74 75 75 76 78 78 80 77 75 77 77 74 70 76 72 72 72 74 73 72 71 70 70 68 68 67 67 66 67 65 64 63 62 61 61 61 63 60
47 42 44 51 63 64 64 58 69 73 73 72 73 74 76 76 74 74 78 81 79 76 76 71 69 71 71 72 73 73 71 71 70 69 69 68 68 68 68 64 64 64 63 62 62 61 60 59 59
42 43 47 48 57 61 59 59 67 69 69 68 70 73 74 76 77 81 80 78 75 71 69 69 68 70 70 70 66 66 65 68 67 68 68 69 68 69 65 65 64 63 62 62 61 61 60 60 58
50 47 45 52 60 57 57 58 62 65 67 69 71 72 72 69 75 78 78 76 72 69 68 67 66 64 67 65 65 64 66 65 66 68 68 68 68 67 67 64 63 63 62 62 61 60 59 59 60
48 45 45 51 57 54 54 53 59 63 65 67 68 69 70 71 74 76 75 72 70 71 68 66 66 64 69 70 70 66 69 64 65 66 67 68 69 68 66 64 63 62 61 61 60 59 57 58 58
46 43 45 46 53 57 53 51 55 63 64 67 69 66 67 69 70 72 72 70 71 69 68 66 65 66 67 65 65 64 65 65 61 63 64 65 67 67 66 64 63 62 61 60 59 58 57 56 55
41 51 52 50 46 39 52 39 54 60 62 64 67 63 65 69 69 69 72 70 67 71 66 66 64 65 65 67 66 68 65 65 61 67 62 63 66 66 65 64 62 61 60 59 59 59 58 56 55
45 53 50 50 46 40 45 38 49 54 55 61 66 68 68 67 69 68 71 69 68 65 63 64 65 65 66 66 67 66 64 62 62 64 62 63 62 64 65 65 63 60 59 59 59 59 58 57 56
55 49 48 47 41 32 43 42 46 51 55 58 62 64 67 67 68 67 62 61 61 64 65 65 65 65 66 67 66 67 64 62 62 62 61 60 60 62 65 63 61 60 59 60 60 59 58 58 56
48 38 28 27 28 31 46 43 48 53 57 59 60 63 65 65 64 60 57 60 63 64 64 65 65 63 63 64 64 65 63 64 63 62 62 60 60 59 59 60 59 59 60 60 60 59 58 58 57
41 40 29 25 27 33 48 39 46 58 63 67 68 69 64 64 59 59 60 61 62 63 63 64 63 62 63 63 61 61 63 63 63 62 61 60 59 59 60 60 60 60 61 61 60 60 59 58 58
41 36 45 35 38 32 38 45 55 61 65 65 64 63 61 58 58 60 61 61 61 61 61 62 63 62 62 61 62 61 62 62 61 60 60 59 59 60 60 60 60 61 61 61 60 60 59 59 58
45 48 36 32 27 26 35 39 44 51 56 59 60 61 58 57 59 60 61 61 60 61 61 63 64 62 62 62 63 62 61 61 60 60 60 59 59 60 60 60 60 61 61 62 60 60 59 59 58
41 37 39 39 36 28 29 35 50 54 57 58 64 61 56 57 60 60 60 61 61 61 62 62 63 62 62 63 62 61 60 60 60 59 59 59 59 60 61 61 61 61 62 62 60 60 60 60 59
47 41 39 31 32 35 34 39 58 54 58 60 60 59 58 59 60 60 61 61 62 61 62 62 62 63 62 61 61 60 60 60 59 59 59 60 60 60 61 62 62 65 63 61 60 61 61 60 60

GFSSGP_sfc_temp_024.txt.gz
Temp
71 71 69 68 58 55 50 57 65 67 68 74 74 73 74 72 71 63 73 76 74 74 74 76 78 78 79 78 78 78 77 78 78 77 77 77 77 78 77 77 77 78 78 78 78 78 77 77 77
72 73 70 65 54 47 53 62 64 70 72 77 76 74 74 72 79 77 76 76 75 74 74 75 78 78 78 78 78 77 77 77 77 77 77 77 77 77 77 77 77 78 78 78 78 78 77 77 77
75 76 65 59 53 50 53 64 68 73 78 76 73 78 75 74 79 79 77 75 73 72 74 74 78 78 78 78 78 77 77 77 77 77 77 77 77 77 77 77 77 78 78 78 78 78 78 77 77
72 68 64 53 52 59 60 67 68 72 78 79 78 73 78 83 82 83 77 74 73 73 74 76 78 78 78 78 77 77 77 77 77 77 77 77 77 76 76 77 77 77 78 78 78 78 77 77 77
69 63 52 49 55 62 65 67 67 69 73 77 76 72 73 82 83 79 75 75 72 71 73 75 78 77 78 78 78 77 77 77 77 77 77 77 77 76 76 76 77 77 77 77 77 77 77 77 77
60 60 47 50 57 65 68 70 69 70 74 77 75 73 73 79 80 76 75 72 74 71 71 73 78 77 77 78 77 77 76 76 76 77 77 77 76 76 76 76 77 77 77 77 77 77 76 76 76
59 54 50 53 58 61 67 70 69 71 71 74 74 72 74 77 81 76 74 73 73 73 71 71 75 76 78 77 77 76 76 76 76 76 76 76 76 76 76 76 76 76 76 76 76 76 76 76 75
62 58 50 54 57 60 69 70 76 74 74 82 81 71 70 78 80 76 74 72 70 70 72 70 71 74 74 75 77 76 76 76 76 76 76 76 76 76 76 75 75 76 76 76 76 76 75 75 75
63 50 47 54 58 63 69 65 76 82 77 76 79 79 81 82 79 74 71 71 70 72 69 69 70 71 72 73 74 76 77 76 76 75 75 74 72 72 73 74 74 76 76 75 75 75 75 75 75
58 49 52 63 66 65 68 66 71 73 72 73 76 79 83 82 78 77 74 74 70 71 71 71 70 71 71 74 71 73 72 73 72 72 72 71 69 69 71 73 75 75 75 75 75 75 75 75 70
57 55 61 64 68 69 69 68 71 70 66 72 74 76 79 78 78 76 76 74 75 78 73 73 72 72 71 73 71 71 71 71 70 70 70 70 69 70 71 68 71 70 74 71 73 72 71 69 68
52 60 66 66 69 68 67 70 67 69 70 76 78 78 75 77 74 74 75 75 75 73 76 75 73 72 71 73 72 72 71 70 70 70 69 68 68 67 68 67 66 67 69 69 69 68 68 67 67
57 59 63 67 67 67 70 66 67 69 74 77 78 78 75 74 74 75 75 75 74 74 77 75 72 71 71 70 72 70 71 71 71 70 69 69 67 66 67 66 65 65 67 67 67 66 66 66 66
57 59 61 62 62 65 65 66 66 70 74 74 76 75 76 74 74 74 73 73 72 73 72 73 71 72 72 70 71 71 71 71 70 70 70 69 67 66 65 65 64 65 65 66 66 65 65 65 66
57 53 55 58 58 60 66 61 63 72 74 73 74 76 76 76 74 72 76 72 74 76 73 68 71 71 70 70 70 71 72 71 70 71 69 69 67 65 65 64 63 64 65 65 64 64 64 64 65
51 51 47 59 59 63 65 55 68 71 72 71 74 74 74 72 73 73 73 71 72 70 70 69 73 70 70 71 71 72 71 70 70 71 69 69 67 66 65 64 63 64 64 64 64 63 63 63 64
44 44 41 49 60 60 61 57 62 70 70 67 67 69 71 75 72 70 73 73 72 72 70 70 65 69 69 70 70 70 69 69 70 69 68 69 67 67 66 65 65 66 65 64 63 63 64 63 62
39 38 45 45 54 58 55 57 62 67 68 66 66 68 68 69 69 72 72 74 74 70 67 66 65 66 67 67 67 66 65 68 68 67 67 68 67 68 66 65 65 65 64 63 63 64 63 63 62
46 44 42 48 55 51 53 56 59 61 61 63 66 68 70 71 74 70 71 72 71 67 65 65 63 62 66 65 65 64 66 65 65 67 67 67 67 68 66 65 65 64 64 64 64 63 62 61 62
45 42 41 48 54 51 49 49 54 58 59 61 63 65 64 63 65 69 72 69 67 68 66 65 63 62 66 68 65 65 65 64 66 66 67 68 68 67 67 65 64 64 63 63 63 62 60 61 61
42 41 42 43 51 54 50 48 52 59 60 64 65 65 66 66 66 69 69 68 69 65 65 66 63 62 65 65 64 62 63 63 62 64 65 67 68 67 67 66 65 64 63 62 61 61 60 59 58
38 48 48 47 43 36 48 36 50 56 58 61 63 64 66 61 67 68 69 67 69 68 65 64 63 62 64 65 65 64 61 61 62 64 64 65 67 67 66 66 65 64 63 62 61 61 60 59 58
42 51 47 46 42 38 42 35 48 52 50 54 61 65 66 65 63 65 68 69 65 63 61 60 61 63 64 65 65 64 62 61 63 63 63 64 64 66 66 65 64 63 62 62 61 60 60 59 59
52 46 44 41 37 28 40 39 42 47 53 59 60 60 63 64 63 63 63 62 61 65 64 64 63 63 64 65 65 63 62 62 62 62 62 61 62 63 64 65 64 62 62 61 61 61 60 60 59
45 36 25 24 25 29 42 39 46 49 54 56 58 60 61 61 61 61 59 60 65 65 66 65 63 62 63 64 64 64 63 64 63 63 61 61 61 61 62 62 62 61 62 62 62 61 61 60 59
39 37 26 24 25 29 44 34 42 55 59 60 61 60 61 61 60 58 58 63 64 65 63 62 62 61 62 63 62 62 64 65 63 64 63 61 61 61 62 63 62 62 63 63 62 61 61 61 60
39 34 42 33 34 29 35 41 50 58 59 61 59 60 58 60 57 59 62 63 61 61 61 61 61 61 61 61 62 62 62 63 62 61 61 61 61 62 61 62 61 62 63 63 62 61 62 61 61
43 45 33 30 26 25 32 35 39 49 51 56 56 58 59 55 59 61 61 60 59 60 61 61 61 61 61 62 63 62 61 62 62 62 61 61 61 62 61 61 62 63 63 63 63 62 62 61 61
42 35 36 34 31 27 27 33 47 50 52 52 58 61 56 55 61 61 60 59 59 60 61 60 61 62 61 62 62 62 61 61 61 61 61 61 61 61 62 63 63 63 63 63 62 62 62 62 61
42 39 37 29 30 32 30 33 54 51 52 55 57 55 54 60 61 61 59 59 59 60 61 60 61 62 62 62 62 61 61 61 60 60 60 61 61 62 63 64 65 65 64 64 63 63 63 62 62

GFSSGP_sfc_temp_027.txt.gz
Temp
77 79 82 81 71 69 66 70 74 74 77 84 85 83 85 89 83 79 88 88 87 85 85 83 78 79 79 79 78 78 78 78 78 78 78 77 78 78 78 77 78 78 79 79 78 78 78 78 78
80 78 81 76 67 63 69 72 73 80 83 85 86 84 84 84 90 90 90 86 87 85 84 85 78 78 79 79 78 78 78 78 78 77 77 77 77 78 78 78 78 78 79 79 78 78 78 78 77
79 82 78 72 64 64 70 73 76 81 85 82 85 88 86 86 89 92 93 87 86 84 84 84 78 78 79 78 78 77 77 78 78 78 78 78 77 77 77 77 78 78 79 79 78 78 78 78 77
80 80 77 65 64 69 70 78 79 80 85 85 87 83 89 93 93 96 90 87 85 85 86 82 78 78 78 78 78 77 77 77 77 78 78 77 77 77 77 77 78 78 79 79 78 78 77 77 77
80 75 68 63 65 70 75 78 80 80 82 84 86 83 85 92 91 89 87 87 87 86 85 85 78 78 78 78 78 77 77 77 77 77 77 77 77 76 76 77 77 78 78 78 78 78 77 77 77
70 71 62 61 66 72 78 82 80 82 84 84 83 84 87 92 91 88 90 89 90 86 83 85 79 78 78 78 78 77 77 77 77 77 77 77 77 76 76 76 77 77 78 78 78 77 77 76 76
70 67 62 61 64 69 76 84 80 83 83 84 88 81 88 93 94 90 89 88 87 86 84 83 85 81 78 77 77 77 76 76 76 76 76 76 76 76 76 76 76 76 77 77 77 77 76 76 76
73 70 63 64 63 67 78 80 84 84 83 90 90 81 83 90 89 87 88 88 88 87 86 85 82 84 84 84 77 77 76 76 76 76 76 76 76 76 76 75 75 76 76 76 76 76 76 75 75
73 64 61 65 63 69 77 75 83 86 84 85 88 89 91 90 89 88 87 88 88 86 84 83 82 82 84 85 83 77 77 76 76 76 76 76 82 81 80 78 76 76 76 76 76 75 75 75 75
70 63 64 71 71 71 75 76 78 79 79 80 82 85 91 92 93 93 92 92 89 87 85 85 80 82 82 84 82 81 81 82 81 81 80 80 80 81 82 80 75 75 76 76 75 75 75 76 83
69 64 70 72 74 75 76 76 79 77 76 81 80 81 86 89 89 89 92 93 94 94 89 86 80 79 81 81 81 82 82 82 81 80 80 80 79 80 80 81 81 80 77 82 80 80 81 81 81
64 70 72 73 73 73 71 79 75 78 78 84 83 83 84 84 85 87 89 90 92 91 89 87 82 79 78 83 82 82 83 81 81 81 79 79 78 77 78 80 81 78 81 80 80 81 80 78 79
63 69 71 73 73 73 74 72 74 75 81 83 83 82 82 84 85 86 87 89 88 85 87 87 84 80 79 78 82 80 81 82 82 82 79 79 78 76 78 78 77 76 80 80 79 80 79 78 78
70 69 69 72 71 72 70 72 74 76 81 79 80 80 82 83 84 85 86 85 85 85 85 89 85 82 80 78 78 79 79 81 81 82 80 78 79 75 77 76 77 75 75 80 79 78 78 78 78
66 61 65 66 70 68 71 65 68 76 78 76 78 80 82 84 86 84 87 85 85 87 86 83 83 83 79 78 78 79 80 80 81 80 78 77 77 76 75 77 75 72 71 73 73 73 75 76 77
59 60 55 66 66 68 68 59 73 80 78 75 77 80 82 84 86 87 86 84 84 83 84 83 86 83 79 79 79 80 81 80 81 80 80 76 76 75 74 76 76 73 72 72 73 74 74 76 77
57 52 55 60 69 67 65 62 74 79 76 76 78 78 79 81 82 83 83 84 83 82 80 81 80 80 79 79 80 79 78 78 80 80 80 77 76 75 75 76 75 74 70 73 74 74 74 71 72
49 50 55 55 64 65 63 63 71 76 74 74 76 77 78 79 81 83 83 84 83 81 80 79 80 77 78 80 78 80 79 78 80 79 79 77 75 75 75 75 73 74 75 74 72 72 73 72 75
55 53 53 59 63 63 61 62 67 71 71 71 72 73 75 76 81 83 82 83 82 80 79 79 79 78 76 77 77 77 76 77 77 78 76 75 75 75 75 75 73 74 74 71 72 71 72 71 69
52 50 49 55 60 58 59 58 64 66 67 69 69 71 73 75 77 78 80 81 80 78 78 78 78 76 75 78 77 79 78 78 78 76 74 75 76 75 75 73 72 72 74 73 70 69 67 67 66
51 49 50 49 56 60 57 54 59 66 69 71 72 73 74 73 74 76 78 79 80 79 78 78 78 76 75 76 76 75 75 71 71 73 73 74 75 75 74 73 69 71 75 68 70 71 71 68 65
44 54 53 52 51 45 57 44 57 63 65 67 70 71 73 74 76 77 78 79 78 79 80 77 76 75 75 75 75 73 76 71 72 71 74 71 75 74 74 72 72 74 75 67 73 73 72 70 69
48 55 53 52 49 49 50 46 55 64 61 65 68 71 73 75 76 76 78 79 80 79 76 75 73 73 75 74 76 75 75 76 76 76 69 69 72 74 74 74 75 74 72 71 72 71 70 72 71
57 53 52 52 49 39 48 47 51 59 62 66 70 72 74 76 76 77 78 76 76 76 75 71 72 72 73 74 74 74 73 73 73 73 69 70 74 75 75 76 75 74 74 73 73 71 70 70 70
52 47 37 35 36 35 52 46 52 62 65 67 68 71 74 76 76 76 76 77 75 74 72 69 72 72 73 74 74 75 74 73 72 72 73 73 74 74 72 74 73 74 73 73 72 71 70 69 70
49 47 40 30 34 40 50 42 53 64 68 70 70 73 74 74 76 74 75 73 73 71 69 72 73 72 73 74 73 74 73 76 75 75 76 76 76 75 73 74 74 73 73 73 72 72 72 71 71
48 42 53 42 44 41 46 52 60 64 66 70 70 70 71 73 73 74 69 69 68 67 71 73 73 73 73 73 73 72 74 73 75 73 74 76 74 74 73 73 73 73 73 72 71 73 71 71 69
48 54 41 44 33 33 44 46 51 59 61 64 67 67 69 69 70 68 65 66 68 72 73 73 74 73 73 73 74 74 73 74 73 73 73 73 72 73 72 72 72 72 73 73 71 70 71 70 71
38 44 47 47 45 38 39 47 59 60 60 62 66 68 67 67 69 64 65 67 71 73 73 72 73 73 73 74 73 73 73 73 74 73 73 73 72 72 73 73 73 73 73 72 71 70 71 68 70
47 45 48 41 39 44 43 45 63 60 63 63 66 69 68 67 64 64 66 69 72 73 73 72 73 74 74 75 74 73 73 73 72 72 72 73 72 73 73 74 74 74 74 73 71 71 70 67 70

GFSSGP_sfc_temp_030.txt.gz
Temp
82 90 95 91 78 80 78 81 89 85 85 92 91 91 92 96 90 86 102 104 104 100 93 86 79 79 79 79 79 79 78 78 78 78 78 78 78 78 78 78 78 79 79 79 79 79 79 79 79
93 90 92 90 75 73 78 86 83 89 91 93 94 92 90 90 100 99 101 99 100 98 92 91 79 79 79 79 78 78 78 78 78 78 78 78 78 78 78 78 78 79 79 79 79 79 79 79 78
90 92 87 82 78 75 80 86 88 89 92 91 90 95 93 90 99 102 105 99 100 96 93 92 79 79 79 79 78 78 78 78 78 78 78 78 78 77 77 78 78 79 79 79 79 79 79 78 78
89 89 88 75 75 82 83 87 88 88 91 93 93 89 96 100 101 108 103 101 99 97 96 88 78 79 79 79 78 78 78 78 78 78 78 78 78 77 77 77 78 79 79 79 79 79 78 78 78
89 85 75 74 76 84 88 89 89 87 89 91 93 90 92 99 102 104 102 101 101 99 98 94 78 78 79 79 79 78 78 78 78 78 78 78 77 77 77 77 78 79 79 79 79 78 78 78 78
81 85 71 70 75 83 88 91 90 89 92 94 92 91 94 102 101 103 105 104 106 101 98 97 80 78 78 78 78 77 77 77 77 77 77 77 77 77 77 77 77 78 78 78 78 78 77 77 77
77 77 73 75 74 79 85 94 88 90 91 92 97 90 95 101 104 104 105 106 104 104 98 97 92 83 78 78 77 77 77 77 77 77 77 77 77 77 77 77 77 77 77 77 77 77 77 77 77
83 80 73 76 73 72 87 89 93 92 91 98 97 89 89 97 101 103 105 105 105 103 102 98 95 93 90 89 77 77 77 77 76 76 76 76 77 76 76 75 76 77 77 77 77 77 77 76 76
85 73 71 74 75 77 85 84 94 96 91 93 95 96 98 98 101 102 102 103 104 103 100 98 96 94 93 96 89 78 77 77 76 77 76 77 86 84 84 80 78 76 76 76 76 76 76 76 76
77 72 75 82 82 77 82 85 89 87 89 89 91 93 96 98 100 100 100 101 102 102 102 100 93 93 93 95 93 87 88 86 84 85 84 84 85 87 88 84 77 76 76 76 76 76 76 76 90
77 71 82 83 84 82 81 85 90 85 84 91 90 92 93 93 95 96 100 102 103 103 104 102 94 89 91 92 93 91 90 89 87 85 85 84 86 87 86 88 84 83 78 85 81 81 84 86 89
71 78 80 83 84 79 78 86 84 87 87 94 94 94 94 93 94 94 95 100 102 102 102 100 96 88 86 93 92 93 92 90 89 88 85 85 86 85 85 87 87 81 79 83 86 85 86 85 85
73 76 80 82 81 80 80 80 82 85 91 94 93 91 90 93 94 95 95 96 98 97 98 99 97 90 87 85 93 91 91 92 91 91 87 87 87 85 85 86 87 86 89 83 82 84 85 84 84
77 76 77 80 79 79 75 79 82 85 91 89 89 88 91 93 93 94 94 93 94 96 97 98 97 93 88 87 87 89 88 91 91 91 90 85 87 86 86 85 85 87 86 84 84 83 85 82 86
73 68 73 75 78 75 78 71 75 85 89 87 86 88 90 91 94 93 94 93 94 96 97 93 93 94 89 87 88 89 92 90 91 91 88 86 84 84 83 85 85 86 85 82 83 84 80 84 85
65 67 61 73 75 76 73 64 79 86 85 84 86 88 89 91 94 96 96 95 93 93 93 94 97 97 91 89 90 90 92 92 91 91 90 85 83 83 82 86 85 86 85 84 85 81 83 83 83
64 57 62 66 78 74 71 66 77 85 85 83 85 87 89 91 93 93 93 93 92 92 91 91 92 93 89 88 89 89 88 89 91 91 90 86 83 82 83 84 85 83 85 84 82 82 81 80 79
57 60 62 63 73 75 70 68 76 82 83 83 85 87 88 88 89 92 92 93 92 90 89 89 90 89 87 87 87 89 90 89 89 89 89 86 84 82 80 83 83 83 84 83 82 79 81 76 77
62 62 62 66 73 70 69 69 73 79 80 80 82 83 84 85 90 90 90 90 90 89 88 87 86 86 86 88 87 88 88 88 87 88 86 85 82 80 79 83 82 81 82 79 78 77 77 77 76
59 56 58 64 69 68 67 66 72 76 78 80 80 81 82 84 86 88 88 88 87 87 87 87 86 86 85 87 87 90 89 91 89 88 84 83 78 80 80 80 81 79 81 77 75 77 78 75 74
56 54 55 58 64 66 64 61 66 74 76 78 79 80 81 82 82 84 86 87 88 88 87 86 86 85 85 84 86 84 86 85 85 84 79 77 80 80 79 79 81 79 80 77 77 76 77 72 73
49 60 59 57 56 50 64 50 64 70 72 75 77 79 81 83 85 86 87 87 88 88 90 88 86 84 85 84 86 81 84 83 84 83 78 80 79 77 76 76 80 78 81 80 79 77 80 76 71
53 61 59 57 55 55 56 53 61 69 67 72 76 79 82 84 85 87 88 89 90 89 88 87 85 84 83 83 84 83 82 86 84 83 77 73 75 76 78 80 78 78 83 79 79 78 77 75 78
61 56 56 55 53 45 54 55 57 64 69 74 79 81 82 85 86 87 89 88 87 88 87 86 82 82 82 82 81 81 81 83 83 81 70 71 73 75 79 80 80 80 81 78 79 78 76 76 77
57 50 42 39 40 39 57 53 57 68 74 74 75 79 82 83 84 86 87 88 87 86 87 85 82 81 81 81 81 82 81 80 79 72 74 75 75 78 77 80 79 78 78 79 79 77 77 76 76
51 50 42 35 40 45 56 48 58 71 76 76 77 79 81 82 85 85 86 86 88 85 80 82 82 80 81 81 81 82 81 84 83 82 82 81 81 81 79 79 79 80 80 79 77 78 78 77 76
50 43 55 45 48 49 54 57 66 71 72 74 75 77 78 80 82 84 85 84 83 80 81 82 82 81 81 81 80 80 82 82 82 79 81 83 82 81 80 80 79 79 79 78 76 79 76 77 73
53 50 35 46 33 37 51 53 56 65 67 72 72 73 77 78 80 82 82 76 79 82 82 82 82 80 80 81 81 81 81 81 80 80 80 80 79 80 79 79 78 78 78 78 76 78 76 73 72
43 42 44 47 48 43 45 53 68 67 68 68 71 74 76 75 79 76 72 76 82 82 82 80 81 81 81 82 81 80 80 81 81 80 80 79 79 79 79 79 78 78 78 77 75 75 75 73 73
49 44 41 34 39 50 47 53 70 69 70 69 71 74 77 69 69 68 71 81 82 82 82 82 81 82 82 82 81 80 80 80 79 79 79 79 78 80 80 80 80 80 79 77 77 76 77 73 70

GFSSGP_sfc_temp_033.txt.gz
Temp
82 91 98 95 80 82 79 84 96 92 92 98 98 95 94 98 91 83 107 109 109 105 94 87 79 79 80 80 79 78 78 78 79 79 78 78 78 79 78 78 79 79 80 80 80 80 80 80 79
90 96 95 90 77 75 80 92 89 93 98 100 99 98 94 93 104 101 103 106 107 102 93 92 79 79 80 79 79 78 78 78 78 78 78 78 78 78 78 78 79 79 80 80 80 80 80 79 79
91 95 87 82 78 75 82 93 93 97 98 96 95 100 97 95 102 104 103 105 106 99 94 93 79 79 79 79 79 78 78 78 78 78 78 78 78 78 78 78 78 79 80 80 80 79 79 79 78
93 92 87 77 77 83 88 93 97 95 97 100 99 91 100 105 104 106 105 105 104 101 98 87 78 78 79 79 79 78 78 78 78 78 78 78 78 77 77 78 78 79 80 80 79 79 79 78 78
92 89 77 77 78 86 94 95 95 92 96 97 98 92 94 100 108 108 107 107 104 104 101 91 78 78 79 79 78 78 78 78 78 78 78 78 77 77 77 77 78 79 80 80 79 79 78 78 78
84 87 72 71 78 87 93 96 95 94 97 98 96 95 97 106 104 107 109 109 110 105 102 96 80 78 78 78 78 78 77 77 77 77 78 78 77 77 77 77 78 78 79 79 79 78 78 78 77
78 80 75 78 79 83 89 96 93 93 94 96 102 93 97 103 107 110 110 112 111 109 104 100 90 83 78 78 78 77 77 77 77 77 77 77 77 77 77 77 77 78 78 78 78 78 77 77 77
83 81 75 79 77 80 92 94 98 95 94 104 102 92 91 102 108 111 112 112 112 110 107 104 95 90 88 87 78 77 77 77 76 76 77 77 77 77 77 76 76 77 77 77 77 77 77 77 77
90 74 71 77 77 81 92 89 97 101 97 98 100 98 102 105 107 108 108 109 109 109 107 105 101 93 92 95 88 78 77 77 76 77 77 77 84 84 84 80 78 77 77 77 77 77 77 77 76
79 74 75 84 86 85 90 90 91 93 93 93 96 99 101 102 104 104 104 104 105 105 106 106 99 98 96 98 94 85 86 85 84 84 84 82 84 86 87 84 78 76 76 76 76 76 76 77 85
78 74 82 85 87 89 86 87 93 91 88 93 93 96 98 99 101 103 104 105 104 106 107 108 98 96 97 97 98 92 90 88 86 84 84 83 86 87 88 88 84 82 78 82 80 80 82 81 84
73 80 82 84 87 89 84 88 87 91 91 98 100 101 100 97 98 99 100 104 105 105 106 106 104 94 91 97 96 96 95 92 89 88 85 84 85 85 86 89 87 83 85 83 84 85 81 80 85
77 80 83 85 84 85 87 83 85 88 96 99 100 99 97 97 97 100 101 101 101 100 102 104 103 95 90 88 95 94 95 95 93 92 88 87 87 84 86 87 89 87 88 84 86 86 85 85 85
80 81 81 84 82 83 81 81 84 87 94 95 96 96 97 96 95 96 98 98 98 98 99 101 102 95 91 89 88 92 91 95 95 94 93 86 87 86 88 86 88 90 88 89 87 87 87 85 85
77 71 76 80 83 81 84 73 75 86 91 91 92 95 95 95 98 96 96 95 98 99 98 97 96 97 90 88 89 90 95 94 94 95 91 90 85 85 85 87 87 89 88 85 86 86 86 86 85
69 71 64 75 79 82 78 67 79 86 86 86 90 93 94 96 98 99 99 98 98 98 97 97 100 98 90 89 91 92 95 95 96 95 96 90 87 85 85 87 87 88 86 87 85 85 85 84 83
66 59 65 69 79 78 76 70 80 85 85 85 87 91 92 94 96 98 100 100 98 96 94 93 94 95 94 92 92 91 90 93 96 97 95 92 89 86 85 87 88 85 87 87 83 85 84 82 82
60 63 65 65 76 76 73 73 79 83 82 82 85 89 91 92 94 98 99 98 96 94 92 91 92 92 92 93 90 92 94 94 94 94 95 92 89 87 83 86 84 86 86 85 85 81 83 81 82
65 63 63 71 78 74 72 73 77 82 82 81 84 87 89 91 96 98 97 96 95 93 91 90 88 87 89 91 90 91 92 93 93 92 91 91 89 86 82 84 84 84 83 82 81 81 79 77 79
62 59 60 67 73 73 71 70 77 81 82 83 83 84 86 89 92 93 93 93 92 91 89 88 87 87 87 90 87 92 94 95 94 93 90 88 87 85 83 82 84 81 84 81 80 78 77 79 78
59 57 58 60 67 71 68 64 69 78 80 82 84 86 87 87 88 90 90 91 92 91 89 88 87 86 87 87 90 89 89 89 92 90 88 86 86 82 81 80 83 82 82 82 79 77 76 77 75
53 64 61 59 58 52 68 52 65 72 74 77 81 83 84 86 87 88 89 89 90 91 92 91 88 87 88 87 86 84 86 86 90 89 88 84 83 79 80 78 78 78 82 81 78 80 79 75 73
57 64 61 60 57 57 58 55 62 72 70 74 79 81 83 85 86 87 90 91 93 94 93 91 89 87 86 86 83 87 84 90 90 89 80 80 78 78 78 78 77 77 82 80 79 79 76 76 79
65 60 59 59 57 46 55 55 58 65 69 75 81 83 85 87 88 89 91 92 92 94 93 91 88 86 86 86 84 83 84 86 86 85 78 77 76 76 75 78 77 80 80 79 80 78 77 77 78
60 53 42 40 41 41 56 53 59 69 75 79 80 84 86 88 88 88 90 91 91 91 91 90 88 85 86 85 84 84 85 85 83 78 76 73 72 73 74 78 79 80 79 80 80 79 78 77 78
55 53 43 32 36 44 56 47 57 73 78 80 81 83 85 85 87 88 89 91 93 91 90 90 88 85 85 84 84 84 85 87 82 80 78 76 77 78 79 80 80 81 81 82 80 80 79 78 77
54 48 57 45 47 40 44 54 66 71 75 77 79 81 81 83 85 87 89 91 91 92 87 86 86 85 84 84 83 83 83 85 82 80 80 82 82 81 80 79 80 81 82 81 78 80 77 78 76
57 60 41 39 34 32 44 49 56 64 69 75 77 77 80 82 84 87 89 89 89 87 87 86 85 84 84 84 84 83 80 82 80 80 76 77 80 81 80 80 80 81 81 80 77 79 78 77 73
42 42 47 47 44 36 39 46 69 68 71 73 75 77 79 78 85 86 86 84 87 87 86 84 84 84 82 82 78 77 77 78 79 79 79 81 81 81 82 81 80 80 79 79 77 78 78 76 73
60 51 48 32 34 49 45 45 62 72 76 74 74 76 80 75 74 72 79 87 87 86 86 85 84 85 83 80 77 76 79 80 80 80 81 82 81 82 82 82 81 81 81 79 78 77 78 75 72

GFSSGP_sfc_temp_036.txt.gz
Temp
80 88 93 91 75 76 72 78 90 89 94 102 100 96 94 95 83 76 102 103 96 88 83 81 79 79 79 79 79 79 78 79 79 79 78 78 78 78 78 78 78 79 80 80 80 80 80 80 79
89 92 92 85 70 67 73 86 86 93 99 101 99 96 94 90 98 98 99 101 94 87 82 82 79 79 79 79 78 78 78 78 78 78 78 78 78 78 78 78 78 79 80 80 80 80 80 79 79
85 92 82 76 70 66 73 89 92 98 99 98 95 100 98 94 99 99 100 98 93 87 84 83 79 79 79 79 78 78 78 78 78 78 78 78 78 78 78 78 78 79 80 80 80 80 79 79 79
88 88 85 71 68 77 80 87 92 96 97 98 98 92 101 104 102 101 102 98 92 90 89 81 78 78 79 79 78 78 78 78 78 78 78 78 78 77 77 77 78 79 80 80 80 79 79 78 78
89 83 71 71 73 79 84 91 95 93 95 96 98 92 94 102 105 101 99 99 96 94 92 82 78 78 79 79 79 78 78 77 78 78 78 78 77 77 77 77 78 78 79 79 79 78 78 78 78
78 82 68 65 73 82 88 92 95 93 95 96 95 94 96 105 100 100 103 102 103 97 93 85 79 78 78 78 78 78 77 77 77 77 78 78 77 77 77 77 78 78 78 79 79 78 78 77 77
75 74 69 73 75 79 85 94 91 92 93 94 100 91 98 100 104 105 104 105 105 102 94 86 82 80 78 78 77 77 77 77 77 76 76 77 77 76 76 77 77 77 78 78 78 78 77 77 77
80 74 68 73 74 76 89 93 96 93 91 101 102 85 83 95 106 107 107 107 106 103 99 90 84 83 81 81 77 77 76 76 76 76 76 76 76 76 76 75 76 77 77 77 77 77 77 76 76
86 70 66 70 73 78 89 88 96 99 95 98 100 96 98 103 103 103 104 106 105 103 99 94 88 84 83 85 82 77 77 77 76 76 76 75 76 76 78 77 77 76 76 77 77 76 76 76 76
76 69 70 79 81 80 87 89 91 91 91 92 96 96 100 101 98 99 101 101 102 101 101 100 87 85 85 91 83 78 79 78 77 77 76 75 75 76 79 79 77 76 76 76 76 76 76 76 77
74 68 76 80 85 87 85 86 92 88 84 92 92 94 98 98 98 98 101 102 102 103 98 100 88 85 86 88 85 81 81 79 78 77 76 75 76 76 79 78 77 75 76 76 76 75 75 75 76
71 76 78 80 84 83 82 88 86 88 88 96 99 99 98 97 98 97 100 100 94 91 88 93 92 87 86 91 89 84 83 81 80 78 76 76 75 75 76 79 78 74 76 74 75 75 75 75 77
73 76 80 82 81 81 84 82 83 86 92 96 98 98 96 94 96 96 98 98 98 96 96 96 90 87 85 85 87 86 85 83 81 80 78 78 78 75 77 78 79 77 78 75 76 76 76 76 76
77 77 79 81 82 82 79 81 83 86 92 91 93 94 94 93 92 94 94 94 93 94 96 95 94 85 85 84 82 83 81 83 83 83 81 78 78 76 78 77 78 78 78 78 77 77 77 77 78
75 69 74 76 79 79 82 73 76 86 89 87 89 91 94 95 96 94 91 89 93 93 94 91 92 87 83 82 82 83 83 85 83 85 82 80 78 77 77 78 78 79 78 76 76 76 77 78 78
66 68 61 72 76 78 77 66 79 85 84 84 86 89 91 94 96 97 96 92 90 90 88 86 94 87 82 81 82 83 83 83 85 86 86 83 80 78 78 79 78 79 78 78 76 76 75 75 76
63 55 60 66 77 76 73 68 80 85 82 79 82 85 88 91 93 93 95 94 91 88 87 88 89 90 84 82 82 82 82 83 84 85 87 85 82 80 79 80 79 77 78 77 77 74 74 73 74
56 59 62 62 71 74 72 70 77 82 82 80 81 82 84 88 89 94 93 94 92 90 87 87 87 87 86 83 81 82 82 82 84 85 84 84 84 81 79 80 78 78 78 77 75 73 74 74 73
64 61 59 65 72 70 70 71 76 79 80 79 81 82 83 84 90 92 92 93 91 87 83 83 82 81 81 80 80 79 80 80 83 84 84 85 83 82 78 79 78 78 76 76 74 73 72 72 73
61 57 57 63 68 67 66 66 73 79 79 81 80 81 83 85 88 90 90 88 88 85 83 82 81 80 80 81 78 79 81 84 85 85 83 84 83 81 80 78 77 76 77 74 74 72 71 72 72
59 56 56 56 63 66 63 61 66 75 79 81 82 83 84 84 84 86 87 87 87 84 82 81 79 79 79 79 80 79 80 80 81 82 81 82 82 81 79 77 77 76 76 75 73 73 71 69 71
53 63 62 58 55 48 62 49 62 69 72 75 78 80 81 83 86 87 87 85 85 85 87 84 80 78 80 80 80 77 78 77 80 81 82 80 81 80 79 77 77 76 77 74 74 74 72 70 68
57 64 60 59 55 53 54 50 57 67 67 72 76 80 81 81 84 86 87 86 87 86 84 81 80 79 80 79 79 79 78 80 81 81 79 77 78 78 78 76 76 75 76 74 74 72 71 72 69
64 59 58 58 54 44 51 51 53 61 66 71 78 81 82 83 83 84 86 86 86 88 87 83 80 79 80 80 79 77 77 77 80 79 76 76 76 74 74 76 74 73 73 74 74 72 72 71 69
54 53 41 39 41 40 54 51 55 64 70 74 76 79 82 85 85 83 83 85 86 86 86 85 82 79 79 79 78 78 76 78 79 78 76 73 72 72 71 72 73 72 74 75 74 72 71 70 69
47 46 38 30 35 41 54 44 53 67 72 75 78 80 82 82 86 85 86 85 87 83 82 83 82 79 79 80 80 79 79 81 81 77 75 73 72 72 72 73 74 75 75 75 73 71 70 70 71
50 48 55 43 46 39 45 53 61 66 67 71 74 78 79 81 83 85 86 86 86 86 82 81 83 81 82 81 79 79 80 80 77 75 73 74 74 74 72 75 75 75 75 74 72 70 71 71 71
57 60 42 44 31 30 42 45 49 59 63 69 72 76 78 81 82 83 85 85 86 87 85 84 84 81 81 81 81 81 80 80 77 76 74 75 75 76 75 75 75 74 75 74 73 72 72 71 69
52 45 44 44 37 29 31 42 60 54 56 62 72 77 78 80 81 80 85 87 86 86 84 81 82 81 79 79 78 79 78 78 78 76 75 75 75 75 75 76 75 75 74 74 71 72 71 71 68
58 51 44 37 36 43 41 41 60 51 50 50 70 72 78 80 77 78 84 84 85 84 83 81 81 78 76 76 74 74 75 74 74 74 74 75 75 76 77 78 77 77 76 74 73 72 73 70 69

GFSSGP_sfc_temp_039.txt.gz
Temp
70 76 76 74 59 56 52 61 74 75 78 87 89 85 79 82 78 68 89 86 84 79 78 79 79 79 79 79 79 78 78 78 78 78 78 78 78 78 78 78 78 79 80 80 80 80 80 79 79
74 82 76 69 54 46 53 70 71 79 86 88 88 87 85 79 90 85 83 85 83 79 78 79 79 79 79 79 78 78 78 78 78 78 78 78 78 78 78 78 78 79 80 80 80 80 80 79 79
78 83 65 59 53 52 55 72 74 82 89 89 83 90 87 83 91 88 87 84 82 78 78 78 79 79 79 79 78 78 78 78 78 78 78 78 78 77 77 77 78 79 80 80 80 79 79 79 78
78 72 68 55 56 62 67 73 78 82 88 88 89 85 90 96 91 90 87 85 81 79 79 79 79 79 79 78 78 78 78 78 78 78 78 77 77 77 77 77 77 79 80 80 79 79 78 78 78
76 70 55 52 59 68 76 79 81 81 85 87 89 82 84 90 94 90 87 86 81 80 79 77 78 78 79 78 78 78 77 77 77 78 78 77 77 77 77 77 77 78 79 79 79 78 77 77 77
66 68 53 50 61 72 78 82 79 81 88 90 86 86 83 92 91 89 89 86 85 82 77 77 78 78 78 78 78 77 77 77 77 77 77 77 77 77 77 77 77 78 78 79 78 77 77 76 76
63 62 55 58 63 70 77 84 81 80 81 86 89 82 82 86 90 92 91 89 87 84 78 77 77 77 78 78 77 77 77 76 76 76 76 77 76 76 76 76 77 77 77 77 77 77 77 76 76
69 62 58 61 61 65 79 83 82 80 84 94 94 82 80 82 89 91 93 91 88 82 79 75 75 75 74 75 77 77 77 76 76 76 76 76 76 76 76 75 76 77 77 77 77 77 76 76 75
75 59 54 59 62 68 79 77 86 90 85 88 93 87 86 89 94 85 87 90 88 82 79 77 75 74 73 73 76 76 77 77 76 76 76 74 71 72 74 75 75 76 76 76 76 76 76 75 75
62 55 59 70 71 71 77 79 82 82 82 83 87 90 91 85 86 79 84 89 87 82 80 79 77 76 75 81 75 72 73 73 72 72 71 70 68 68 74 74 76 76 76 76 76 76 75 75 70
65 58 67 71 76 78 77 79 83 80 76 79 80 85 90 87 81 77 86 81 79 83 84 81 79 77 78 81 75 73 73 71 71 70 69 69 70 71 72 70 73 71 75 72 74 72 72 70 69
61 68 70 71 75 75 73 79 76 78 78 85 87 87 88 84 84 86 81 77 73 71 81 82 80 79 79 81 77 75 74 73 72 72 69 70 70 69 67 70 69 69 70 68 67 68 69 68 71
63 67 72 74 75 75 77 74 75 77 84 87 89 87 83 84 85 83 78 78 79 76 82 82 82 80 81 79 77 77 75 75 74 73 72 72 71 69 70 68 68 70 69 69 68 67 70 70 71
64 66 68 72 72 74 73 74 76 78 84 84 86 83 81 86 85 82 79 80 81 83 82 81 82 81 82 82 79 78 78 77 75 75 74 74 74 72 71 72 71 70 71 71 70 70 70 71 73
63 57 63 66 68 70 74 68 71 80 82 81 83 83 83 83 84 86 85 80 80 82 84 79 82 82 79 80 76 78 77 78 78 77 76 75 74 73 73 72 73 71 73 71 71 71 72 70 73
55 56 46 56 66 70 66 57 71 79 79 77 81 84 85 82 82 85 85 84 83 80 82 81 87 81 80 79 77 76 75 76 79 79 77 75 74 74 73 73 73 71 70 73 71 72 71 73 74
49 43 46 54 63 64 63 60 71 76 77 77 79 81 83 84 82 79 83 86 84 81 80 78 77 79 77 75 74 74 75 74 76 75 77 78 75 75 75 74 72 73 71 71 72 72 71 68 67
43 45 52 52 58 63 61 61 70 74 75 74 76 79 80 81 82 80 80 81 80 80 79 77 77 75 74 74 73 73 73 74 73 76 74 75 77 76 74 74 72 73 75 70 70 67 67 67 69
56 53 51 57 63 57 57 58 63 68 72 73 75 73 78 80 84 86 84 81 79 75 75 76 75 76 74 71 70 70 71 70 71 72 75 75 76 76 75 75 72 72 74 75 68 67 67 67 67
56 52 50 56 61 59 56 56 62 65 67 69 73 75 76 76 80 84 85 84 78 75 74 73 75 75 73 71 70 71 71 71 72 75 75 78 75 75 75 75 72 72 71 68 68 67 65 66 66
53 50 50 50 57 59 54 51 56 63 66 71 73 75 77 76 75 80 83 77 80 74 73 74 74 75 72 73 70 69 68 68 70 72 75 75 75 75 75 74 74 69 71 68 67 67 67 63 64
47 58 57 54 49 40 53 37 50 58 61 65 69 70 68 72 78 80 81 80 74 75 73 72 71 71 72 72 70 70 75 71 71 71 72 72 74 74 73 73 72 71 69 68 68 68 66 65 62
49 56 54 52 49 44 46 39 47 54 56 60 65 68 69 70 71 73 73 75 77 75 73 72 72 74 75 75 74 72 66 68 69 69 71 70 70 72 72 71 70 69 69 71 70 68 66 65 64
57 50 48 48 45 35 43 41 44 49 56 61 66 69 73 76 72 73 76 77 74 73 73 71 69 70 73 71 71 70 69 68 68 69 68 68 68 68 70 72 72 70 70 70 70 69 66 66 65
50 37 28 27 31 31 47 43 46 54 61 62 64 68 70 70 71 77 76 75 79 76 75 72 70 71 68 70 73 72 71 68 69 69 69 68 67 66 67 69 70 71 70 70 68 66 66 65 64
43 41 29 23 25 32 46 37 45 58 63 66 67 65 68 71 70 69 77 79 80 80 78 74 72 70 69 71 69 69 69 69 68 70 68 68 67 67 68 69 71 71 72 71 68 66 66 66 64
45 35 46 33 37 27 36 45 53 58 56 50 51 55 64 69 70 70 71 73 73 71 74 76 70 69 69 69 69 69 70 70 69 68 68 68 67 69 68 71 70 70 70 69 67 66 65 66 64
47 52 34 33 23 24 34 38 40 43 43 48 49 50 53 57 72 70 71 71 71 72 71 70 71 70 71 72 72 72 71 71 70 70 68 67 67 68 68 69 69 69 68 69 67 65 65 64 63
44 39 36 35 31 22 23 31 45 41 44 47 49 52 52 52 63 70 69 70 73 71 71 70 71 72 71 71 71 71 70 71 70 68 68 68 68 68 69 69 69 69 68 67 65 64 65 64 63
50 43 40 31 28 32 31 34 46 44 48 50 49 53 53 56 60 61 69 70 71 70 72 73 72 71 71 72 70 69 71 70 70 69 70 69 68 69 70 71 72 72 71 68 65 66 66 64 63

GFSSGP_sfc_temp_042.txt.gz
Temp
70 73 72 71 57 51 47 56 66 68 72 76 82 79 79 79 77 68 82 85 81 78 77 78 79 79 79 79 79 78 78 78 78 78 78 78 78 78 78 78 78 79 80 80 80 80 79 79 79
71 78 72 64 51 43 48 60 65 68 77 81 83 83 78 77 84 79 82 84 83 78 76 77 79 79 79 79 78 78 78 78 78 78 78 78 78 78 78 78 78 79 80 80 80 80 79 79 78
75 78 63 57 48 46 51 62 66 74 80 81 79 85 82 79 83 83 81 84 81 77 76 76 79 79 79 79 78 78 78 78 78 78 78 78 77 77 77 78 78 79 80 80 80 80 79 78 78
75 69 63 52 51 56 63 67 72 74 80 84 82 79 83 89 88 84 82 82 80 78 78 78 78 78 78 78 78 78 78 78 78 78 78 77 77 77 76 77 78 79 80 80 80 79 78 78 78
72 64 51 46 53 60 70 72 73 73 75 80 85 80 80 86 86 83 81 83 79 77 77 77 78 78 78 78 78 78 78 77 77 78 77 77 77 76 76 77 78 78 79 79 79 78 77 77 77
64 63 48 51 58 66 71 74 72 74 78 81 82 79 76 84 83 82 83 82 81 78 76 76 78 78 78 78 78 77 77 77 77 77 77 77 76 76 76 77 77 78 78 78 78 77 77 76 76
61 55 49 53 59 64 70 75 72 72 74 78 85 76 76 83 85 84 83 81 81 79 76 75 76 77 78 77 77 77 76 76 76 76 76 76 76 76 76 76 77 77 77 77 77 77 76 76 76
64 58 52 56 58 60 72 75 76 75 78 87 91 76 73 83 87 84 82 80 78 74 76 74 73 75 74 74 77 76 76 76 76 76 76 76 76 76 76 75 76 76 76 76 76 76 76 76 75
68 50 49 56 60 64 73 69 77 84 79 82 87 86 83 89 90 84 80 78 76 77 74 73 72 72 72 72 75 76 77 76 76 76 76 74 72 72 73 74 75 76 76 76 76 76 76 75 75
58 49 54 64 67 67 71 72 75 76 75 76 81 86 89 89 86 82 81 79 77 76 73 72 72 71 71 77 73 71 73 73 72 72 71 71 68 68 72 73 75 76 76 76 76 76 75 75 69
56 55 64 66 69 72 71 72 77 72 69 74 76 83 85 84 86 84 80 80 80 80 78 75 72 73 73 76 72 71 71 70 70 70 69 68 68 67 70 66 71 69 74 71 73 71 71 69 68
53 62 65 67 71 70 69 74 72 74 74 80 81 84 83 81 73 85 75 76 73 77 81 78 75 73 72 77 73 72 71 70 69 69 68 67 65 65 65 66 67 66 68 67 67 67 68 68 68
54 60 65 67 68 70 72 70 71 73 79 82 84 83 81 79 80 76 73 74 77 78 78 77 79 76 76 76 75 72 72 71 71 69 69 69 67 66 67 68 66 66 65 67 66 65 67 67 67
57 58 59 63 63 65 67 70 73 75 81 80 82 79 79 79 77 75 72 73 75 78 79 81 77 74 76 77 76 75 73 73 70 71 70 70 69 68 68 68 67 66 67 67 67 66 66 67 68
58 52 56 59 60 62 67 63 67 76 78 78 79 81 81 80 79 78 78 75 76 78 78 77 80 82 82 79 75 75 75 75 73 73 71 71 71 69 69 69 68 67 67 67 67 65 67 66 68
51 49 41 52 60 64 63 54 67 73 72 73 76 79 81 80 81 79 82 79 78 80 79 80 85 81 79 81 78 77 76 76 75 74 72 71 71 70 69 69 69 68 68 68 68 66 66 67 67
43 37 41 48 58 59 58 55 66 70 70 71 74 76 78 80 78 77 78 80 81 79 82 83 82 81 79 80 80 79 77 76 76 74 73 72 72 71 70 70 69 67 68 69 68 67 67 66 66
39 40 45 45 54 55 54 53 60 65 65 66 69 73 76 78 79 79 78 79 76 79 78 77 82 81 81 79 76 75 71 75 72 74 75 73 72 72 70 71 69 69 69 68 67 68 66 64 68
50 47 46 51 58 52 52 53 57 60 61 61 63 67 71 74 81 78 78 77 76 75 71 72 70 72 75 71 71 72 75 74 69 71 74 73 74 73 70 71 70 70 71 69 68 65 64 64 65
50 46 45 51 57 55 51 52 58 59 59 61 62 64 67 70 75 81 80 76 73 75 74 71 72 76 75 79 78 73 75 67 75 74 71 73 73 74 72 71 69 71 71 67 66 67 62 65 64
47 44 45 46 54 54 51 48 53 59 59 62 64 64 65 66 69 74 80 79 73 71 72 71 74 75 76 76 70 68 67 66 67 68 68 71 71 73 73 71 72 71 72 70 68 67 66 62 62
41 52 50 49 43 35 50 35 48 53 55 57 61 61 62 65 69 71 75 75 72 72 71 72 73 74 74 69 71 71 75 70 68 69 67 70 70 71 72 71 71 71 71 67 67 67 68 67 63
45 53 48 47 42 38 43 35 45 50 51 56 60 61 62 64 64 66 72 74 73 72 69 70 72 70 71 73 75 72 67 68 64 65 67 67 67 71 72 71 71 68 67 66 66 65 67 65 64
54 47 44 43 38 31 41 38 41 44 50 56 60 61 65 65 68 67 69 71 70 70 70 68 68 71 71 69 68 69 67 65 64 64 65 65 66 67 70 70 70 68 68 67 66 67 67 65 65
45 35 25 24 24 29 42 38 43 49 55 52 49 52 54 58 61 64 66 67 72 69 68 69 68 72 71 70 69 69 69 68 67 65 65 65 65 65 67 69 68 68 70 69 67 67 66 65 64
39 40 26 20 23 27 41 31 41 52 52 52 54 54 56 56 57 57 60 69 71 74 72 70 70 70 68 69 69 70 68 70 67 66 66 67 68 67 67 67 67 68 68 68 68 66 66 65 63
40 33 44 33 34 28 31 38 47 51 49 51 52 55 54 54 56 56 61 64 69 73 73 71 69 68 68 69 70 68 67 65 67 67 66 66 66 68 66 67 67 68 70 69 67 65 65 65 62
45 47 31 29 23 23 30 34 35 42 44 47 49 51 53 55 56 57 58 63 64 70 72 70 70 70 69 67 67 67 66 66 66 67 67 67 67 68 66 66 67 69 69 68 67 65 66 65 61
38 35 35 34 31 24 22 29 41 42 43 43 47 52 51 53 54 55 57 61 63 67 68 65 63 63 64 65 66 67 67 67 67 67 67 67 66 66 67 66 67 68 66 65 65 66 65 63 61
46 40 36 24 25 29 27 31 45 43 45 46 49 51 52 55 53 54 56 60 60 63 68 64 66 67 67 67 67 68 68 67 66 66 67 68 66 66 67 68 68 69 68 67 66 63 64 62 61

GFSSGP_sfc_temp_045.txt.gz
Temp
68 71 69 69 56 49 43 52 59 63 68 71 74 72 73 80 74 66 77 82 78 77 76 78 79 79 79 79 78 78 78 78 78 78 78 78 78 78 78 78 78 79 79 80 79 79 79 79 79
70 75 69 62 49 42 46 55 57 64 71 75 76 76 75 74 82 76 78 80 80 78 76 76 79 79 79 79 78 78 78 78 78 78 78 78 78 78 78 78 78 79 79 80 80 79 79 79 78
73 74 62 55 47 46 49 57 61 69 74 73 73 79 78 78 80 79 82 80 81 77 77 77 78 79 79 79 78 78 78 78 78 78 78 78 77 77 77 78 78 79 80 80 80 79 79 78 78
73 67 61 50 50 56 59 62 66 69 75 75 75 75 83 86 81 83 82 82 79 77 77 78 78 78 79 79 78 78 78 78 78 78 78 77 77 77 77 77 78 79 80 80 80 79 78 78 78
70 61 51 45 52 59 65 68 67 68 69 73 76 74 77 81 81 80 81 82 79 76 77 78 78 78 78 79 78 78 78 77 77 78 78 77 77 77 77 77 78 78 79 79 79 78 77 77 77
62 61 46 49 58 64 66 70 67 69 71 75 74 77 74 79 79 78 80 81 80 76 76 77 78 78 78 78 78 77 77 77 77 77 77 77 77 76 77 77 77 78 78 78 78 77 77 76 76
60 53 47 49 58 62 67 72 69 67 69 73 79 72 74 78 78 79 78 77 77 77 76 76 76 77 78 78 77 77 77 76 76 76 76 76 76 76 76 76 77 77 77 77 77 77 76 76 76
64 57 49 53 58 59 69 71 73 71 71 80 81 71 71 76 79 78 75 72 70 71 74 73 73 75 74 75 77 77 76 76 76 76 76 76 76 76 76 75 76 76 76 76 76 76 76 75 75
67 51 48 55 59 62 69 67 74 78 73 76 78 78 83 81 81 77 74 71 70 73 69 69 71 70 70 71 75 76 77 76 76 76 76 75 73 72 73 74 75 76 76 76 76 76 75 75 75
59 48 53 62 66 64 68 69 71 70 70 72 75 81 85 85 81 78 75 75 72 71 69 71 70 69 69 75 71 70 73 73 73 73 73 72 69 69 71 73 75 76 76 76 76 75 75 75 68
56 52 60 64 66 67 67 68 73 69 67 68 71 75 81 82 78 78 80 77 77 76 74 72 69 69 69 70 68 68 68 69 70 69 70 69 67 68 69 66 69 67 74 68 72 70 69 68 67
51 58 60 63 67 66 65 70 69 70 71 76 76 78 78 78 79 77 75 74 73 72 75 73 71 69 68 69 68 68 68 67 67 68 67 67 66 65 66 65 65 65 65 65 66 66 67 67 67
49 56 60 63 63 63 68 66 67 69 76 78 78 78 76 77 76 74 76 74 75 75 75 74 73 72 71 70 70 69 69 68 67 66 67 67 66 65 64 64 63 64 63 64 64 64 65 66 66
53 53 56 57 60 61 62 65 67 71 76 76 76 75 76 76 77 71 73 73 74 77 76 76 74 74 75 76 75 73 72 72 67 67 69 67 67 64 64 63 63 62 64 64 65 64 64 65 65
55 50 52 56 59 60 65 60 62 72 74 73 74 75 75 76 78 73 74 75 77 79 80 76 76 76 75 76 77 77 75 73 72 71 69 69 68 65 66 64 64 65 64 63 64 63 63 62 64
48 46 39 50 55 62 60 53 65 69 69 70 74 75 76 75 75 76 75 73 73 73 74 77 80 77 77 73 74 76 75 74 74 73 70 69 69 67 65 66 66 66 64 65 64 62 61 62 62
41 35 37 45 53 54 54 50 61 65 65 64 66 68 73 73 75 73 75 75 75 74 73 73 74 78 78 82 79 77 74 75 76 74 71 70 70 69 68 67 67 64 65 65 65 62 64 61 62
37 37 42 43 52 52 51 52 56 61 62 61 62 65 67 70 71 75 73 76 74 73 74 72 73 74 74 74 74 74 75 74 76 73 73 71 70 70 68 67 65 66 66 64 64 64 62 61 64
46 43 41 47 54 49 49 51 55 58 58 58 60 61 63 66 71 73 75 74 75 74 71 71 71 72 73 71 71 72 71 74 73 73 72 70 70 70 68 68 66 66 66 66 65 64 62 61 62
45 41 40 46 53 51 49 49 55 55 56 57 59 59 61 63 68 72 72 73 71 73 72 74 74 76 73 78 76 77 77 78 76 73 69 71 71 71 69 68 67 66 67 63 65 64 60 61 62
42 40 41 41 48 50 47 46 48 54 56 59 59 60 60 61 63 67 71 71 73 71 68 71 73 76 75 78 77 65 66 66 67 68 67 69 71 71 70 69 68 66 68 66 65 64 63 60 61
38 49 48 45 40 32 46 32 45 50 51 54 56 56 58 60 62 64 66 66 67 69 71 72 70 72 74 76 76 76 78 75 67 71 74 69 69 70 70 70 68 67 69 67 67 65 64 63 62
44 49 45 44 39 34 39 31 43 47 48 51 55 56 55 56 56 58 62 65 67 69 67 69 69 65 69 72 76 76 72 70 66 63 64 65 65 67 70 69 68 67 68 66 66 63 64 65 64
51 44 41 38 34 24 36 36 39 45 48 50 51 52 55 55 56 57 59 61 62 66 64 64 64 66 67 68 71 73 76 68 64 62 63 63 63 65 67 68 67 67 67 66 66 67 66 65 65
43 33 24 23 23 24 38 34 40 47 51 49 50 51 53 53 53 54 55 56 59 62 66 63 63 64 65 68 70 70 70 70 69 67 66 62 63 64 65 67 66 67 67 67 66 66 66 65 64
38 35 25 19 22 27 39 28 36 48 50 51 52 52 53 53 52 54 55 55 57 60 62 65 63 64 65 67 69 69 70 70 69 64 63 64 64 64 66 67 67 67 67 67 66 66 65 65 65
37 32 39 30 29 23 30 36 44 48 49 50 49 52 51 52 53 54 57 55 55 58 60 63 63 66 68 68 69 64 63 64 64 62 64 64 65 65 66 66 67 67 67 67 65 65 65 65 63
43 45 33 30 22 21 28 31 34 42 45 48 48 48 50 53 54 55 57 55 55 57 59 63 61 64 66 66 67 67 65 64 63 64 64 65 64 66 66 66 66 66 67 67 67 66 65 62 62
37 33 33 31 30 22 23 29 40 42 44 44 47 49 49 51 53 55 56 57 55 57 59 61 64 60 61 65 64 63 62 63 64 65 65 65 66 66 66 67 66 66 66 67 66 65 64 64 62
45 39 37 26 25 26 28 31 48 45 44 44 46 50 52 53 53 54 55 55 55 57 59 59 64 59 63 63 63 64 64 65 65 65 65 65 65 66 67 68 68 67 68 66 65 63 64 62 60

GFSSGP_sfc_temp_048.txt.gz
Temp
70 71 68 68 56 49 41 50 55 59 64 68 71 70 71 72 70 63 76 81 78 76 77 78 79 79 79 79 79 78 78 78 78 78 78 78 78 78 78 78 78 79 79 79 80 80 79 79 79
70 74 69 60 49 41 45 52 55 62 66 71 72 70 69 72 79 80 73 78 80 77 76 77 79 79 79 79 78 78 78 78 78 78 78 78 78 78 78 78 78 79 80 80 80 80 79 79 79
73 73 64 55 44 44 48 55 57 64 70 68 68 75 74 74 79 77 77 78 79 77 77 77 78 79 79 79 78 78 78 78 78 78 78 78 78 78 77 78 78 79 80 80 80 80 79 78 78
72 67 60 50 50 54 55 58 60 65 69 70 72 71 78 82 80 80 79 79 78 76 76 77 78 78 79 79 78 78 78 78 78 78 78 78 78 77 77 77 78 79 80 80 80 79 78 78 78
70 62 52 46 51 58 63 65 62 64 65 70 71 70 71 76 78 78 78 79 78 75 75 77 78 78 79 79 78 78 78 78 77 78 78 78 77 77 77 77 78 79 79 79 79 78 77 77 77
60 59 46 47 55 62 66 68 64 64 66 71 70 71 71 77 76 75 78 76 77 74 74 76 78 78 78 78 78 78 77 77 77 77 77 77 77 77 77 77 78 78 78 79 78 77 77 76 76
56 52 48 52 56 61 66 70 66 64 65 68 73 67 72 77 75 75 74 73 73 73 72 74 76 77 78 78 77 77 77 77 77 77 77 77 77 77 77 77 77 77 77 77 77 77 76 76 76
60 55 49 53 58 58 68 69 70 67 67 76 77 68 67 76 75 74 71 69 68 70 71 71 72 74 75 75 77 77 77 76 76 76 76 76 76 76 76 75 76 77 77 77 76 76 76 75 75
66 49 44 54 57 60 69 66 71 76 71 72 74 74 77 77 77 73 70 69 69 71 68 69 70 71 72 73 75 77 77 77 76 76 76 75 74 74 75 75 75 76 76 76 76 76 75 75 75
58 44 51 60 63 62 67 67 69 69 68 67 71 77 80 78 77 75 75 71 68 69 68 68 69 71 71 75 72 74 73 75 75 75 74 75 74 71 72 74 75 76 76 76 76 75 75 76 72
54 46 57 62 65 66 64 66 70 66 64 65 67 73 79 75 77 78 79 77 76 75 73 71 71 70 71 73 69 70 70 73 73 71 72 74 71 70 71 69 72 70 75 71 74 73 72 71 70
46 55 58 61 65 64 63 67 66 68 68 72 73 74 73 74 72 75 77 76 73 74 76 72 69 68 68 68 68 68 69 68 68 69 68 69 67 67 67 67 67 67 68 68 68 68 69 69 69
48 53 58 60 61 61 65 63 65 66 72 75 75 74 72 72 73 71 73 74 74 71 73 71 70 70 70 69 69 69 69 69 68 68 67 67 67 66 66 66 66 66 66 67 66 66 67 68 68
50 52 55 58 60 60 61 63 65 69 73 74 74 71 72 71 72 70 71 71 72 75 74 74 72 71 71 71 69 70 71 71 69 69 69 68 68 67 66 66 66 64 65 66 66 66 66 67 68
51 48 52 55 57 58 61 56 59 69 73 71 71 72 72 73 74 72 72 71 73 75 77 74 72 71 70 71 71 73 73 72 71 71 70 69 68 66 68 66 65 66 64 65 65 65 65 65 66
44 43 37 49 54 59 58 49 61 64 66 66 68 69 69 69 70 72 72 71 72 72 74 76 78 74 73 73 76 76 74 73 73 72 71 70 69 68 66 66 66 65 64 65 66 64 64 65 65
40 33 35 44 51 53 52 47 59 62 63 63 64 65 67 67 68 69 71 71 71 71 71 72 73 74 73 74 74 72 71 74 75 73 72 70 70 69 67 66 66 64 64 65 66 64 66 64 64
34 35 39 39 48 49 47 47 55 59 59 59 62 64 64 65 67 68 69 71 70 69 69 69 71 72 71 71 71 69 70 72 72 73 73 70 69 69 67 67 66 65 64 64 65 64 64 64 65
42 40 39 44 50 46 45 47 51 55 56 56 58 61 63 63 66 69 69 69 69 67 67 67 67 71 73 69 69 69 69 69 70 71 72 70 70 69 67 67 66 65 65 65 65 65 63 62 64
43 39 38 44 50 47 45 46 52 53 54 56 57 58 60 62 65 67 68 68 66 65 65 65 65 68 71 77 71 71 71 71 72 71 70 70 70 69 69 68 66 65 66 64 64 64 62 63 64
40 38 38 39 45 46 43 44 46 51 53 57 57 57 58 59 60 62 66 64 63 63 64 66 65 66 67 71 69 66 66 66 68 68 69 70 71 70 69 68 68 66 67 65 65 65 64 62 62
36 46 45 43 38 29 44 28 41 46 50 51 54 54 56 56 56 58 60 62 61 62 64 63 64 65 68 66 68 67 73 72 75 77 72 69 71 71 70 69 68 67 67 66 66 66 65 64 62
42 47 43 42 36 31 34 28 34 46 45 49 55 58 54 54 54 55 57 59 60 61 60 60 60 62 66 66 68 71 71 75 75 67 69 68 67 70 71 70 68 67 67 68 66 65 64 65 64
49 42 39 35 31 23 31 31 32 38 43 47 51 52 54 54 55 55 56 56 56 58 58 58 59 59 63 65 67 69 71 72 66 64 66 66 64 65 67 69 69 68 67 67 66 66 65 65 66
41 32 24 23 23 24 35 31 36 44 51 51 52 52 53 52 52 53 53 55 56 56 57 58 59 59 60 62 65 69 71 72 68 69 69 63 62 64 66 67 67 67 68 67 67 66 66 66 65
37 34 24 19 21 27 37 27 34 46 50 51 51 51 51 51 51 51 53 53 57 57 56 57 57 58 59 60 62 66 69 72 72 71 67 66 65 65 66 68 68 68 68 68 68 67 67 66 66
35 31 37 28 26 18 29 34 42 48 48 48 49 50 49 50 50 51 53 54 55 55 55 55 56 57 59 60 61 62 65 67 66 64 63 63 64 66 67 68 67 68 68 68 68 67 66 67 65
41 42 28 25 20 20 27 30 33 40 43 46 47 48 49 49 52 55 52 53 56 55 57 55 55 57 60 60 62 65 64 65 66 62 63 64 65 67 67 67 68 68 69 68 67 66 67 66 64
35 31 31 30 28 21 23 29 40 42 44 44 47 50 46 48 53 55 56 56 56 56 55 56 56 57 59 61 60 62 62 63 63 64 64 65 65 66 67 68 68 68 68 68 67 67 66 65 65
41 35 33 29 25 26 28 31 47 44 45 44 45 48 49 52 54 55 55 56 55 54 56 56 58 58 61 62 59 60 61 62 63 64 65 66 66 67 68 68 69 69 68 67 67 66 66 66 64

GFSSGP_sfc_temp_051.txt.gz
Temp
77 80 80 82 72 69 63 66 70 72 75 82 83 82 83 86 82 80 90 90 92 88 86 83 79 79 80 80 79 79 79 79 79 79 79 79 79 79 78 78 78 79 80 80 80 80 80 80 79
79 80 81 75 67 62 65 68 69 76 80 83 84 82 81 82 91 95 93 89 90 87 85 85 79 79 80 80 79 79 79 79 79 79 78 79 78 78 78 78 79 79 80 80 80 80 80 79 79
79 79 76 71 63 58 65 69 72 77 81 78 80 85 85 84 90 93 91 89 89 86 86 85 79 79 79 79 79 79 79 78 78 79 79 78 78 78 78 78 78 79 80 80 80 80 79 79 78
80 78 73 64 62 60 66 72 74 76 82 81 82 79 88 86 86 88 90 90 87 87 88 82 79 79 79 79 79 79 79 78 78 78 78 78 78 78 78 78 78 79 80 80 80 79 79 78 78
80 74 65 61 60 63 69 75 77 77 77 81 81 78 81 88 91 87 88 89 88 88 88 85 79 79 79 79 79 78 78 78 78 78 78 78 78 77 77 78 78 79 79 80 79 78 78 78 78
72 72 61 59 61 66 71 77 76 76 78 81 81 79 82 91 87 85 88 89 92 88 87 87 79 79 79 79 79 78 78 78 78 78 78 78 77 77 77 78 78 78 79 79 79 78 77 77 77
70 66 63 63 61 65 71 76 74 75 77 79 84 76 84 87 83 84 86 89 90 90 88 87 86 82 78 78 78 78 77 77 77 77 77 77 77 77 77 77 78 78 78 78 78 77 77 76 76
74 69 63 64 62 63 72 74 77 76 76 84 85 76 77 85 82 84 85 86 88 88 90 88 86 86 85 85 78 77 77 77 76 77 77 77 77 77 77 76 76 77 77 77 77 76 76 76 76
73 63 61 63 63 67 73 70 77 81 77 80 83 83 85 89 83 83 83 84 84 84 85 87 86 85 86 88 84 77 78 77 76 77 76 76 85 83 82 80 77 77 77 77 76 76 76 76 76
68 63 63 69 72 71 75 72 73 73 74 75 80 85 88 90 86 83 83 83 83 82 83 86 83 84 84 85 84 83 82 84 83 83 82 83 83 83 83 81 76 76 76 76 76 76 76 77 85
65 62 65 68 72 72 72 70 74 70 69 76 74 80 85 86 85 85 87 87 84 85 82 83 82 82 83 84 83 83 83 83 82 80 79 80 80 79 82 83 82 81 78 83 81 81 83 83 84
60 63 65 69 69 69 69 69 69 71 72 77 79 81 84 84 85 82 84 88 85 84 83 82 81 80 80 84 83 83 81 81 81 78 76 78 76 77 80 82 83 80 83 82 81 83 82 81 81
61 62 65 67 68 69 70 68 69 69 75 78 80 81 82 83 83 83 81 80 85 83 83 82 80 78 78 77 80 80 81 81 81 80 79 79 78 78 80 81 82 82 83 82 80 81 80 80 80
62 62 64 66 68 68 66 69 69 72 76 75 78 79 82 83 84 84 81 79 78 84 84 82 77 78 78 78 79 78 78 81 79 81 81 78 79 78 81 79 80 81 81 82 80 81 79 80 81
61 57 61 63 64 64 67 62 63 71 73 72 75 78 79 80 82 82 82 80 79 82 84 81 79 78 77 74 78 80 79 81 81 81 79 77 76 75 78 80 80 81 79 76 76 77 78 78 79
56 56 54 61 62 64 64 57 66 67 69 69 70 75 77 79 79 81 81 81 81 79 81 81 83 79 75 76 77 78 76 77 80 81 80 77 74 73 75 77 78 79 78 78 77 78 78 78 79
54 50 50 54 62 61 60 55 65 67 65 65 67 71 74 76 79 79 78 81 80 79 80 80 81 81 75 74 79 77 74 74 80 79 80 75 74 75 75 76 78 76 77 77 78 78 77 78 77
47 48 49 50 58 59 58 57 62 65 64 63 65 67 70 73 76 77 77 78 79 79 78 79 80 80 76 79 76 80 79 75 76 77 79 76 75 73 71 75 74 75 75 78 77 75 77 77 77
52 50 49 53 58 56 56 56 61 65 64 64 65 65 67 69 75 77 77 77 78 78 76 77 76 76 78 78 78 79 76 79 79 79 76 75 72 73 73 74 74 74 76 76 75 76 74 76 75
52 49 49 53 57 55 55 54 60 63 63 66 66 66 67 67 70 72 74 75 74 73 73 74 76 75 75 78 78 82 79 83 83 81 78 77 75 76 78 78 78 76 78 74 74 74 75 76 75
52 49 48 48 52 56 52 53 54 62 63 65 67 68 68 67 68 69 69 72 72 71 71 72 73 73 74 76 80 80 81 80 81 82 81 79 78 79 79 78 79 76 77 78 74 74 74 76 73
48 55 52 50 48 43 52 42 52 57 59 62 65 66 68 69 70 68 70 70 70 71 71 70 71 71 75 75 77 77 81 81 86 86 86 82 78 80 79 79 78 76 79 77 76 75 76 75 73
51 54 52 50 48 45 48 42 51 55 55 59 63 66 68 70 69 68 69 69 70 71 70 69 69 70 73 73 74 78 77 83 85 85 82 80 79 80 81 80 78 77 78 76 76 73 73 76 76
54 52 51 46 45 38 43 43 48 52 55 57 64 66 67 68 68 69 70 69 69 71 71 70 68 68 70 71 73 72 75 78 81 80 80 82 82 80 80 80 78 77 76 76 76 75 74 74 75
52 47 40 38 38 38 45 42 48 54 59 61 62 65 67 66 66 67 69 69 69 70 70 70 70 69 71 71 71 72 72 74 75 77 79 80 80 78 78 77 76 78 77 78 77 74 74 74 74
49 47 39 28 33 39 47 38 51 57 60 62 62 65 65 66 66 66 67 68 69 70 69 70 70 68 69 70 70 72 73 76 76 77 78 78 80 81 80 76 78 78 78 77 76 76 76 76 75
45 42 49 40 42 35 43 48 54 59 59 60 61 63 64 66 66 66 67 68 69 69 69 69 69 69 70 69 70 71 73 74 78 77 77 80 79 81 78 79 78 78 78 77 75 77 74 74 75
51 53 39 40 29 28 40 42 44 52 55 59 61 63 64 64 66 67 67 68 69 68 69 68 67 67 69 69 71 73 73 74 76 77 76 77 77 78 78 78 78 77 77 77 75 75 76 75 76
46 43 43 41 38 31 31 41 54 54 56 56 60 62 63 63 65 66 67 69 70 70 69 68 67 68 69 70 71 72 73 75 75 75 76 77 77 78 78 79 78 78 77 76 75 75 76 75 72
51 46 45 35 33 38 37 38 58 57 58 56 58 60 63 64 64 66 66 68 69 68 69 69 69 69 71 72 72 73 73 73 73 73 75 77 76 78 79 79 79 79 78 77 76 76 76 73 72

GFSSGP_sfc_temp_054.txt.gz
Temp
84 93 96 91 79 80 78 78 86 82 84 91 92 90 90 96 91 87 102 104 106 102 94 88 80 80 80 80 80 80 79 79 80 80 79 79 79 79 79 79 79 80 80 80 80 80 80 80 80
90 89 93 89 73 71 77 82 80 86 88 91 92 92 91 90 99 102 104 100 104 100 93 93 79 80 80 80 79 79 79 79 79 79 79 79 79 79 79 79 79 80 80 80 80 80 80 80 80
88 89 85 81 75 67 71 80 83 86 89 88 88 93 92 90 97 98 100 99 102 97 94 93 79 80 80 80 79 79 79 79 79 79 79 79 79 78 78 79 79 80 80 81 81 80 80 80 79
90 89 86 73 70 72 73 81 83 84 89 90 89 86 94 96 94 98 102 100 100 98 97 85 79 79 80 80 79 79 79 79 79 79 79 79 79 78 78 78 79 80 80 81 80 80 79 79 79
91 88 74 70 70 71 77 82 86 84 86 89 89 84 88 95 99 97 97 100 100 99 98 90 79 79 79 80 79 79 79 78 78 79 79 79 78 78 78 78 79 79 80 80 80 79 78 78 78
82 84 71 67 70 73 79 83 85 84 86 89 87 86 89 98 96 95 98 100 103 101 99 91 81 79 79 79 79 78 78 78 78 78 78 78 78 78 78 78 79 79 79 79 79 78 78 77 77
79 77 71 73 73 73 77 85 81 83 84 86 90 83 90 95 97 96 95 99 102 103 100 94 90 84 79 78 78 78 77 77 77 77 77 77 77 77 77 78 78 78 78 78 78 78 77 77 77
84 81 72 75 72 72 82 81 87 84 83 91 90 83 84 92 97 98 96 98 102 103 101 97 92 91 89 89 78 78 77 77 77 77 77 77 77 77 77 76 77 78 78 78 77 77 77 77 77
86 72 70 73 74 77 84 77 84 87 83 88 89 89 93 96 100 98 94 93 98 100 100 99 94 93 93 95 88 78 78 77 77 78 77 77 89 87 85 82 78 77 77 77 77 77 77 76 77
77 72 73 83 83 80 84 81 80 77 80 82 86 93 94 96 96 95 95 93 93 95 98 98 94 92 94 98 93 88 89 88 87 87 86 88 90 91 91 86 78 77 77 77 77 76 76 77 91
76 71 80 80 82 84 82 82 85 75 74 82 83 85 90 92 93 94 95 96 94 94 96 96 86 89 94 96 95 92 92 91 89 89 88 88 90 90 90 91 88 86 80 88 84 84 86 88 90
70 76 78 79 81 77 77 83 78 79 77 82 85 87 88 89 92 93 89 92 95 94 94 93 93 89 89 96 94 94 94 92 92 91 88 88 88 87 88 91 92 88 91 88 90 91 88 88 88
70 75 74 78 78 78 79 76 75 79 83 82 84 86 87 89 90 93 92 88 90 92 93 92 91 88 87 88 93 93 93 92 93 92 89 89 89 86 89 90 91 92 93 92 89 89 89 87 87
73 73 73 76 76 78 74 75 78 80 83 81 81 83 87 89 90 91 92 89 82 89 90 92 88 81 85 86 88 88 89 89 91 92 90 84 89 88 90 88 89 91 91 92 90 88 88 87 88
70 65 71 72 74 73 75 69 72 81 80 79 79 84 86 86 89 89 89 88 89 82 85 88 89 87 83 82 83 86 87 90 91 90 88 88 86 86 85 88 87 90 90 86 84 84 87 86 88
66 65 63 72 71 72 70 65 72 77 75 75 75 77 82 85 86 88 88 87 88 87 77 85 89 88 83 84 84 87 90 89 87 89 91 86 85 85 83 86 82 90 88 88 84 86 86 86 88
64 61 60 64 70 68 68 66 74 75 74 72 73 75 78 81 84 86 87 87 86 85 83 77 83 83 83 84 85 86 86 88 92 90 92 89 85 85 82 80 83 83 85 85 86 86 85 85 85
59 58 59 60 67 67 66 66 72 75 74 72 73 76 75 77 80 84 84 85 85 84 82 80 79 79 78 83 82 82 86 87 86 84 88 87 82 83 77 81 77 80 79 81 85 83 86 85 86
61 58 58 62 67 62 63 65 69 73 74 73 74 74 75 75 80 82 84 84 83 82 80 79 77 78 80 81 83 83 82 84 88 87 85 84 83 82 78 79 78 78 80 78 81 83 80 84 84
59 57 58 62 64 62 62 62 68 71 72 74 75 75 75 76 77 80 81 80 80 80 79 79 79 79 78 82 81 86 85 89 89 91 87 84 80 80 78 82 84 80 84 80 82 80 84 84 86
59 57 57 55 61 64 61 60 65 70 71 74 75 76 77 75 74 76 77 79 79 77 77 77 79 79 79 80 85 84 86 87 88 87 86 80 81 80 80 83 85 86 85 88 81 81 79 85 84
55 62 59 56 55 52 61 50 62 67 67 70 71 73 75 76 76 75 77 77 77 78 78 77 77 76 81 80 81 79 81 85 87 87 87 87 84 84 85 85 86 86 88 86 84 84 83 81 82
57 61 59 58 55 55 56 51 62 64 63 67 69 72 74 76 76 76 75 76 77 78 78 78 77 76 79 79 78 82 81 89 91 91 88 89 87 84 87 86 86 85 86 85 85 82 80 84 82
63 59 60 59 56 47 56 53 59 63 63 66 70 72 74 76 76 76 75 76 78 80 79 79 77 77 78 79 79 77 77 82 88 88 90 90 92 89 85 87 85 85 84 84 82 82 79 80 83
60 55 47 46 46 48 54 50 57 63 65 68 69 71 74 74 74 75 76 77 76 77 79 79 79 76 78 78 77 78 77 77 79 83 88 88 91 91 87 84 85 85 83 83 82 80 81 80 82
58 55 47 36 43 50 56 48 58 65 67 70 71 72 73 73 75 75 76 77 79 78 77 77 77 76 78 78 78 78 77 81 82 82 87 89 89 90 87 85 85 83 83 82 83 84 84 82 81
55 49 58 47 50 44 51 57 65 68 65 68 68 69 70 73 74 75 76 77 77 77 77 78 77 77 77 78 78 76 77 78 80 80 78 81 81 84 84 85 83 84 84 84 82 86 82 82 80
58 62 46 48 36 37 49 51 55 59 62 64 66 68 71 72 73 75 75 76 76 76 78 78 77 76 76 76 77 78 78 79 79 80 80 83 86 86 88 84 83 84 84 84 82 84 82 79 81
53 51 52 51 45 37 39 51 62 60 63 62 65 67 69 70 73 74 76 77 77 77 78 77 77 77 77 78 78 78 78 80 81 80 81 82 83 84 84 85 85 85 84 84 82 83 83 80 80
58 54 52 40 40 47 43 46 65 65 66 65 65 68 70 70 71 73 74 74 75 77 78 77 76 77 78 79 78 78 79 79 80 81 82 83 83 84 85 86 87 87 86 84 82 82 84 81 80

GFSSGP_sfc_temp_060.txt.gz
Temp
81 93 97 92 76 77 72 78 90 90 91 98 99 96 93 94 87 70 94 105 96 90 85 83 80 80 80 80 80 79 79 79 79 79 79 79 79 79 79 79 79 80 80 80 81 80 80 80 80
87 90 92 84 71 68 73 86 85 91 92 96 96 96 94 87 97 96 97 103 96 91 84 85 79 80 80 80 79 79 79 79 79 79 79 79 79 79 79 79 79 80 80 81 80 81 80 80 80
86 93 81 77 72 68 74 87 87 91 94 93 92 98 96 89 95 96 101 104 95 90 87 84 79 79 80 80 79 79 79 79 79 79 79 79 79 78 78 79 79 80 80 80 81 80 80 80 79
91 90 85 71 68 77 80 86 88 88 93 94 94 89 99 100 96 99 102 104 99 93 92 80 79 79 79 80 79 79 79 79 79 79 79 78 78 78 78 78 79 80 80 81 80 80 79 79 79
92 84 71 70 71 78 83 87 88 85 89 91 93 88 91 97 101 101 102 104 103 97 94 83 78 79 79 79 79 79 79 78 79 79 79 78 78 78 78 78 79 80 80 80 80 79 78 78 78
80 83 67 65 72 81 86 87 86 86 88 91 90 91 92 100 98 100 103 102 106 100 94 86 79 78 78 79 79 78 78 78 78 78 78 78 78 78 78 78 78 79 79 80 79 78 78 78 78
77 74 69 71 73 78 85 89 84 84 86 89 95 87 93 94 99 102 103 103 105 104 96 87 84 80 78 78 78 78 77 77 77 77 77 77 78 77 78 78 78 78 78 78 78 78 77 77 77
83 77 70 74 73 74 87 87 89 85 85 96 95 84 84 93 99 102 104 102 105 105 99 91 85 84 82 80 78 78 78 77 77 77 77 77 77 77 77 77 77 78 78 78 78 77 77 77 77
87 71 67 70 73 78 89 86 90 92 87 90 94 92 96 98 99 98 98 101 102 104 98 94 88 85 85 85 81 78 78 78 77 78 77 76 80 79 79 79 78 78 77 77 77 77 77 77 77
79 70 70 79 82 81 86 88 90 85 84 85 88 95 97 98 96 93 94 95 96 99 99 93 86 86 87 91 81 81 81 80 80 80 78 80 80 80 84 82 78 77 77 77 77 77 77 77 77
79 72 79 81 84 86 85 86 91 84 80 85 84 89 93 93 92 92 95 95 95 86 97 93 86 85 87 90 82 84 83 82 81 82 80 79 81 80 81 81 79 76 77 77 77 76 76 76 78
74 80 81 83 86 85 83 88 86 86 81 90 91 91 91 89 87 88 92 93 92 85 82 91 89 86 84 90 86 85 85 83 83 82 81 80 80 79 80 82 80 77 79 76 77 77 77 76 78
76 79 83 84 85 85 86 83 83 85 90 91 90 90 88 87 88 89 89 91 90 87 82 87 88 86 84 84 86 86 85 84 84 83 82 82 80 79 81 81 82 81 82 79 78 79 79 79 79
80 81 81 83 83 83 80 80 83 84 89 88 89 87 87 87 87 89 87 88 85 88 87 87 87 82 84 83 84 84 83 84 84 84 84 82 82 79 81 80 80 80 81 82 81 80 79 79 80
78 72 77 78 79 78 82 73 75 84 87 84 86 87 88 88 90 87 88 86 84 83 88 83 84 82 81 82 84 83 84 86 84 84 82 83 82 81 80 80 79 80 80 81 81 81 80 78 80
70 71 62 74 77 79 77 65 78 84 83 82 84 86 87 88 89 90 89 86 86 83 82 82 86 82 80 80 80 82 82 83 85 84 84 83 82 81 81 80 79 80 80 79 79 78 77 76 76
68 59 64 68 79 78 75 67 77 84 82 81 83 84 85 86 86 86 90 86 83 81 81 80 83 84 79 79 79 80 81 81 82 84 83 83 83 82 79 79 78 80 79 78 78 77 77 75 76
60 62 66 65 75 75 72 70 77 80 81 79 80 81 82 83 84 86 88 86 82 80 80 79 79 80 79 79 79 80 80 80 79 80 81 82 81 81 79 79 79 79 77 77 77 76 76 75 76
68 66 63 69 77 71 69 69 73 78 79 78 78 78 80 81 85 86 87 84 83 80 79 77 77 77 76 77 76 77 77 77 78 78 78 79 79 80 79 79 78 77 76 75 75 76 74 76 77
66 62 61 68 73 71 68 66 71 74 75 78 78 78 79 81 82 83 83 82 81 79 78 77 77 76 75 75 76 76 78 78 79 80 79 79 79 79 80 78 77 75 76 74 74 75 75 76 77
63 60 61 62 69 71 66 61 65 72 75 78 80 80 81 80 80 81 81 79 78 77 78 78 79 77 76 77 75 74 74 74 76 77 77 77 78 78 77 76 76 75 75 76 75 75 74 73 77
57 68 66 64 60 52 66 50 63 70 73 74 77 78 79 81 82 82 81 79 78 78 77 79 76 75 78 77 75 73 71 69 71 73 76 76 78 78 78 76 75 74 76 75 77 78 76 75 74
62 69 65 63 58 57 57 53 59 68 67 71 74 77 79 80 81 80 80 80 80 79 78 74 75 76 74 76 76 73 73 73 72 69 72 69 69 76 77 77 74 73 75 75 77 79 76 78 76
70 64 62 62 57 46 54 54 56 63 68 73 75 77 77 79 80 81 81 79 79 80 78 75 74 72 74 75 76 74 73 72 73 73 72 70 68 67 70 75 72 72 73 76 77 77 78 77 77
62 55 45 43 44 44 59 55 59 69 73 76 73 75 77 79 79 79 77 76 76 77 78 78 77 74 75 73 74 73 73 72 71 72 72 68 67 68 68 71 67 67 72 73 71 67 74 78 77
58 54 44 33 37 44 57 44 60 73 76 76 75 76 77 77 78 78 79 77 78 76 76 76 78 76 76 76 75 74 73 73 73 73 72 75 72 68 70 72 70 71 74 72 73 73 78 79 78
56 51 59 46 44 42 50 58 66 71 71 72 73 74 73 75 77 77 78 78 79 80 78 77 74 75 74 73 73 73 73 72 72 71 71 74 75 77 75 75 71 72 74 77 76 80 79 79 77
59 64 47 46 34 34 46 49 53 60 66 70 70 71 73 75 76 77 78 78 78 78 78 76 74 72 72 72 73 74 72 73 73 72 71 72 73 74 76 76 78 79 79 80 80 79 79 77 77
54 51 54 49 43 33 36 44 58 60 61 62 65 71 72 74 76 76 77 78 79 78 77 75 76 75 72 72 73 72 73 74 74 73 73 73 74 74 76 77 78 80 79 80 79 78 78 77 76
60 53 54 40 39 47 46 47 62 64 65 62 67 70 74 75 76 77 78 78 77 76 76 75 74 76 76 76 74 73 73 73 72 72 73 75 74 76 77 78 79 80 80 79 78 78 80 78 75

GFSSGP_sfc_temp_063.txt.gz
Temp
75 83 82 77 61 58 55 65 77 77 77 81 84 83 79 79 77 68 83 87 83 78 78 80 80 80 80 80 79 79 78 79 79 78 78 78 78 78 78 78 79 79 80 80 80 80 80 80 80
76 83 79 71 56 48 56 73 73 74 80 84 85 85 82 78 88 87 82 86 83 79 76 77 80 80 80 79 79 78 78 79 78 78 78 78 78 78 78 78 79 79 80 80 80 80 80 80 80
79 84 67 61 57 52 59 73 72 80 85 84 83 89 84 80 88 87 87 86 84 80 79 78 79 80 80 79 79 78 78 78 78 78 78 78 78 78 78 78 79 80 80 80 81 80 79 79 79
80 76 71 56 54 64 70 75 75 79 83 86 85 81 86 90 88 91 90 88 83 81 81 78 79 79 79 79 79 78 78 78 78 78 78 78 78 78 78 78 78 79 80 80 80 79 78 78 78
76 70 56 53 57 68 75 80 76 76 78 80 86 82 79 88 92 92 93 89 84 83 79 78 78 79 79 79 79 78 78 78 78 78 78 78 78 77 77 78 78 79 79 80 79 78 78 78 78
65 67 52 52 59 71 76 79 81 78 80 82 82 83 77 86 88 87 94 91 87 84 78 78 78 78 78 79 79 78 78 78 78 78 78 78 77 77 77 78 78 78 79 79 78 78 77 77 77
61 58 54 58 63 68 75 78 76 79 80 80 83 79 76 84 87 89 88 92 89 85 80 78 77 78 79 78 78 78 77 77 77 77 77 77 77 77 77 77 77 78 78 78 78 77 77 76 76
68 60 58 62 61 65 78 78 79 79 80 91 89 77 71 79 89 91 90 91 89 83 80 77 76 76 77 78 78 77 77 77 77 77 77 76 77 77 77 76 77 77 77 77 77 77 76 76 76
73 60 55 59 64 68 78 75 79 85 81 86 89 86 87 90 89 89 87 88 85 83 79 78 76 75 76 77 78 77 78 77 77 77 76 75 73 73 75 75 76 77 77 77 77 76 76 76 76
64 58 60 68 71 71 76 77 80 79 76 79 81 88 92 90 85 85 84 83 81 81 79 80 77 76 77 82 77 75 77 76 75 74 74 73 72 71 76 76 77 77 77 77 76 76 76 76 71
66 60 68 72 76 77 76 77 82 79 72 76 78 83 86 85 81 82 84 81 77 75 79 80 79 78 79 80 75 74 74 74 74 74 73 72 73 72 73 71 73 70 75 71 74 72 71 71 70
60 70 72 74 78 77 75 79 78 80 78 84 84 83 82 80 78 80 82 83 82 76 78 82 81 81 80 77 76 76 75 74 74 75 73 73 70 71 71 71 71 70 71 69 69 69 70 70 72
63 67 74 76 76 77 78 76 75 75 81 84 84 83 78 78 77 79 82 80 82 80 76 82 83 82 82 78 78 78 77 75 75 75 75 74 73 71 72 73 73 72 72 71 71 71 72 73 74
67 68 70 74 72 72 72 74 72 75 81 84 82 79 79 79 78 77 79 79 78 80 78 82 83 82 81 79 79 78 77 78 76 76 76 74 74 72 74 73 75 74 75 75 74 73 73 74 75
69 61 65 68 67 67 71 66 69 74 79 76 78 78 79 79 80 78 78 78 78 80 78 76 79 82 81 78 78 77 78 79 79 78 76 77 74 73 73 74 74 74 73 74 72 73 73 72 73
60 59 49 61 67 70 64 57 71 75 74 73 76 77 79 77 79 79 78 77 75 76 77 76 83 78 80 79 80 80 78 78 81 78 79 78 77 75 74 73 73 74 74 73 73 72 72 71 71
52 46 50 57 67 68 65 61 70 74 74 71 71 72 78 75 75 76 76 74 73 74 75 75 75 75 77 77 77 78 78 78 78 78 78 79 78 78 75 74 73 74 73 73 73 71 71 70 70
47 48 55 56 65 67 64 64 70 71 71 69 68 71 70 70 73 77 74 73 71 72 73 74 74 73 75 79 77 76 75 77 77 77 78 77 78 78 74 74 73 74 73 71 70 70 71 69 69
59 57 56 61 67 64 59 61 63 67 64 65 66 69 68 71 74 75 74 71 70 70 70 71 71 71 71 71 72 71 74 74 75 76 77 77 76 76 77 75 73 73 71 70 71 70 68 67 69
60 56 52 59 65 63 58 58 63 65 64 64 65 65 67 68 71 73 70 70 70 68 69 70 69 69 70 70 71 71 72 74 77 76 76 76 75 75 76 76 75 73 70 69 70 69 69 68 69
56 53 53 53 61 63 57 52 56 63 65 70 71 68 68 67 67 69 69 67 67 68 68 70 69 68 69 71 69 69 70 71 73 72 74 75 76 75 75 74 73 72 71 72 69 69 70 69 70
51 62 62 59 52 41 55 38 51 58 61 66 69 71 68 67 68 68 71 64 66 66 67 68 70 69 69 69 69 69 65 69 71 71 73 73 74 74 74 74 75 73 71 71 71 72 70 69 70
56 64 59 57 49 44 49 39 48 57 58 63 64 69 69 70 67 65 66 67 67 67 66 66 66 67 69 67 66 67 67 68 69 68 69 69 69 73 73 73 71 71 72 71 71 72 71 71 72
66 60 55 51 44 34 45 44 46 52 58 64 66 66 67 67 67 67 67 67 66 65 65 64 64 64 65 67 68 66 64 65 66 68 68 68 67 66 68 73 72 71 72 71 72 71 70 67 66
58 45 35 32 33 34 49 47 49 56 63 67 65 64 66 67 65 64 64 64 65 66 65 64 64 63 65 65 66 66 66 65 64 67 66 67 66 65 67 67 70 70 71 73 69 69 67 64 63
45 44 35 25 28 36 47 39 44 64 68 67 64 63 65 64 64 64 65 64 65 66 65 66 64 64 65 65 65 67 65 64 65 67 67 65 68 66 69 69 71 71 70 67 67 66 68 65 63
47 38 49 41 42 30 37 47 57 63 65 65 65 65 63 63 63 65 64 64 64 64 64 64 65 66 67 65 64 65 64 64 64 66 67 66 68 70 69 69 69 68 69 69 67 65 68 65 66
52 53 39 37 27 25 36 42 46 53 57 65 62 61 62 64 63 64 64 64 64 65 65 64 64 64 65 65 64 65 65 65 65 64 65 65 65 66 69 69 69 68 69 70 68 67 69 69 72
46 42 44 40 36 26 26 36 51 53 54 55 59 62 57 60 61 62 64 65 65 65 65 64 64 63 62 63 63 63 64 65 65 65 65 66 67 67 70 71 71 72 69 69 68 67 69 70 72
49 41 38 32 32 34 33 36 57 54 55 57 57 60 63 62 64 64 65 65 64 64 64 63 64 65 64 63 63 64 66 65 65 64 65 67 67 69 71 71 72 73 74 72 69 70 73 74 74

GFSSGP_sfc_temp_066.txt.gz
Temp
72 77 75 74 61 55 53 62 69 72 73 76 80 77 74 75 74 66 78 84 79 77 78 79 79 80 79 79 79 78 78 78 78 78 78 78 78 79 78 78 79 79 80 80 80 80 80 80 80
73 80 75 67 53 47 54 69 68 71 77 77 78 80 78 74 83 78 78 82 80 77 77 78 79 79 79 79 78 78 78 78 78 78 78 78 78 78 78 78 79 79 80 80 80 80 80 80 80
78 79 66 58 50 49 56 68 68 74 79 80 77 82 80 77 84 81 82 82 79 76 77 78 79 79 79 79 78 78 78 78 78 78 78 78 78 78 78 78 79 80 80 80 80 80 79 79 79
75 70 65 54 51 59 65 70 72 77 79 79 79 76 83 87 85 83 84 82 79 77 78 79 79 79 79 79 79 78 78 78 78 78 78 78 78 77 77 78 78 79 80 80 80 79 78 78 78
72 63 53 47 53 61 69 73 75 76 74 77 77 74 76 85 86 85 83 83 79 77 77 78 79 79 79 79 79 78 78 78 78 78 78 78 77 77 77 77 78 79 79 79 79 78 78 77 78
62 61 48 45 54 67 70 72 75 79 79 78 77 75 74 84 86 82 84 82 82 78 77 77 79 78 78 79 78 78 78 78 78 78 78 77 77 77 77 77 78 78 78 79 78 78 77 77 77
59 54 49 52 57 63 70 74 72 77 79 81 84 73 75 79 82 86 84 82 82 80 77 76 77 78 78 78 78 77 77 77 77 77 77 77 77 77 77 77 77 77 77 77 77 77 77 76 76
63 56 53 53 56 58 72 73 75 76 79 88 87 74 72 81 86 86 83 82 81 77 77 75 76 79 79 77 77 77 77 77 76 76 76 76 77 76 77 75 76 77 77 77 77 77 76 76 76
68 51 50 54 58 62 72 68 77 81 78 84 87 83 86 87 86 84 78 80 77 78 74 74 75 78 79 79 77 77 78 77 77 77 76 75 73 73 75 75 76 77 77 77 76 76 76 76 76
57 49 53 62 65 64 69 70 72 74 76 76 80 84 85 83 82 80 76 75 76 74 74 72 76 77 78 80 79 77 77 76 75 75 75 73 71 71 74 75 76 77 77 77 76 76 76 76 69
58 55 61 66 68 72 71 73 75 72 69 73 76 81 80 78 77 77 76 78 77 75 77 75 74 75 75 77 78 77 77 76 74 74 73 72 72 71 72 69 72 70 75 70 73 71 70 69 68
54 63 66 68 71 71 70 75 73 75 75 79 83 82 79 78 76 77 77 75 75 73 77 77 76 74 75 74 76 76 75 73 72 73 72 71 71 69 68 69 68 68 68 68 68 67 68 68 69
54 61 67 70 71 71 74 71 72 74 79 82 81 81 78 75 79 77 78 78 75 74 75 78 78 77 75 73 74 73 73 73 73 71 71 71 70 70 69 69 68 68 67 67 66 67 68 68 69
61 62 63 66 66 66 68 71 68 73 79 79 79 77 79 77 77 75 76 75 76 76 75 79 79 77 77 75 74 75 75 75 73 73 73 71 71 70 69 68 68 68 68 68 69 68 68 69 69
63 56 60 61 61 64 65 62 67 73 77 75 76 76 78 76 77 76 78 75 76 74 76 74 78 77 76 76 75 75 76 76 75 75 73 73 71 69 69 69 69 70 70 70 69 70 69 68 70
55 52 44 55 61 65 63 55 66 70 71 71 72 75 75 76 76 76 76 74 73 73 72 75 81 79 78 78 78 78 75 76 76 76 75 75 74 72 71 73 73 71 71 70 70 70 69 69 68
46 41 46 52 61 61 59 58 66 70 69 68 68 69 72 71 73 72 76 74 72 71 71 73 75 75 75 78 79 80 78 78 78 77 77 76 76 74 73 72 71 71 71 71 71 69 69 70 67
41 43 49 49 61 58 56 57 65 70 67 68 66 66 68 70 70 73 73 71 70 69 69 70 71 73 73 73 72 72 73 78 80 79 78 77 76 76 75 73 71 71 70 71 70 68 70 68 68
52 50 49 56 61 56 54 55 59 66 65 63 61 63 65 68 70 70 68 68 68 67 67 68 68 69 70 70 69 68 69 70 71 76 78 77 77 76 75 75 71 70 70 70 70 68 68 68 67
54 51 50 56 61 57 55 54 58 61 61 62 62 63 63 62 66 66 65 66 66 66 66 65 67 68 68 70 70 69 68 69 72 71 74 74 75 77 77 76 73 71 70 69 69 67 66 66 68
55 50 50 50 57 57 52 50 53 60 63 64 64 63 64 64 64 63 66 65 64 64 65 66 65 66 68 69 68 68 68 68 68 68 69 73 75 75 76 76 74 71 73 72 69 68 67 66 67
47 58 57 55 48 39 53 35 46 54 57 60 62 62 62 63 64 65 67 62 66 66 64 64 64 65 66 66 66 65 65 65 66 66 68 68 73 74 73 73 74 74 73 72 70 70 69 67 65
53 60 55 53 44 39 43 37 44 52 54 56 61 62 63 65 68 64 65 67 62 64 62 63 63 64 64 65 64 65 65 65 65 67 68 67 68 72 73 72 72 73 72 73 71 70 70 70 67
61 56 49 45 41 33 41 41 45 47 51 55 62 66 66 63 62 62 62 62 61 61 62 62 62 62 62 63 63 63 63 63 64 65 65 66 66 66 68 71 70 70 72 71 72 70 69 69 70
51 43 32 31 28 33 45 41 45 52 58 61 62 65 66 62 62 61 64 64 62 61 61 61 61 61 61 62 61 62 63 63 63 63 64 64 64 65 67 67 69 70 71 72 71 69 69 70 67
45 43 32 25 24 34 46 35 46 56 59 63 61 61 60 57 62 63 64 64 64 62 60 61 60 60 61 61 62 62 61 61 61 62 62 64 63 64 67 68 68 69 69 70 69 68 69 65 64
44 35 48 35 37 30 35 43 53 59 61 60 59 60 56 55 60 62 62 63 62 62 60 61 59 61 62 62 61 60 61 60 60 61 60 62 62 66 66 66 66 67 69 67 65 66 68 68 68
47 45 34 33 25 24 31 35 38 49 53 60 58 59 60 61 58 58 59 59 60 61 60 60 63 63 62 61 61 62 61 61 61 60 61 61 62 62 64 65 66 67 68 68 65 65 68 67 69
42 40 36 35 33 26 26 31 46 46 51 53 57 59 54 58 61 61 59 59 60 60 59 60 60 61 60 60 61 60 60 61 61 60 61 61 62 63 64 65 65 66 66 67 66 66 67 66 68
48 41 37 29 26 33 29 31 50 47 51 56 57 58 59 60 58 55 57 59 61 58 62 62 60 61 61 61 60 60 60 60 59 60 61 62 62 63 64 65 66 67 68 67 68 68 70 68 68

GFSSGP_sfc_temp_069.txt.gz
Temp
71 75 74 72 60 56 54 58 66 68 70 74 77 73 74 72 70 64 76 81 77 76 77 78 79 79 79 79 79 79 78 78 78 79 79 79 78 78 78 78 78 79 80 80 80 80 80 80 80
73 78 73 64 53 48 55 63 63 67 73 74 76 76 74 72 80 76 75 79 79 77 78 77 79 79 79 79 78 78 78 78 78 78 79 78 78 78 78 78 79 79 80 80 80 80 80 80 80
77 76 65 57 48 49 55 65 66 71 75 74 73 78 76 74 81 79 78 79 77 77 79 77 79 79 79 79 78 78 78 78 78 78 78 78 78 78 78 78 78 79 80 80 80 80 79 79 79
74 69 63 52 51 58 63 66 71 73 75 77 74 73 79 82 82 81 80 79 76 78 77 78 78 78 78 79 78 78 78 78 78 78 78 78 78 77 77 78 78 79 80 80 80 79 78 79 78
68 61 50 45 52 59 67 71 73 72 73 75 74 72 74 82 82 80 79 79 75 75 76 77 78 78 78 79 78 78 78 78 78 78 78 78 77 77 77 77 78 79 79 79 79 78 78 78 78
62 58 45 45 53 64 67 72 73 74 77 74 73 73 73 80 79 78 80 78 78 75 76 78 78 78 78 78 78 78 77 77 77 77 77 77 77 77 77 77 78 78 78 78 78 78 77 77 77
58 51 45 50 53 59 66 70 70 72 73 76 77 70 73 77 81 79 79 77 78 76 77 78 77 78 78 78 77 77 77 77 77 76 76 77 77 77 77 77 77 77 77 77 77 77 77 76 76
60 54 46 50 53 56 68 69 69 71 74 84 81 71 70 78 81 80 79 76 74 74 76 78 78 76 75 76 77 77 77 77 76 76 76 76 76 76 76 75 76 77 77 77 76 76 76 76 76
65 49 43 51 54 60 68 64 71 76 74 78 80 78 83 82 79 76 75 74 72 74 73 78 77 75 75 75 76 77 78 77 77 76 76 75 73 73 74 74 76 77 77 76 76 76 76 76 76
57 47 51 60 62 62 65 64 67 70 71 72 75 81 81 79 78 73 74 71 71 72 71 76 77 74 75 78 75 74 75 75 74 74 74 73 72 71 73 74 76 76 77 76 76 76 76 76 68
56 53 58 62 64 66 67 68 70 67 65 70 72 76 78 76 73 71 74 74 74 73 74 74 76 77 75 76 75 75 75 74 74 73 73 71 72 72 71 69 70 69 74 69 72 70 69 68 67
51 60 61 64 68 66 65 70 69 69 70 75 78 77 76 74 72 72 70 71 72 72 74 74 76 77 74 76 78 77 77 76 76 75 72 70 69 69 69 68 67 67 67 67 66 67 67 67 68
52 58 63 66 65 65 68 66 67 70 76 77 80 78 76 74 73 72 73 72 71 71 73 74 74 75 74 74 78 78 77 76 76 74 72 71 69 68 67 67 66 65 65 66 65 66 67 67 68
57 58 60 61 61 61 62 66 65 71 75 75 77 74 75 75 75 71 70 73 72 72 73 75 74 74 75 74 75 76 76 75 72 72 72 71 70 67 66 66 66 66 66 67 67 67 67 67 68
58 53 56 56 57 58 62 59 62 68 72 72 74 74 74 74 75 76 75 72 74 74 73 73 74 75 74 74 73 73 74 74 73 74 73 73 70 69 68 67 66 67 67 68 68 67 67 66 68
52 49 42 51 57 62 59 53 63 68 67 69 71 72 74 73 74 75 75 73 71 72 71 73 77 75 74 75 74 75 75 74 74 75 74 73 72 71 69 70 69 69 68 69 68 68 67 67 67
44 39 42 49 56 58 57 52 62 65 64 64 67 68 70 71 71 70 73 73 70 72 73 72 75 74 74 72 74 74 73 74 72 72 73 74 74 73 72 71 70 70 68 69 69 69 67 67 67
39 40 45 44 52 53 54 54 59 62 62 63 62 66 67 67 69 73 70 71 70 68 69 73 74 74 74 73 72 71 71 73 72 74 73 74 74 74 72 71 70 70 69 68 68 68 67 67 67
49 45 45 51 58 52 52 53 55 60 59 60 61 60 62 64 69 68 69 68 65 65 67 68 68 69 72 69 70 68 69 68 68 70 73 73 74 74 75 75 71 70 69 69 69 68 68 67 67
49 46 46 52 57 52 51 51 55 58 60 58 59 58 61 61 62 62 61 62 65 65 65 65 67 68 70 70 68 68 67 67 67 68 71 73 74 74 73 74 73 72 70 69 69 68 65 66 67
49 46 47 47 54 54 49 47 50 56 58 62 61 58 60 61 62 63 62 62 62 62 62 64 65 66 67 68 67 67 67 66 67 66 67 69 75 74 73 75 74 71 72 70 69 68 66 67 66
43 55 53 51 45 38 49 37 45 51 55 56 59 58 59 61 61 62 63 60 60 64 62 63 63 64 65 67 66 65 64 65 66 66 66 67 69 69 72 72 74 74 74 71 70 70 67 67 66
49 56 52 51 44 37 40 35 41 47 49 53 58 60 61 60 60 60 62 66 64 62 62 61 61 61 61 62 64 64 63 63 64 65 66 65 67 68 70 71 70 73 74 73 72 70 68 67 68
57 51 47 42 38 32 40 38 42 46 49 52 56 59 61 64 63 61 64 66 58 58 59 59 60 59 60 60 61 62 62 62 62 63 64 64 65 66 67 69 68 69 70 70 72 74 75 70 67
50 38 28 28 29 33 42 37 45 51 54 55 56 57 60 63 66 60 56 58 57 59 60 59 59 58 59 60 60 60 61 60 61 61 63 63 63 64 66 67 66 67 67 69 69 68 68 67 67
41 43 32 25 24 32 42 33 45 53 57 58 58 55 55 53 60 59 59 62 64 61 58 60 59 58 58 59 60 60 60 59 59 60 60 60 61 63 65 65 65 66 68 68 67 67 67 67 68
41 35 42 34 34 30 32 40 51 56 55 55 56 56 53 54 53 54 56 63 62 60 58 59 58 58 59 60 60 59 58 58 59 59 58 58 59 63 63 64 64 64 65 67 67 67 67 67 67
42 43 30 33 26 25 29 32 36 46 48 53 52 51 52 54 55 55 56 56 56 57 60 58 59 60 61 60 58 60 58 58 58 58 58 58 59 60 61 62 63 64 64 65 64 64 65 64 67
38 36 36 35 33 26 24 29 42 43 44 47 52 54 53 51 53 53 55 56 57 58 54 56 59 59 58 58 58 58 58 58 58 57 58 58 58 60 61 62 63 63 64 64 64 63 65 64 65
42 37 37 26 29 32 30 29 49 45 46 49 51 58 59 57 55 54 55 55 56 56 58 56 56 60 63 61 58 57 57 57 57 57 58 58 59 60 62 62 63 64 64 64 64 65 67 65 65

GFSSGP_sfc_temp_072.txt.gz
Temp
71 73 72 71 59 54 48 55 61 65 66 70 74 71 70 69 70 63 73 77 76 75 77 78 79 79 79 79 79 79 79 79 79 79 79 79 79 79 78 78 78 79 80 80 80 80 80 80 80
72 76 72 63 52 47 53 61 59 63 70 72 71 73 71 69 76 73 73 77 77 76 77 77 79 79 79 79 78 78 78 78 78 79 79 79 78 78 78 78 79 79 80 80 80 80 80 80 80
75 74 64 55 47 49 55 63 64 68 71 71 70 75 74 73 78 76 76 77 76 76 78 78 79 79 79 79 78 78 78 78 78 79 79 78 78 78 78 78 78 79 80 80 80 80 79 79 79
71 69 61 51 49 57 61 65 66 71 72 71 73 70 77 81 79 79 78 77 76 76 79 78 78 78 79 79 78 78 78 78 78 78 78 78 78 77 77 78 78 79 80 80 80 79 79 79 79
67 60 51 44 51 58 65 70 69 69 70 71 73 70 71 79 77 77 76 78 75 76 78 78 78 78 78 79 78 78 78 78 78 78 78 78 77 77 77 77 78 79 79 79 79 78 78 78 78
60 57 44 44 52 62 65 69 70 70 70 73 72 71 70 76 76 75 77 75 77 76 78 79 78 78 78 78 78 77 77 77 77 77 78 77 77 77 77 77 78 78 78 79 78 78 77 77 77
57 50 45 47 52 59 64 69 67 68 69 71 76 68 72 74 76 76 75 74 74 77 78 79 79 77 78 77 77 77 77 77 77 76 77 77 77 77 77 77 77 77 77 77 77 77 77 77 77
59 53 43 50 52 56 66 69 68 70 71 79 77 67 69 76 75 75 74 72 72 74 75 78 78 76 75 76 77 77 77 77 76 76 76 76 76 76 76 75 76 77 77 77 77 77 76 76 76
59 47 42 49 53 59 65 63 68 73 72 72 75 73 78 75 74 73 70 70 70 74 75 78 78 78 75 74 76 77 78 77 76 76 76 75 74 74 75 75 76 77 77 76 76 76 76 76 76
54 43 49 56 59 59 62 62 64 66 67 66 70 76 78 75 72 71 70 69 70 71 75 77 78 77 75 76 75 74 75 75 74 74 74 72 72 72 74 74 76 76 76 76 76 76 76 76 71
52 47 55 57 61 63 61 61 67 62 64 65 68 72 73 74 70 70 72 72 72 71 74 76 78 77 75 75 74 74 74 73 73 72 73 71 71 72 73 71 73 71 75 72 74 73 72 71 70
49 57 61 61 64 63 63 66 64 65 67 70 72 72 75 73 69 69 69 70 72 70 72 74 76 75 73 74 74 74 73 73 73 74 74 71 70 69 69 70 69 69 69 69 69 69 70 70 71
51 56 61 63 61 61 65 62 64 66 70 73 73 73 72 72 70 70 73 71 70 70 72 74 75 74 73 72 74 74 74 74 74 76 75 72 70 69 69 69 68 68 68 68 68 68 70 70 71
55 55 57 59 59 58 60 62 62 66 71 72 72 72 71 72 71 69 68 68 69 70 71 74 74 74 75 74 75 75 75 76 75 76 75 73 71 69 69 68 68 67 68 68 68 69 69 70 70
55 50 55 55 56 59 60 57 58 66 69 66 70 71 70 70 71 71 73 70 70 71 72 72 73 74 73 74 74 76 76 77 76 76 74 72 71 70 70 69 68 68 68 68 68 69 69 69 70
48 46 40 51 55 61 59 52 60 65 65 65 67 69 69 70 71 73 72 71 71 70 70 72 75 73 72 73 74 75 75 76 75 74 73 73 72 71 69 69 69 69 68 69 69 69 69 69 70
42 36 37 46 53 55 53 49 59 63 63 62 64 66 68 68 69 69 71 71 69 70 71 71 73 73 72 72 73 73 72 73 72 72 72 72 72 72 70 70 70 69 69 69 69 70 70 69 70
36 36 40 42 51 51 51 51 56 60 58 58 58 61 64 67 70 70 70 69 68 68 68 71 72 72 72 72 71 69 69 72 72 73 73 72 73 73 70 71 70 70 69 69 69 69 69 69 70
45 42 41 48 55 49 48 49 53 57 56 57 56 56 58 63 71 67 67 67 66 65 65 68 69 70 71 70 69 68 69 68 68 69 72 72 73 73 72 71 70 69 70 71 70 70 69 68 69
46 42 42 48 53 48 47 47 51 54 56 58 58 56 56 57 60 64 64 62 62 66 67 67 69 68 70 72 73 69 69 68 69 69 70 71 72 73 73 72 72 70 71 70 70 69 68 68 68
45 42 43 44 50 50 47 46 47 53 55 59 59 58 58 58 58 60 62 61 59 61 62 66 68 69 70 70 68 67 67 67 67 68 68 70 71 72 72 72 73 71 72 69 70 70 69 68 67
40 51 50 48 42 35 47 37 45 47 53 56 59 56 57 59 60 60 61 60 59 61 61 63 65 67 68 68 68 67 66 65 66 68 69 69 71 72 72 71 72 71 72 71 70 71 70 69 66
46 52 48 47 41 35 39 34 39 45 47 50 54 57 59 57 58 60 62 62 61 60 60 61 63 64 66 68 69 66 64 64 65 65 67 67 68 69 71 70 69 69 69 69 69 70 68 68 68
53 46 43 38 36 30 40 36 42 48 46 49 54 56 58 58 58 58 61 63 60 59 59 59 60 60 62 64 65 66 65 64 64 64 64 65 66 67 69 70 67 69 69 70 69 70 70 71 69
45 36 27 25 25 31 40 35 43 51 52 54 54 55 54 53 52 54 57 58 60 56 58 58 58 58 58 60 61 61 62 62 62 63 64 64 64 65 67 68 68 68 69 70 68 68 67 68 68
38 38 27 19 24 32 40 32 43 51 54 56 56 53 52 51 51 51 54 56 60 60 60 62 58 57 57 59 60 60 61 61 61 61 62 63 64 65 67 67 67 68 69 69 69 68 68 68 67
38 33 37 32 35 29 31 38 48 51 49 51 52 52 51 51 51 51 52 54 55 58 60 61 58 57 57 59 58 58 59 59 60 60 60 61 61 64 65 65 65 66 67 68 69 67 68 68 68
40 43 32 33 25 21 29 31 36 43 44 48 48 50 50 52 54 53 53 53 55 54 54 56 57 59 59 59 59 59 58 59 59 58 59 60 60 62 63 64 65 65 66 67 67 66 67 67 68
35 32 34 35 32 25 24 30 42 42 44 44 47 49 49 51 53 54 54 54 54 56 57 55 55 56 58 58 57 58 58 59 58 58 58 59 59 61 62 63 64 65 65 66 65 65 65 65 65
40 36 33 24 21 27 22 29 50 46 48 47 47 49 51 50 53 54 56 57 58 56 56 58 58 57 57 58 57 58 58 57 57 57 58 59 59 60 62 63 65 66 66 65 65 65 67 66 65

GFSSGP_sfc_temp_075.txt.gz
Temp
81 85 86 85 73 71 66 70 76 76 77 83 84 81 81 83 82 79 84 88 87 86 86 84 79 80 80 80 79 79 79 79 79 79 79 79 79 79 79 79 79 79 80 80 80 81 80 80 80
83 84 86 78 68 63 67 73 73 77 82 83 82 83 81 81 85 81 83 85 87 85 84 86 79 79 80 79 79 79 79 79 79 79 79 79 79 79 79 79 79 80 80 81 81 81 81 80 80
83 82 80 74 67 63 67 73 74 79 84 82 83 86 84 82 86 85 88 86 86 84 85 85 79 79 79 79 79 78 79 79 79 79 79 79 79 78 78 78 79 80 81 81 81 81 80 80 79
83 82 76 67 64 67 68 72 77 80 84 85 83 81 87 89 88 89 87 86 86 85 86 81 79 79 79 79 79 78 78 79 79 79 79 79 78 78 78 78 79 80 81 81 80 79 79 79 79
81 77 67 63 64 67 70 74 78 78 79 82 83 79 83 87 83 85 85 86 86 86 86 85 78 78 79 79 79 78 78 78 78 78 78 78 78 78 78 78 78 79 80 80 79 78 78 78 78
73 74 62 60 63 67 71 75 77 78 80 82 82 81 83 85 83 83 85 86 89 86 86 85 79 78 78 78 78 78 78 78 78 78 78 78 78 77 78 78 78 79 79 79 79 78 78 77 78
70 66 63 63 61 65 70 76 75 76 78 80 85 78 84 89 84 85 85 86 87 87 86 86 86 82 78 78 77 77 77 77 77 77 77 77 77 77 77 77 77 78 78 78 78 78 77 77 77
72 68 61 62 60 62 72 74 75 77 77 86 85 78 79 87 85 85 85 85 86 86 87 86 85 86 85 84 77 77 77 77 76 77 77 77 77 77 77 76 76 77 77 77 77 77 77 77 77
71 61 59 61 60 65 70 69 76 81 78 81 83 84 87 87 84 83 81 82 84 84 85 85 85 85 86 87 83 78 77 77 76 78 77 76 85 83 82 80 76 77 77 77 77 77 76 77 77
68 59 60 65 68 66 69 70 72 74 75 76 80 86 88 83 83 82 81 81 81 82 83 85 82 83 84 86 85 84 84 84 82 83 81 83 83 83 84 81 76 77 77 77 77 76 76 77 87
64 60 63 66 70 71 69 69 75 72 69 76 76 82 87 87 85 83 84 85 84 83 83 84 81 81 82 83 83 84 83 83 82 81 81 81 81 82 84 84 83 82 78 84 82 83 85 83 85
61 64 67 70 72 71 69 74 70 73 73 80 81 83 84 84 86 86 85 85 83 80 81 82 83 80 79 83 82 83 83 82 82 82 81 80 80 80 81 83 83 81 84 83 82 84 82 81 82
62 63 67 69 70 69 71 68 70 73 78 81 81 81 81 83 85 87 86 87 84 80 81 82 82 81 78 79 81 82 81 81 82 82 81 79 80 79 81 81 82 82 83 82 81 81 81 80 81
65 65 66 67 68 69 66 69 70 73 79 78 79 80 83 83 84 87 85 82 81 82 81 82 81 79 78 79 80 80 80 81 81 81 81 79 78 78 80 79 80 80 80 81 80 81 80 81 82
65 61 64 67 68 67 69 65 63 73 77 75 78 81 81 82 84 84 86 83 83 83 82 79 80 79 78 78 80 82 83 83 83 82 80 78 77 78 78 80 78 79 79 78 78 79 80 81 83
61 59 56 64 65 69 66 59 69 73 71 72 75 78 78 81 83 84 85 83 84 83 80 80 82 80 78 79 81 82 84 83 83 83 81 78 77 78 78 80 80 80 79 80 80 80 80 81 82
57 54 52 57 66 64 64 60 68 73 71 69 70 74 76 78 79 81 82 82 81 80 80 79 79 80 78 79 81 81 81 82 81 80 76 77 77 78 79 79 81 79 81 80 79 79 79 81 82
50 51 52 53 63 63 61 60 66 70 70 69 70 72 74 74 77 81 80 81 81 76 77 78 78 78 78 79 79 79 78 81 83 81 77 77 79 79 76 79 78 79 78 79 78 76 80 79 79
55 52 52 58 63 58 59 60 63 69 69 69 71 70 72 74 78 78 78 78 78 76 75 77 75 76 76 75 75 73 74 76 76 79 79 78 76 79 79 80 79 78 79 78 76 78 77 77 75
55 52 54 58 62 58 60 59 65 66 68 71 72 72 72 73 75 76 76 75 75 75 74 74 76 76 76 77 77 77 76 74 75 76 77 78 78 78 77 78 79 77 78 76 77 76 79 79 78
56 52 54 53 58 61 58 56 61 66 67 70 73 73 73 73 74 75 76 75 75 74 74 75 76 77 76 77 78 76 76 75 74 74 75 76 77 78 78 78 78 78 78 79 75 76 76 78 74
51 59 56 54 52 48 57 44 57 63 64 68 70 73 74 73 74 74 75 76 76 75 76 75 76 77 77 76 74 74 75 74 77 78 79 78 77 78 78 76 76 77 79 77 75 75 75 73 73
55 59 56 55 52 51 53 47 55 61 59 63 67 71 74 75 73 74 76 77 78 77 74 74 75 76 77 76 77 76 76 78 79 79 77 77 77 78 79 78 77 76 77 77 75 73 72 71 69
59 56 55 52 51 42 51 49 52 57 60 64 68 70 72 74 72 72 73 72 72 77 76 73 73 75 76 76 76 76 75 76 76 77 78 79 80 79 78 78 77 76 76 75 73 70 66 66 65
55 51 43 41 42 41 51 46 51 59 62 64 65 69 71 67 67 68 70 71 72 73 76 74 73 74 75 76 76 76 77 75 75 76 79 79 79 79 78 77 76 77 77 76 71 69 67 66 66
51 49 40 30 35 40 49 40 51 61 61 61 63 64 64 65 67 68 68 68 70 70 73 73 73 73 74 75 76 77 77 78 78 76 79 79 80 80 79 77 76 77 77 77 75 73 69 66 65
47 44 48 40 43 36 44 49 57 58 56 58 60 61 62 64 65 66 69 69 68 69 69 72 73 73 72 73 73 73 73 74 75 74 75 78 77 79 77 77 76 76 77 78 76 74 71 70 67
51 53 39 38 28 30 41 43 45 50 52 56 56 58 59 62 65 67 68 68 69 68 69 69 71 72 72 73 73 74 73 74 74 73 73 73 74 75 75 75 75 75 76 76 75 76 76 72 73
46 44 43 40 34 30 31 41 52 51 53 54 57 57 58 59 62 65 67 69 70 70 69 67 68 70 70 72 73 72 73 73 73 73 73 73 72 73 74 75 75 75 75 75 74 75 75 75 75
51 46 46 35 32 33 32 37 58 57 54 55 55 55 56 60 61 64 66 67 69 71 72 70 68 70 71 70 71 72 72 72 71 72 72 72 73 74 75 75 75 76 76 75 75 76 77 76 75

GFSSGP_sfc_temp_081.txt.gz
Temp
86 101 104 98 81 83 79 84 96 90 90 97 98 95 96 99 94 84 104 104 107 100 93 88 80 81 81 81 80 80 79 79 79 79 79 79 79 79 79 79 80 80 81 81 81 81 81 81 81
97 99 99 91 78 75 80 91 88 92 95 97 98 97 95 94 102 101 103 102 106 99 93 93 80 80 81 81 80 79 79 79 79 79 79 79 79 79 79 79 80 80 81 81 81 81 81 81 80
92 99 87 83 79 75 80 92 91 93 95 95 94 98 97 93 100 101 103 101 105 97 94 92 80 80 80 80 80 79 79 79 79 79 79 79 79 79 79 79 80 81 81 81 82 81 81 80 80
94 92 89 77 76 83 86 90 92 91 95 96 95 91 99 99 97 102 102 103 102 99 98 82 79 79 80 80 80 79 79 79 79 79 79 79 79 79 79 79 79 80 81 81 81 80 80 80 80
94 87 76 75 77 84 89 91 90 89 92 94 94 90 92 97 100 102 101 103 101 100 99 90 79 79 80 80 80 79 79 79 79 79 79 79 79 78 78 79 79 80 81 81 80 80 79 79 79
83 85 71 71 77 82 87 91 91 90 92 94 92 90 92 102 99 100 103 103 104 102 100 92 80 79 79 80 80 79 79 79 79 79 79 79 78 78 78 78 79 80 80 80 80 79 79 79 79
81 79 72 75 76 78 83 89 88 89 91 90 96 87 95 98 101 102 102 105 105 104 101 94 90 84 79 78 79 78 78 78 78 78 78 78 78 78 78 78 79 79 79 79 79 79 79 79 79
86 82 75 75 72 75 86 87 91 89 88 99 95 85 89 95 101 102 104 104 106 104 103 97 92 91 89 87 78 78 78 78 77 77 77 77 78 78 78 77 78 78 78 78 78 78 79 79 78
91 76 72 75 74 80 90 83 88 92 90 92 94 94 98 100 100 99 101 102 104 103 102 100 96 93 93 95 86 78 78 78 77 79 77 77 88 85 83 82 77 78 78 78 78 78 78 78 78
81 73 76 84 84 83 88 82 83 84 86 87 89 97 100 101 99 97 95 97 100 101 102 102 95 94 94 97 91 88 88 87 86 87 84 88 89 90 91 85 78 78 78 78 78 78 78 78 91
80 74 83 85 82 81 80 82 85 81 80 86 86 92 97 98 98 97 98 100 98 100 102 102 95 93 94 96 94 91 91 90 89 89 88 87 90 90 90 89 86 85 79 86 83 83 86 88 92
75 81 83 85 83 80 77 83 81 83 84 89 90 93 93 93 94 95 97 100 100 99 99 99 97 92 91 97 95 93 93 91 91 90 89 88 89 89 89 92 90 87 89 89 90 91 89 90 91
77 80 81 83 84 83 82 78 78 81 88 90 90 90 90 91 93 96 98 99 100 99 97 97 97 91 89 90 94 92 92 91 90 91 89 90 90 88 90 91 92 90 93 90 91 92 91 89 90
81 80 80 81 82 83 79 78 78 81 88 87 88 88 91 92 94 95 96 96 97 98 99 97 95 90 89 87 89 88 88 90 89 89 88 88 89 88 89 89 91 92 93 94 92 91 91 90 92
79 74 77 79 80 78 82 75 75 83 86 84 85 86 90 91 94 94 96 96 98 99 98 95 94 93 87 86 88 89 91 91 88 89 84 84 86 85 84 89 89 92 91 90 90 90 90 91 93
74 74 68 79 80 80 77 68 82 85 82 79 81 85 86 89 92 95 96 95 97 95 95 97 97 93 88 85 87 88 90 88 90 89 90 85 83 86 84 88 88 90 88 88 89 88 88 89 91
72 66 69 74 81 78 76 70 81 84 82 78 80 81 84 85 90 92 95 93 93 94 92 94 93 93 89 84 86 87 87 89 90 92 90 85 85 86 85 89 88 87 89 88 89 88 87 88 89
67 68 71 69 77 78 74 73 80 83 83 82 82 82 82 83 85 89 93 95 94 92 90 91 92 87 89 88 83 86 88 88 88 88 88 86 85 84 84 88 88 87 88 88 88 84 88 88 90
71 68 67 73 76 72 71 72 76 81 81 81 82 83 84 83 88 90 90 91 91 90 88 86 87 88 87 86 84 84 87 88 89 91 90 90 86 85 82 86 88 87 86 86 85 86 83 87 88
68 66 66 72 75 72 70 70 76 79 80 81 81 82 84 86 88 88 89 89 87 87 86 85 85 86 86 88 86 86 87 91 92 91 91 86 86 84 81 77 85 82 86 84 85 82 82 83 87
67 65 66 66 71 73 69 66 70 78 82 83 83 84 85 85 85 87 88 89 90 89 88 87 84 84 85 86 88 85 84 83 86 89 90 89 87 85 85 83 85 86 85 84 79 81 77 78 85
62 72 69 66 63 58 72 55 68 74 76 79 81 83 84 85 86 87 88 88 88 89 90 89 88 84 83 86 84 82 83 82 87 87 89 89 86 86 87 85 84 85 86 83 79 84 81 79 78
65 72 67 66 63 62 63 60 67 75 72 77 78 80 81 83 85 85 86 88 89 90 89 88 86 85 84 83 83 85 83 86 85 86 83 83 83 84 86 85 84 83 84 83 83 81 80 81 81
72 68 67 67 65 54 63 63 65 70 71 73 75 77 77 80 81 82 84 85 85 88 88 87 85 84 85 84 81 81 81 81 84 83 83 83 82 79 83 85 83 82 81 82 81 82 79 79 80
69 62 53 52 53 53 67 62 65 72 73 71 70 72 75 77 77 79 80 82 81 83 84 84 83 82 84 84 83 82 81 82 80 83 85 84 85 85 80 82 82 83 81 82 81 81 80 77 79
65 60 50 39 45 52 63 54 63 74 74 72 73 74 75 75 76 76 77 76 79 81 81 81 80 79 81 82 83 84 83 81 82 84 90 88 90 88 85 82 82 84 84 83 82 80 79 78 78
61 56 64 53 56 49 56 62 71 75 70 71 68 72 73 72 73 75 77 77 78 76 78 79 80 79 80 80 82 83 84 83 84 84 84 89 86 91 86 84 84 83 85 85 82 79 79 79 77
63 68 52 55 39 40 53 54 58 63 64 68 70 72 73 74 76 76 74 73 75 78 79 79 78 78 79 79 80 84 84 84 83 82 81 84 87 89 83 84 84 84 84 84 81 79 79 79 80
59 58 58 55 50 39 40 51 67 64 66 66 69 71 73 74 76 76 76 76 75 78 79 78 78 78 78 80 80 80 82 83 81 79 81 83 81 87 82 83 85 84 84 83 79 80 82 80 79
65 60 59 48 45 48 45 47 69 68 69 70 71 73 74 72 72 75 76 76 75 72 74 76 76 77 79 79 80 80 83 82 78 78 77 77 76 77 84 86 86 86 86 83 80 80 83 79 78

GFSSGP_sfc_temp_084.txt.gz
Temp
83 94 98 93 76 77 71 78 89 88 91 99 98 95 93 95 90 78 103 104 97 90 85 84 80 80 80 80 79 79 79 79 79 79 79 79 79 79 79 79 80 80 81 81 81 81 81 81 81
89 93 94 86 71 67 72 85 86 92 94 97 97 96 94 91 99 98 98 103 96 90 85 84 80 80 80 80 79 79 79 79 79 79 79 79 79 79 79 79 80 80 81 81 81 81 81 81 80
87 92 81 77 72 67 73 87 90 95 96 95 93 100 97 89 98 97 99 101 95 90 88 84 80 80 80 80 79 79 79 79 79 79 79 79 79 79 79 79 80 80 81 81 81 81 80 80 80
88 87 84 70 69 77 81 87 93 93 95 97 96 90 95 98 97 101 102 103 95 92 92 80 79 80 80 80 79 79 79 79 79 79 79 79 79 78 78 79 79 80 81 81 81 80 80 80 79
88 83 71 69 71 79 86 91 92 89 92 94 95 89 88 97 101 101 100 103 97 94 89 83 79 79 80 80 80 79 79 79 79 79 79 79 78 78 78 79 79 80 80 80 80 79 79 79 79
78 80 66 66 72 80 86 90 91 90 92 94 91 91 89 99 98 99 102 102 101 97 89 83 80 79 79 79 79 79 78 78 79 79 79 79 78 78 78 78 79 79 80 80 79 79 78 78 79
76 73 67 70 73 77 83 91 86 88 89 90 95 86 90 94 99 102 101 103 102 99 92 86 84 81 79 79 78 78 78 78 78 78 78 78 78 78 78 78 79 79 79 79 78 78 78 78 79
82 77 70 72 71 73 86 87 90 87 86 97 97 84 84 93 100 102 102 103 103 101 95 89 86 84 83 82 79 78 78 78 77 77 78 77 78 78 78 77 78 78 78 78 78 78 78 78 78
87 71 67 71 74 77 86 84 90 93 87 91 95 93 96 99 97 98 97 101 101 100 96 91 88 86 86 86 82 78 78 78 77 78 77 76 80 79 78 79 77 78 78 78 78 78 77 77 77
78 70 70 80 82 81 85 85 87 83 83 84 88 94 97 100 97 96 94 92 98 97 97 94 87 87 88 92 83 81 82 81 80 81 79 81 81 80 83 81 78 77 77 77 77 77 77 77 77
78 71 79 81 86 87 84 83 86 81 77 84 83 89 94 96 96 96 97 96 95 98 98 95 86 85 88 89 83 84 84 83 82 82 81 80 83 82 83 78 78 76 77 77 77 76 76 77 78
73 79 80 83 87 84 80 83 80 82 81 87 90 90 91 90 90 90 91 94 92 82 96 95 90 86 84 90 85 85 86 84 83 84 82 80 82 80 79 80 79 77 77 77 76 78 76 76 79
76 79 82 84 85 83 83 79 79 79 86 89 90 89 87 87 87 89 90 92 94 92 76 82 89 86 85 84 87 85 85 84 84 83 83 83 81 80 81 80 81 79 80 78 77 78 78 78 81
81 80 81 83 82 82 79 79 80 81 85 85 86 85 87 87 87 88 88 89 89 91 90 80 86 84 85 84 85 83 84 84 83 84 83 83 81 80 81 79 80 80 80 81 79 79 79 79 80
82 74 78 79 80 78 82 74 75 83 84 82 84 86 87 88 90 87 88 87 89 92 92 90 87 85 83 82 84 84 85 85 83 83 82 81 81 80 80 80 79 80 80 80 78 79 79 78 81
74 74 65 77 79 80 78 65 79 86 83 79 81 83 85 87 89 88 90 87 91 89 86 88 94 86 83 81 83 84 85 86 85 85 83 81 81 80 79 81 81 81 80 80 79 78 77 77 77
70 61 66 71 82 79 76 68 79 85 81 78 79 78 82 84 86 85 88 88 90 88 86 84 85 88 83 82 82 82 82 83 84 84 84 81 82 81 79 79 79 78 79 78 79 77 76 75 76
63 64 69 69 77 77 73 72 79 83 82 80 80 80 79 79 81 86 87 87 87 86 87 83 83 86 83 83 82 83 83 83 84 84 83 82 80 81 79 79 78 79 78 78 78 76 77 76 76
71 68 67 73 79 74 72 72 76 81 81 80 80 81 81 80 81 83 84 86 87 86 85 83 80 83 83 79 77 80 79 81 82 83 83 82 80 80 79 79 78 79 78 76 76 77 75 76 77
70 65 65 71 76 73 70 69 75 78 79 80 80 80 82 83 82 81 80 81 82 82 83 80 80 80 81 80 79 81 81 83 83 84 83 83 81 80 79 78 79 78 79 77 77 76 77 75 76
67 64 65 65 72 74 69 65 69 76 79 81 82 83 83 82 82 84 84 78 77 79 79 79 77 79 78 81 78 77 77 76 75 80 82 83 83 81 79 78 78 78 80 79 77 76 75 74 75
61 72 70 67 64 56 70 53 65 72 75 79 81 82 83 83 83 83 84 81 80 80 80 77 77 76 78 77 76 77 77 76 79 81 83 83 83 81 79 79 78 76 78 77 77 78 77 74 73
65 73 68 66 62 60 61 57 64 73 70 75 75 77 76 78 79 80 81 81 82 82 81 82 82 79 78 77 74 73 73 74 75 75 78 81 79 79 80 79 78 76 79 78 78 77 76 77 74
73 68 66 65 61 50 59 59 61 67 70 72 74 75 75 77 77 78 80 80 79 81 81 79 77 77 77 78 77 73 73 74 73 73 73 74 75 77 79 81 79 79 78 78 78 76 77 77 76
69 61 49 48 48 47 64 56 62 71 73 73 72 74 75 76 76 76 76 77 77 77 77 78 76 74 76 76 75 76 74 75 74 74 73 73 73 74 78 78 78 79 78 79 78 77 76 76 75
64 61 50 39 43 49 62 53 61 74 76 74 74 74 75 75 76 75 76 76 77 77 76 76 75 74 75 75 74 74 74 77 78 75 76 73 74 74 77 78 79 78 79 78 78 77 77 76 75
61 56 63 52 55 48 54 61 70 74 70 70 70 71 72 74 74 75 77 76 76 75 74 74 74 74 74 74 74 73 74 73 77 77 76 77 77 79 77 78 77 78 78 78 77 77 76 76 75
63 67 51 54 38 38 50 53 57 62 65 69 70 71 72 75 76 76 73 75 76 75 75 73 72 72 74 74 74 76 74 74 76 76 75 75 77 80 79 79 77 78 78 78 76 74 75 74 75
59 56 57 55 50 39 39 48 67 63 66 66 69 71 73 75 75 74 74 75 75 76 76 72 72 72 72 73 74 73 72 75 74 73 76 76 76 79 80 80 79 76 77 76 75 74 75 73 73
64 59 58 44 43 49 46 47 67 68 69 70 70 73 73 72 73 74 74 74 74 74 73 73 72 72 73 74 73 72 71 73 70 71 75 75 76 79 80 67 70 78 73 69 73 73 75 74 74

GFSSGP_sfc_temp_087.txt.gz
Temp
77 85 86 77 59 58 55 64 76 77 80 85 88 87 81 82 79 67 86 86 83 79 79 80 79 80 80 79 79 79 79 79 79 79 79 79 79 79 79 79 79 80 80 81 81 81 81 81 81
79 85 79 70 55 48 57 72 72 80 87 87 87 88 85 79 91 86 83 85 83 79 78 79 80 79 80 79 79 78 79 79 79 79 79 79 79 79 79 79 79 80 80 81 81 81 81 80 80
79 83 65 59 54 52 59 74 79 86 90 88 85 93 86 83 90 88 86 85 82 79 79 79 79 79 79 79 78 78 78 79 79 79 79 78 78 78 78 79 79 80 81 81 81 80 80 80 79
77 70 66 54 53 63 68 76 82 85 87 90 90 81 87 92 90 91 89 87 82 82 80 79 79 79 79 79 79 78 78 78 79 79 78 78 78 78 78 78 79 80 81 81 80 79 79 79 79
72 65 53 51 57 66 74 81 84 81 85 85 87 80 80 90 93 92 89 88 84 81 78 78 79 79 79 79 79 78 78 78 78 78 78 78 78 78 78 78 79 79 80 80 79 79 78 78 78
61 62 48 51 58 68 76 82 83 82 83 84 84 81 78 89 90 91 91 88 88 79 78 78 79 79 79 79 79 78 78 78 78 78 78 78 77 77 78 78 78 79 79 79 79 78 78 77 77
56 56 52 54 59 65 74 84 82 79 79 82 86 77 76 85 91 92 91 91 86 83 78 78 78 79 79 78 78 78 77 77 77 77 77 77 77 77 77 77 78 78 78 78 78 77 77 77 78
64 58 55 60 59 61 76 81 83 83 81 90 91 75 70 79 90 90 88 88 84 83 80 77 76 77 77 77 78 78 77 77 77 77 77 77 77 77 77 76 77 77 77 77 77 77 77 77 77
70 56 53 58 61 67 76 74 83 87 83 86 87 84 85 89 91 86 85 79 85 85 81 79 77 77 77 76 78 77 78 77 77 77 77 76 75 75 76 76 77 77 77 77 77 77 77 77 77
59 53 58 67 70 69 74 78 80 80 80 79 83 88 91 90 84 86 84 78 78 81 81 81 79 78 79 83 77 79 80 76 76 76 75 75 74 73 77 76 77 77 77 77 77 77 77 77 70
63 57 67 71 75 77 77 78 83 79 72 77 78 83 86 86 83 82 82 80 76 74 71 76 80 81 81 82 76 77 78 77 75 75 74 74 76 76 76 73 75 71 75 71 73 72 71 70 69
57 68 71 73 77 76 73 76 73 75 73 81 83 84 83 82 84 84 81 82 78 72 73 73 74 79 83 80 77 77 77 76 76 76 75 75 74 75 72 72 70 69 69 68 68 67 68 69 72
62 68 73 76 76 73 78 70 68 72 80 81 83 83 82 80 79 82 83 83 82 74 71 70 72 74 73 77 81 80 79 78 78 78 77 76 74 72 74 74 73 72 70 70 68 68 70 70 72
69 70 72 72 72 73 68 70 68 73 81 81 80 78 79 81 81 81 82 79 82 79 75 74 74 73 72 70 75 80 82 80 80 79 79 78 78 76 77 74 75 74 74 73 71 72 70 71 72
73 65 70 71 69 67 70 65 66 74 77 77 77 79 80 81 82 80 81 80 81 83 75 74 73 74 69 69 78 81 74 82 81 80 79 79 78 75 77 76 76 76 75 73 71 71 72 71 74
64 61 50 63 69 72 68 55 70 75 72 71 75 77 78 77 80 79 81 79 80 76 74 74 79 74 74 78 83 83 81 81 83 82 81 80 80 80 78 80 78 76 76 76 76 74 70 71 71
57 48 53 59 71 70 64 58 70 74 72 69 70 72 76 76 77 78 81 79 79 80 80 76 76 72 75 82 83 81 79 80 82 82 79 79 79 79 77 80 80 77 79 77 76 75 72 69 70
49 51 56 59 68 70 62 61 68 71 72 70 68 70 71 72 75 78 79 80 77 77 77 77 76 76 78 79 79 77 77 77 77 81 81 77 79 77 74 77 75 76 78 78 79 77 74 72 72
62 60 58 65 73 67 61 60 65 68 66 65 66 69 69 70 76 76 77 79 75 76 77 77 76 72 73 71 74 72 75 77 79 77 78 76 76 79 74 75 72 73 78 72 75 73 73 70 71
64 57 55 62 69 62 60 59 63 67 67 67 68 68 69 70 73 74 74 74 74 74 72 74 76 75 73 72 73 73 73 73 79 78 77 78 77 79 79 79 78 76 76 73 74 77 73 76 75
59 55 56 57 64 63 59 54 59 67 68 71 71 71 71 70 68 70 71 70 70 70 69 69 71 74 72 71 72 71 72 71 71 72 79 80 79 77 77 78 78 78 79 77 76 77 77 74 71
53 65 65 63 54 44 59 39 54 61 63 68 72 63 65 66 67 68 68 68 70 69 71 72 72 70 72 70 69 71 69 69 72 72 74 76 77 77 75 75 77 78 77 79 78 78 77 77 73
60 66 62 60 52 48 52 43 51 59 60 62 62 65 63 64 66 66 66 67 68 69 68 67 68 68 70 71 69 65 66 68 69 70 70 72 74 74 77 75 77 77 75 78 77 77 75 77 76
71 61 58 53 48 38 50 48 49 57 60 61 63 65 66 66 66 66 67 67 66 67 67 66 66 66 67 67 68 67 66 67 66 68 69 70 76 73 75 76 74 72 71 73 76 74 76 76 77
62 50 36 33 34 38 52 45 50 62 65 66 62 63 65 65 63 64 63 65 66 66 66 66 65 65 66 66 66 66 65 65 65 67 68 68 72 72 72 74 72 69 70 72 77 77 76 76 75
57 53 36 31 31 38 54 45 53 65 65 65 65 64 65 63 63 64 65 65 64 65 64 64 64 63 64 65 65 65 65 64 66 69 72 68 69 75 74 71 73 70 69 71 71 78 76 77 77
56 50 57 43 45 35 45 54 61 63 61 63 62 63 59 61 62 64 60 64 63 63 63 63 63 63 63 63 63 63 64 64 66 68 71 73 71 74 75 72 73 72 71 72 74 71 73 76 75
58 61 42 42 32 29 43 47 47 52 55 59 58 57 59 61 62 62 62 63 64 63 65 64 63 62 63 63 62 66 64 64 64 64 65 69 71 72 74 76 73 75 75 75 74 73 73 72 72
53 49 51 44 38 30 30 39 55 53 53 53 57 59 57 58 59 61 61 61 62 62 62 62 61 61 62 62 62 63 66 63 63 62 63 66 68 71 74 74 74 72 74 73 72 71 72 72 72
60 53 51 36 35 39 33 39 58 55 57 59 56 58 57 57 57 59 59 61 61 60 61 62 61 62 63 63 62 62 62 61 61 60 61 63 64 70 74 74 73 72 72 65 66 71 73 66 71

GFSSGP_sfc_temp_090.txt.gz
Temp
74 78 77 73 58 53 50 59 69 70 73 80 83 81 77 78 76 68 80 84 80 78 78 80 79 80 79 79 79 78 78 78 78 78 78 78 78 79 79 79 79 79 80 80 81 81 80 80 80
74 80 74 65 51 44 51 66 68 73 78 84 83 83 79 75 84 78 77 82 80 78 77 79 79 79 79 79 78 78 78 78 78 78 78 78 78 78 78 78 79 80 80 81 81 81 80 80 80
75 78 64 56 48 48 53 69 74 79 82 83 82 87 83 79 84 82 81 82 79 77 77 78 79 79 79 79 78 78 78 78 78 78 78 78 78 78 78 78 79 80 80 81 81 80 80 80 79
72 67 62 50 48 56 64 72 77 80 83 84 81 77 84 88 87 83 83 81 78 77 78 79 79 79 79 79 78 78 78 78 78 78 78 78 78 78 78 78 78 79 80 80 80 79 79 79 78
67 59 49 44 50 58 68 74 78 76 80 81 81 76 77 85 85 83 82 82 78 76 77 78 78 78 79 79 78 78 78 78 78 78 78 78 78 77 78 78 78 79 79 80 79 78 78 78 78
58 57 43 44 52 60 66 72 78 79 82 80 79 77 76 84 83 83 84 81 80 76 76 77 78 78 78 78 78 78 78 78 78 78 78 78 77 77 77 78 78 78 78 79 78 78 77 77 77
53 48 42 47 51 56 65 72 73 77 80 80 80 73 74 80 84 85 84 83 79 78 76 76 77 78 78 78 77 77 77 77 77 77 77 77 77 77 77 77 77 78 77 77 77 77 77 77 77
57 50 43 48 51 53 67 70 73 76 80 89 88 74 70 79 86 84 84 82 78 77 77 75 76 76 75 75 78 77 77 77 76 77 77 76 77 77 77 76 76 77 77 77 77 77 77 77 77
61 46 42 45 52 55 68 64 75 84 84 85 86 81 83 84 84 78 77 76 78 78 74 75 75 76 75 75 77 77 78 77 77 77 77 75 74 74 75 75 76 77 77 77 76 76 76 77 77
53 43 48 58 60 58 66 67 73 75 79 78 78 84 87 86 81 80 74 73 76 75 75 74 76 74 75 80 75 75 76 75 75 75 75 73 73 72 75 75 76 77 77 77 76 76 76 76 69
53 52 58 62 66 68 68 71 77 73 69 78 78 79 82 80 76 78 77 75 73 73 74 76 76 76 75 76 75 76 76 75 74 74 74 72 73 73 73 70 73 70 75 70 73 71 70 69 67
51 61 64 66 69 68 64 74 71 71 76 83 86 81 79 78 79 74 78 75 73 74 74 73 73 73 75 75 74 75 78 76 76 75 73 72 72 71 71 71 71 69 68 67 67 66 67 67 68
55 62 66 68 69 69 71 70 72 69 76 80 83 78 80 77 78 79 78 78 73 71 72 70 71 71 72 73 69 71 73 74 76 74 74 74 73 72 72 72 70 70 68 68 66 65 66 66 67
62 64 66 68 67 67 69 70 68 73 74 75 78 78 79 79 78 75 76 77 75 74 72 68 71 74 73 70 67 68 69 75 75 76 75 75 75 74 73 72 71 70 69 70 69 68 67 66 67
66 58 64 67 65 64 71 64 64 71 72 73 76 77 78 76 78 77 75 75 78 74 73 71 73 76 76 73 72 70 70 75 76 77 77 76 76 76 75 74 73 73 72 71 66 66 65 66 68
58 55 48 59 65 68 66 57 67 71 68 67 71 75 76 75 76 75 76 75 76 75 72 72 78 75 74 75 73 77 78 79 80 80 78 77 77 77 76 75 74 75 73 71 70 70 69 70 68
50 45 48 56 63 62 61 56 67 70 68 66 66 70 73 73 74 74 76 76 77 72 71 72 72 69 72 75 76 76 79 74 78 77 79 78 78 77 76 77 77 75 73 72 72 71 72 72 72
45 47 52 53 66 66 61 60 65 66 68 67 64 68 69 71 73 76 76 76 76 73 72 73 73 71 67 68 69 75 73 76 78 74 74 76 78 78 76 77 76 72 74 73 72 69 71 72 73
55 53 51 58 66 61 58 62 63 63 63 63 62 64 65 67 73 71 73 73 71 72 72 71 71 71 67 66 71 71 71 70 71 71 73 73 73 77 77 77 76 71 73 73 71 71 70 69 69
57 54 53 58 65 59 59 59 63 63 64 64 65 63 63 65 67 69 67 68 67 68 70 69 69 69 71 71 72 72 71 71 75 73 72 71 72 74 76 76 77 75 76 74 71 70 69 72 69
56 53 53 54 60 58 55 51 55 63 64 67 64 64 64 62 62 65 66 64 66 65 66 67 67 67 68 69 70 70 71 69 70 69 73 74 75 75 73 73 73 76 77 77 75 75 75 74 70
51 62 60 57 50 43 54 38 49 57 59 60 61 58 60 62 62 64 63 62 64 64 65 65 66 67 67 66 64 65 66 66 67 69 69 70 72 73 73 71 70 73 71 75 77 76 76 77 73
57 63 59 56 48 43 48 40 46 54 52 55 57 59 58 60 61 61 62 64 64 65 64 64 66 66 67 66 65 62 63 63 66 67 67 68 70 70 74 72 71 70 69 69 71 76 75 78 77
66 60 54 49 44 36 44 44 42 49 53 55 57 60 62 61 62 62 62 63 63 63 62 63 64 63 64 65 65 65 63 62 60 62 63 65 68 69 70 74 71 71 69 68 69 69 69 71 75
58 47 34 34 34 34 47 43 45 55 60 59 58 60 62 62 62 62 64 63 62 61 62 62 62 62 62 63 63 63 62 62 61 62 61 63 65 69 68 69 70 71 71 70 69 68 67 67 68
52 47 36 31 31 38 49 42 48 61 63 61 62 61 61 59 60 61 62 60 60 61 61 61 61 61 61 61 62 61 61 60 61 62 63 60 61 67 68 67 70 71 73 69 67 62 62 62 64
52 46 53 42 44 36 44 50 56 59 59 59 59 59 57 56 57 57 58 58 59 58 58 57 58 60 60 60 59 59 60 60 60 60 61 62 62 67 66 67 68 70 71 69 67 64 62 63 65
55 60 39 39 31 30 42 46 46 50 53 58 56 51 51 52 54 54 55 56 56 56 55 57 57 57 57 57 58 61 59 60 60 59 59 60 61 62 63 66 66 68 70 68 66 64 64 65 67
48 48 48 43 39 28 31 40 54 53 51 47 48 50 49 50 50 52 53 54 54 54 54 55 55 55 57 59 58 57 58 59 60 57 58 59 60 60 61 63 64 66 69 68 64 63 65 66 69
53 51 49 36 34 34 31 37 58 52 51 49 48 50 49 49 51 52 53 53 53 53 55 55 55 56 58 59 56 56 56 56 55 55 58 58 58 59 61 62 63 65 67 69 67 68 69 69 68

GFSSGP_sfc_temp_093.txt.gz
Temp
70 74 73 71 57 51 48 56 63 66 71 73 76 76 75 75 75 67 77 81 78 77 79 80 79 79 80 79 79 79 78 79 79 79 79 79 79 79 79 79 79 79 80 80 80 80 80 81 80
70 76 71 61 50 43 50 62 66 70 74 77 79 80 76 73 80 76 76 80 79 77 77 79 79 79 79 79 78 78 78 78 78 78 79 79 79 79 79 79 79 80 80 81 81 81 80 80 80
71 73 62 55 45 46 52 67 70 74 79 75 76 82 80 76 79 78 79 80 78 77 79 78 79 79 79 79 78 78 78 78 78 78 78 78 78 78 78 78 79 80 80 81 81 80 80 80 79
71 65 59 48 46 50 59 67 72 73 78 79 80 75 82 84 83 82 80 79 76 78 79 79 79 79 79 79 78 78 78 78 78 78 78 78 78 78 77 78 78 79 80 81 80 79 79 79 79
65 58 47 43 45 52 63 69 71 70 76 77 76 73 75 80 81 80 79 79 75 74 76 78 78 78 78 79 78 78 78 78 78 78 78 78 78 77 77 78 78 79 80 80 79 79 78 78 78
56 54 41 42 50 56 61 66 69 69 75 78 75 73 72 80 79 78 80 78 78 75 76 78 78 78 78 78 78 78 77 78 78 78 78 78 77 77 77 78 78 78 79 79 79 78 77 77 77
52 46 40 41 47 53 61 66 65 68 71 73 78 70 74 77 79 81 79 78 77 77 77 77 77 77 78 77 77 77 77 77 77 77 77 77 77 77 77 77 77 77 77 77 77 77 77 77 77
54 48 39 45 47 48 62 66 68 68 72 85 85 72 68 76 81 78 77 75 74 76 77 75 75 75 75 75 77 77 77 77 76 77 76 76 77 77 77 76 76 77 77 77 77 77 77 77 77
57 44 37 43 48 50 62 61 68 76 75 77 82 80 79 78 79 75 74 73 74 75 76 77 75 74 74 74 76 77 78 77 77 76 76 75 73 74 75 75 76 77 77 77 77 77 76 76 77
51 40 45 52 55 53 59 61 64 69 71 71 75 82 84 80 76 73 72 71 72 72 74 76 77 76 74 78 74 73 75 74 74 74 74 72 72 71 74 74 76 77 77 77 77 76 76 76 68
50 46 53 57 60 60 61 63 67 67 65 72 72 79 79 79 76 73 73 73 73 73 74 75 77 78 74 75 75 75 74 75 73 73 73 71 72 71 72 70 72 71 74 69 72 70 69 68 66
46 56 57 63 62 60 59 64 65 66 68 77 79 81 79 70 74 73 71 74 71 73 75 74 75 75 74 75 74 74 74 74 74 76 74 71 70 70 70 70 70 70 69 68 67 66 66 66 67
50 56 60 63 61 60 64 62 64 66 75 77 76 82 77 77 77 75 73 72 72 71 73 73 75 75 75 74 74 74 74 73 75 76 76 73 72 71 71 71 70 69 68 68 67 66 66 65 66
59 59 62 64 61 60 61 64 64 68 77 75 75 77 83 83 83 79 75 72 71 73 73 72 73 71 74 74 73 74 74 74 74 76 75 73 74 73 72 72 70 69 68 69 67 66 65 65 64
62 54 58 60 61 59 64 58 61 71 72 70 72 73 75 76 80 76 76 76 73 73 73 72 72 71 73 72 73 73 75 76 75 75 75 74 74 74 74 72 71 71 69 66 64 64 63 63 65
53 51 45 57 59 62 63 51 63 68 70 67 68 70 71 74 77 76 75 76 73 71 70 72 75 73 73 73 74 77 72 70 74 76 76 75 75 75 74 73 72 72 69 67 66 65 66 67 66
46 42 45 53 59 59 57 53 63 68 65 66 66 66 68 70 73 74 76 76 72 73 69 67 71 72 74 76 72 70 71 69 71 76 76 76 76 76 75 74 74 72 72 69 69 68 65 64 65
42 43 48 49 58 58 55 55 63 65 64 63 64 64 64 67 71 74 72 75 70 68 69 68 70 69 69 69 67 69 70 71 72 71 72 75 76 76 75 76 75 74 73 71 70 69 66 66 68
52 49 48 55 61 54 55 54 57 60 62 62 62 62 61 63 67 67 69 71 70 68 68 66 66 65 65 64 64 66 68 70 70 70 73 71 72 75 73 72 72 72 73 73 70 69 69 68 67
52 49 49 54 59 55 55 56 57 58 59 61 63 62 62 59 61 64 64 64 64 65 67 68 68 67 66 64 65 67 68 70 71 70 70 71 71 72 72 72 71 69 68 71 71 71 71 71 68
52 48 49 50 56 55 52 50 52 59 62 64 63 62 62 63 62 62 63 61 63 62 63 65 66 66 67 69 68 69 68 68 68 68 69 70 70 71 71 71 71 69 68 68 68 70 72 72 69
48 58 57 56 49 42 51 37 47 54 56 56 55 54 55 57 58 60 60 59 61 61 63 63 63 64 64 64 62 64 64 64 66 66 68 68 70 71 71 70 70 70 70 68 68 68 68 69 73
53 59 57 54 45 43 44 39 45 50 51 52 53 56 56 58 59 59 60 62 61 62 62 62 61 62 62 63 63 61 61 61 63 63 64 64 66 69 70 70 70 70 70 70 69 69 68 67 67
62 55 50 45 43 35 41 41 41 46 50 51 54 55 58 58 59 60 60 60 60 60 60 61 61 61 61 62 61 62 62 61 58 60 61 61 64 65 67 69 68 69 69 69 69 68 69 67 67
55 45 36 33 34 33 44 41 43 52 55 56 55 56 56 58 58 58 56 57 58 57 57 60 57 57 58 59 61 62 62 61 59 60 58 59 61 62 64 65 66 66 68 69 69 68 68 68 66
49 46 34 30 31 35 45 37 45 55 58 60 58 52 53 53 53 53 53 53 55 55 55 55 56 55 56 57 57 57 56 57 57 59 61 59 59 61 62 63 64 66 67 68 68 68 68 68 65
52 41 46 38 39 30 40 44 52 56 58 54 52 52 49 49 50 52 53 53 53 53 53 53 53 53 54 54 54 55 56 56 57 57 57 60 59 63 61 62 62 63 65 66 67 67 67 67 66
53 55 40 37 30 27 38 41 42 47 44 48 47 46 48 48 49 50 51 51 51 50 50 51 51 52 53 53 53 56 55 55 55 55 54 56 59 59 61 61 61 60 61 63 65 66 67 65 65
47 43 40 39 36 28 29 38 47 43 44 44 45 47 46 47 48 48 49 50 49 49 50 52 53 52 53 53 54 53 52 53 54 52 53 54 55 58 60 59 59 60 60 61 62 64 66 66 65
48 48 42 31 33 32 29 35 47 45 46 46 46 48 47 47 47 47 47 48 50 51 52 52 52 52 53 53 53 53 54 55 54 52 52 53 53 56 58 59 60 61 61 61 62 63 64 64 63

GFSSGP_sfc_temp_096.txt.gz
Temp
66 71 71 69 57 52 47 56 60 65 67 72 74 71 72 71 72 64 74 78 77 76 77 78 79 79 79 79 79 79 79 79 79 79 79 79 79 79 78 78 79 79 80 80 81 81 81 80 80
68 72 69 60 49 44 51 60 60 64 69 74 74 76 73 71 78 74 73 77 77 76 76 77 79 79 79 79 78 78 78 78 78 78 79 79 78 78 78 78 79 80 80 81 81 81 81 80 80
69 70 62 54 45 47 51 64 64 68 74 73 73 79 77 74 78 76 78 78 77 76 76 77 79 79 79 79 78 78 78 78 78 78 78 78 78 78 78 78 79 80 81 81 81 81 80 80 80
67 63 58 48 47 52 57 64 64 68 73 74 74 72 79 80 79 80 78 78 77 76 77 79 78 78 78 79 78 78 78 78 78 78 78 78 78 78 78 78 78 79 80 81 80 80 79 79 79
64 55 44 39 46 53 61 66 66 65 68 72 74 72 73 77 79 78 77 78 76 77 79 78 78 78 78 79 78 78 78 78 78 78 78 78 78 77 77 78 78 79 80 80 80 78 78 78 78
55 53 41 39 46 55 61 63 64 64 68 72 72 72 72 77 76 77 78 75 77 77 79 80 79 78 78 78 78 78 77 77 78 78 78 78 77 77 77 78 78 78 79 79 79 78 77 77 77
51 45 39 41 47 51 59 64 61 64 65 69 72 69 72 74 77 78 76 75 76 78 79 79 79 78 78 77 77 77 77 77 77 77 77 77 77 77 77 77 77 77 78 78 78 77 77 77 77
51 47 39 44 45 48 60 63 65 64 67 77 78 67 66 70 77 75 74 74 75 78 79 77 77 77 75 75 77 77 77 76 76 76 76 76 77 76 76 76 76 77 77 77 77 77 77 77 76
54 42 38 44 46 50 57 55 63 71 69 72 75 75 75 75 76 72 72 72 75 77 77 77 76 75 75 74 76 77 78 77 76 76 76 75 74 75 76 75 76 76 76 76 76 76 76 76 76
48 40 44 50 51 51 54 58 59 63 65 65 71 77 78 75 73 71 70 70 71 73 75 76 77 76 74 76 74 74 75 74 74 74 74 73 72 72 74 75 76 76 76 76 76 76 76 77 73
45 45 49 53 56 57 58 56 61 61 59 65 67 76 78 74 71 70 71 71 71 73 74 76 75 75 73 75 75 76 74 74 73 73 73 72 72 72 73 72 73 73 76 73 74 73 73 71 70
44 53 55 55 58 57 54 58 59 61 64 72 71 74 77 73 70 70 70 71 70 71 73 75 74 74 74 74 74 74 75 74 75 74 73 72 71 71 72 71 71 71 71 70 70 70 69 69 69
47 54 57 59 58 57 58 58 58 60 68 72 72 75 75 72 73 75 74 72 71 71 72 73 74 74 74 74 73 73 73 73 74 74 74 73 73 71 72 72 71 71 70 70 68 68 68 68 68
56 56 57 57 57 56 57 57 60 64 69 69 70 72 76 78 76 74 74 72 71 73 72 73 73 74 75 74 73 74 74 74 74 75 75 74 74 73 72 72 72 71 70 70 68 67 67 67 67
58 52 56 56 54 55 59 55 56 68 68 67 69 71 73 76 82 82 80 72 70 71 73 72 74 74 74 74 74 75 75 76 75 75 75 75 74 73 73 73 72 72 70 69 68 67 66 65 67
50 49 43 54 56 58 59 49 61 65 63 65 68 68 70 71 74 75 78 76 72 72 71 73 75 73 73 75 73 74 73 72 74 74 75 75 74 74 73 73 72 72 69 69 68 67 66 65 66
45 39 41 51 55 55 53 52 61 65 62 62 62 65 67 68 69 72 77 80 78 72 70 69 71 71 72 72 71 71 71 70 72 73 74 74 74 74 73 73 73 71 71 69 69 67 68 67 65
39 40 44 46 54 54 51 52 59 60 62 63 63 62 63 64 65 69 72 78 73 70 68 67 67 69 70 69 68 69 68 71 71 71 73 74 75 75 73 74 73 70 70 69 69 69 67 68 69
48 45 45 51 58 52 51 51 56 58 56 58 60 61 62 59 65 66 68 70 69 68 67 66 66 67 67 66 65 65 68 69 70 70 72 73 73 74 73 72 72 70 69 69 68 68 67 68 67
49 45 45 51 56 53 52 53 54 55 56 56 58 59 60 60 63 64 64 63 66 67 67 66 66 65 65 65 66 67 67 67 70 71 71 72 72 72 72 71 70 69 68 68 68 67 67 66 65
48 45 46 48 53 52 49 48 50 55 57 59 58 56 57 57 60 60 60 59 61 62 62 64 64 66 67 66 66 68 68 69 68 69 69 70 71 71 71 72 69 69 69 68 69 67 66 65 66
44 54 54 51 46 39 48 36 46 49 52 53 53 53 53 54 56 58 58 58 59 61 62 62 63 63 64 65 65 66 66 66 66 66 68 68 70 70 71 71 71 70 68 67 68 69 67 66 65
51 57 53 50 44 39 42 38 44 48 50 50 52 54 54 55 56 57 58 59 58 59 58 58 60 60 60 62 62 61 63 61 62 62 64 63 66 69 70 71 70 70 69 69 70 69 68 67 67
60 54 48 44 40 33 39 39 39 44 48 50 52 54 54 55 54 54 55 56 55 56 56 56 56 54 56 57 57 57 58 59 58 60 59 60 63 64 66 69 69 69 69 69 69 69 69 68 67
54 45 35 32 31 33 42 38 42 50 53 54 53 50 50 51 51 51 52 52 53 52 52 56 53 53 54 54 55 55 54 55 55 55 56 56 60 62 63 65 65 66 68 69 69 68 68 68 68
48 46 35 29 29 33 43 35 43 52 51 51 50 49 50 49 49 50 50 50 51 51 51 52 52 52 53 53 53 54 54 54 54 55 56 58 59 61 61 62 64 65 67 68 68 68 68 69 68
48 44 48 39 36 30 36 42 50 49 48 49 49 49 47 48 48 49 49 49 49 50 50 50 50 51 51 52 51 52 53 53 53 53 54 56 57 61 62 62 62 64 65 66 66 66 67 68 68
50 52 38 37 30 26 34 37 38 43 43 46 45 46 47 47 48 48 49 49 49 49 49 49 49 49 50 50 50 53 52 53 53 54 53 54 56 57 58 60 61 62 62 63 63 64 66 66 67
44 41 40 38 32 29 27 33 44 45 44 43 44 46 45 46 47 47 47 48 49 48 48 48 49 49 49 50 50 49 51 52 52 52 52 53 54 55 57 59 60 61 61 61 60 61 64 65 65
46 43 40 32 32 28 26 31 45 43 43 44 44 45 45 45 47 47 46 47 47 48 48 48 49 50 51 50 50 50 51 50 50 50 51 52 52 54 56 57 58 60 60 61 61 61 63 63 64

GFSSGP_sfc_temp_099.txt.gz
Temp
78 82 86 86 73 70 64 69 74 74 76 84 85 81 82 84 80 77 85 87 87 87 86 84 79 80 80 80 80 79 79 79 80 79 79 79 79 79 79 79 79 80 80 81 81 81 81 80 80
81 82 85 78 67 62 65 71 71 74 80 84 86 84 83 80 86 85 84 84 87 85 85 85 79 79 80 79 79 79 79 79 79 79 79 79 79 79 79 79 79 80 80 81 81 81 81 80 80
80 80 79 73 66 62 64 71 72 75 83 82 82 86 84 81 86 85 86 84 86 84 85 84 79 79 79 79 78 78 78 78 79 79 79 79 78 78 78 79 79 80 81 81 81 81 80 80 80
82 82 74 64 63 67 66 70 72 76 80 83 83 79 88 84 83 86 85 86 85 85 87 81 79 79 79 79 79 78 78 78 78 79 79 78 78 78 78 78 79 80 81 81 81 80 79 79 79
79 75 65 60 60 63 67 72 75 74 77 79 82 79 82 82 83 84 84 86 86 86 86 85 78 78 79 79 79 78 78 78 78 78 78 78 78 78 78 78 79 80 80 80 80 79 78 78 79
71 71 61 60 61 63 67 72 74 75 78 79 80 80 82 84 82 82 86 86 89 87 87 85 79 78 78 78 78 78 78 78 78 78 78 78 78 78 78 78 78 79 79 79 79 78 78 78 78
69 66 61 58 59 60 68 74 73 75 75 77 84 77 84 83 82 84 84 85 87 88 87 86 86 82 78 78 77 77 77 77 77 77 77 77 77 77 77 77 78 78 78 78 78 78 77 77 77
68 68 57 60 60 61 69 71 75 75 75 84 85 77 79 83 83 83 84 85 85 87 87 87 85 87 85 85 77 77 77 77 76 76 77 77 77 77 77 76 77 77 77 77 77 77 77 77 77
67 61 59 61 58 65 69 68 73 78 75 78 82 83 87 84 83 78 80 83 85 83 83 84 84 84 85 87 83 78 78 77 76 78 77 77 86 84 83 81 77 77 77 77 77 77 77 77 77
66 60 62 66 67 67 69 69 71 70 72 73 77 85 84 82 82 81 78 77 81 79 79 80 79 83 84 85 84 84 85 85 84 84 82 85 84 84 85 82 76 77 77 77 77 76 76 77 87
62 61 63 66 67 69 71 68 72 69 67 73 74 81 85 83 81 82 84 82 78 78 78 79 78 80 83 85 84 84 85 84 84 83 83 83 83 84 84 85 84 84 79 84 82 83 84 85 84
60 64 65 68 68 67 66 70 68 71 73 80 80 82 82 83 85 83 83 84 82 81 79 79 79 79 80 83 84 85 85 84 84 84 82 82 82 81 82 84 85 82 85 84 83 85 83 82 82
60 65 67 69 69 69 70 68 69 70 78 82 81 80 81 83 84 82 84 84 83 82 81 81 80 79 80 80 78 81 83 84 85 85 84 84 84 82 83 83 84 84 85 84 83 83 82 82 81
67 67 69 69 69 68 66 68 67 75 80 79 78 80 83 82 81 84 84 84 82 83 83 83 81 80 80 79 79 79 79 82 82 84 84 82 83 82 83 82 83 84 85 85 84 83 82 82 82
67 62 67 69 70 68 69 64 65 78 79 75 77 80 82 81 83 84 85 85 84 84 84 82 81 81 79 79 80 80 80 82 79 81 81 82 81 80 80 81 81 83 83 80 80 80 80 80 82
62 62 59 68 67 66 67 63 73 78 74 75 78 80 80 84 82 87 89 83 81 85 83 84 84 82 80 80 81 80 81 81 80 81 80 78 78 78 79 80 80 80 80 82 81 81 81 81 81
58 56 57 62 68 67 66 63 74 77 73 74 76 78 80 82 80 82 87 89 84 83 81 81 82 81 79 79 80 78 75 77 79 79 80 78 79 81 79 79 79 79 81 81 80 80 79 79 80
54 55 56 57 65 67 65 64 71 74 71 74 77 78 78 78 80 81 83 86 83 81 75 76 80 78 77 78 78 78 80 76 76 78 78 79 80 78 79 81 79 77 77 77 75 76 79 75 76
58 56 55 61 66 62 64 64 70 72 72 71 71 75 75 75 79 78 81 83 82 77 74 73 72 73 75 76 75 76 78 76 75 74 77 80 80 81 79 79 79 76 75 74 72 73 68 71 71
57 55 56 61 64 62 63 64 67 69 69 68 71 73 74 74 75 75 76 78 78 74 73 72 71 73 75 75 76 78 78 79 82 81 77 78 81 81 79 78 76 75 74 72 72 67 66 69 70
57 55 55 56 61 64 61 60 63 68 69 69 69 68 68 69 71 70 71 71 73 72 72 70 71 71 73 74 73 73 76 77 78 79 80 80 80 79 79 78 75 75 70 69 68 69 69 66 67
53 62 60 58 55 53 60 51 60 63 64 65 65 66 66 68 70 70 70 68 68 68 70 69 67 66 67 70 74 73 72 73 77 78 79 79 78 77 77 76 76 76 77 75 75 75 71 69 66
58 63 60 59 56 55 55 54 61 61 60 60 62 63 64 65 66 65 65 66 66 67 66 66 66 64 65 64 66 70 68 70 72 74 71 73 75 77 79 78 78 76 77 76 75 74 71 70 69
65 60 57 56 55 48 56 55 57 62 60 60 62 62 62 63 64 64 65 66 66 67 68 67 66 64 64 65 64 63 63 64 66 67 69 72 73 74 73 76 76 77 77 76 76 75 74 73 72
62 57 48 45 45 46 53 51 58 61 63 65 61 60 61 62 63 64 64 64 64 64 65 66 64 64 64 64 63 63 62 62 63 64 67 65 70 71 70 69 70 74 75 76 76 76 75 75 73
58 58 49 37 41 47 51 48 56 58 60 62 61 60 61 61 62 62 61 63 64 63 63 64 63 62 63 63 62 63 62 65 65 65 64 65 66 68 67 68 69 70 72 74 76 77 77 76 76
55 53 57 48 47 46 52 53 55 57 56 57 57 58 58 59 60 60 62 62 62 62 62 61 61 62 62 61 61 61 62 60 60 60 61 64 64 66 66 66 66 68 69 71 72 75 75 75 75
59 60 48 51 36 36 47 49 54 52 53 56 56 57 57 59 60 60 61 61 61 61 62 61 60 60 60 60 61 61 60 60 60 60 59 59 60 61 62 63 64 65 67 69 69 72 73 73 75
53 52 51 51 47 40 40 48 56 58 58 56 56 56 57 58 58 60 61 62 62 62 61 60 60 59 59 60 59 59 58 58 58 58 58 58 58 59 59 60 61 63 64 66 66 67 70 70 71
57 55 55 45 42 45 43 47 54 55 57 57 55 56 57 57 59 60 60 60 60 60 59 58 58 58 59 58 58 57 57 57 57 56 57 57 56 58 58 59 59 60 61 62 64 65 68 68 69

GFSSGP_sfc_temp_102.txt.gz
Temp
83 95 98 94 80 81 77 81 87 84 84 90 93 90 88 92 88 83 96 97 98 98 93 89 80 80 80 80 80 80 80 80 80 79 79 79 79 79 79 79 80 80 81 81 81 81 81 81 81
94 93 95 93 76 73 77 86 81 85 88 91 93 92 91 88 95 96 97 92 97 97 92 92 80 80 80 80 80 79 80 80 79 79 79 79 79 79 79 79 80 80 81 81 81 81 81 81 80
90 93 88 82 77 73 78 84 87 86 89 88 88 93 90 87 94 94 95 95 97 94 93 90 80 80 80 80 79 79 79 79 79 79 79 79 79 79 79 79 80 80 81 81 81 81 81 80 80
91 91 88 75 75 81 82 84 85 85 88 90 90 86 94 95 91 94 95 96 95 94 95 82 79 79 79 79 79 79 79 79 79 79 79 79 79 78 78 79 79 80 81 81 81 80 80 80 80
92 89 77 74 76 83 79 84 87 83 86 88 89 85 89 92 92 92 94 96 95 96 96 89 79 79 79 79 79 79 79 79 79 79 79 79 78 78 78 79 79 80 81 81 80 80 79 79 79
82 85 73 72 77 82 82 84 84 84 87 88 87 88 89 95 92 93 96 98 100 97 95 91 80 79 79 79 79 78 78 78 78 78 79 78 78 78 78 79 79 80 80 80 80 79 79 79 79
79 77 74 77 77 78 80 85 82 84 85 86 91 84 92 94 93 94 95 98 100 99 97 93 91 85 78 78 78 78 77 78 78 77 77 78 78 78 78 78 78 79 79 79 79 79 79 78 78
82 80 74 74 74 75 83 82 84 83 82 91 90 84 86 91 93 94 96 98 100 99 98 96 93 92 91 89 78 78 77 77 77 77 77 77 77 77 78 77 77 78 78 78 78 78 78 78 78
82 73 71 74 73 76 82 79 82 85 82 84 89 89 92 94 93 91 93 95 97 97 97 97 95 93 94 95 87 79 78 78 77 78 77 77 90 87 86 83 78 78 78 78 78 78 77 77 78
76 71 73 81 80 78 80 79 80 77 80 81 83 90 94 93 93 90 89 93 94 93 95 97 92 93 95 97 91 90 90 89 88 88 85 90 91 91 92 87 78 77 77 78 77 77 77 78 93
76 71 79 77 78 79 78 78 82 78 76 82 82 87 91 91 90 91 94 94 95 93 91 92 88 90 93 95 93 93 93 91 90 89 88 89 91 91 91 92 89 87 80 90 85 87 88 90 93
70 77 77 79 78 77 75 79 77 79 81 87 88 90 90 89 91 93 93 94 92 90 89 88 85 86 88 94 94 95 94 93 92 91 88 89 89 89 90 93 93 90 93 90 92 93 90 91 91
71 76 78 79 79 79 79 76 77 79 85 88 89 89 88 90 92 94 95 96 94 91 88 84 86 84 86 83 90 92 92 91 92 91 90 91 90 88 90 91 93 93 95 94 91 92 91 90 89
77 77 77 79 79 79 75 78 76 82 87 86 87 87 90 91 93 93 92 93 92 93 91 92 89 85 87 86 84 85 86 88 90 91 91 87 89 89 90 89 90 91 93 94 93 92 91 91 91
75 70 75 77 79 77 79 73 73 84 86 84 85 88 90 91 93 91 93 93 94 92 91 89 90 89 86 86 86 88 89 89 85 87 85 88 85 85 85 89 89 91 91 88 88 87 89 88 90
70 72 67 78 77 77 76 70 79 84 84 83 85 88 89 90 92 94 96 95 93 95 95 93 96 92 88 87 88 89 90 89 91 88 88 86 85 84 83 86 86 89 88 89 89 89 88 89 89
67 64 67 71 79 76 75 71 79 85 82 82 85 87 88 90 91 93 96 96 95 95 93 89 91 91 90 88 88 88 86 88 90 89 86 85 83 82 82 83 83 84 86 86 87 87 87 86 87
59 61 67 67 73 75 73 73 79 82 81 82 85 87 88 89 91 92 93 96 96 93 91 90 88 86 84 88 87 82 82 85 89 89 86 85 80 77 76 79 81 80 84 86 86 83 86 86 86
67 65 64 69 74 70 71 71 76 80 81 81 83 84 86 87 90 89 89 93 92 90 88 89 84 83 83 85 82 80 75 79 83 87 85 85 84 82 76 76 81 75 80 79 76 77 78 83 83
66 63 64 69 73 71 71 70 76 78 78 78 77 81 85 85 85 82 84 86 86 83 83 82 81 81 81 78 78 81 81 85 80 86 86 85 85 86 83 80 78 81 78 77 77 76 77 77 80
64 63 64 63 68 71 69 66 71 77 78 78 77 78 80 82 80 80 81 81 82 80 79 79 80 79 79 79 79 79 81 80 80 83 84 84 85 84 76 79 81 80 77 77 77 78 76 77 78
59 68 66 65 63 59 71 58 69 74 74 74 75 77 78 79 80 79 78 77 77 77 77 75 73 74 74 74 74 75 77 80 79 83 81 82 84 85 85 82 82 80 78 76 77 78 78 76 76
63 70 66 64 64 64 63 60 68 73 70 70 72 73 76 77 77 76 75 75 75 75 75 74 73 72 73 72 71 75 74 78 80 82 77 77 80 81 84 84 83 81 78 78 77 77 76 79 78
71 66 65 64 62 52 62 61 64 69 71 70 71 72 72 74 73 74 75 75 75 77 77 75 73 71 72 72 71 68 68 69 73 74 76 80 81 82 80 80 79 80 81 81 82 81 79 79 81
68 62 53 50 51 50 65 60 64 70 73 74 71 70 71 73 74 74 75 75 74 74 75 76 74 72 73 72 72 71 70 70 70 71 76 72 78 79 78 75 73 76 77 77 79 80 80 80 80
63 62 53 42 46 52 62 54 65 70 73 75 73 72 71 71 73 72 72 73 75 73 73 73 73 72 72 72 71 71 70 73 73 73 71 71 73 75 74 72 72 73 74 75 75 78 80 79 80
62 59 67 56 56 52 55 61 64 66 67 69 68 69 69 69 70 70 71 72 73 72 71 71 70 71 71 70 70 70 70 68 68 67 67 70 70 73 71 70 69 70 71 72 72 75 76 78 78
65 67 53 57 41 39 51 55 56 60 63 66 66 67 68 69 70 70 71 70 71 71 72 70 69 68 69 69 70 70 68 68 67 66 65 66 66 67 66 66 67 67 68 69 69 72 74 75 78
60 59 60 59 51 43 43 52 64 66 68 66 68 69 68 69 70 70 72 71 71 72 72 70 69 68 68 69 67 66 66 66 66 65 65 65 64 64 64 65 65 65 66 67 66 67 69 70 73
66 61 60 48 47 53 51 52 64 67 71 69 69 68 69 69 69 71 71 70 71 70 70 69 67 67 68 67 66 65 65 65 64 64 64 64 63 64 63 63 63 63 64 64 63 62 65 67 69

GFSSGP_sfc_temp_105.txt.gz
Temp
82 96 101 98 82 84 79 86 97 89 89 96 97 95 93 97 92 82 102 104 104 100 94 89 80 81 81 81 81 80 79 79 79 79 79 79 79 80 79 80 80 81 81 81 81 81 81 81 81
95 99 98 92 78 74 80 91 90 92 95 96 97 96 95 92 99 100 101 99 105 98 93 93 80 80 81 80 80 79 79 79 79 79 79 79 79 79 79 80 80 81 81 81 81 81 81 81 81
90 99 89 84 80 74 80 93 95 96 95 94 93 97 95 90 97 99 100 100 103 98 95 91 80 80 80 80 80 79 79 79 79 79 79 79 79 79 79 80 80 81 81 82 82 81 81 81 80
94 93 90 79 77 84 87 93 93 93 93 95 94 90 98 100 96 99 100 102 101 99 98 82 79 79 80 80 79 79 79 79 79 79 79 79 79 79 79 79 80 81 81 81 81 81 80 80 80
95 91 79 78 79 86 93 94 94 89 93 93 95 89 92 99 99 99 100 102 100 100 98 89 79 79 79 80 80 79 79 79 79 79 79 79 79 78 79 79 80 81 81 81 81 80 80 80 80
85 88 75 74 80 87 93 93 92 91 93 94 92 91 94 102 99 99 103 103 104 102 98 91 80 79 79 79 79 79 78 78 79 79 79 79 78 78 79 79 80 80 80 81 80 80 80 79 79
82 82 76 80 82 86 91 95 87 88 89 91 98 89 97 100 100 101 102 105 105 104 100 93 91 84 79 78 78 78 78 78 78 78 78 78 78 78 78 78 79 80 80 80 80 79 79 79 79
87 84 78 81 80 82 92 89 91 90 89 98 96 86 89 96 98 101 103 105 105 103 102 98 94 92 90 88 78 78 78 78 77 77 77 78 78 78 78 77 78 79 79 79 79 79 79 79 78
89 75 73 78 81 84 92 84 92 93 88 90 94 94 97 99 99 99 100 102 100 102 101 100 97 94 95 95 86 79 78 78 77 78 77 77 88 86 84 83 78 78 78 78 78 78 78 78 78
80 74 76 87 88 85 89 85 87 84 85 86 89 95 98 98 98 96 97 98 98 97 100 102 95 95 96 98 90 89 89 88 87 87 85 87 90 90 92 86 78 78 78 78 78 78 78 78 91
81 74 85 87 86 86 85 85 88 84 80 87 87 91 96 96 96 97 98 92 94 96 97 97 94 94 96 98 93 93 93 91 90 89 88 87 92 92 92 92 88 86 80 87 84 84 86 89 92
76 82 84 86 86 82 81 86 84 84 85 92 93 93 95 95 95 95 96 93 87 84 95 95 94 92 92 98 96 96 95 93 93 92 90 89 91 91 91 94 93 89 92 89 92 92 90 90 91
78 80 85 86 86 85 86 82 82 84 89 92 93 93 93 95 94 97 98 99 80 87 89 90 90 89 90 90 95 94 95 95 95 94 91 91 91 90 91 91 94 95 95 95 92 93 93 91 91
83 81 82 85 84 84 80 82 84 85 90 88 89 90 92 93 94 96 96 95 91 93 87 88 89 84 85 86 87 89 89 92 93 93 93 90 90 89 88 88 90 91 95 96 95 93 93 92 92
82 75 79 81 83 81 84 77 79 87 89 87 87 89 91 93 96 96 96 92 88 94 92 92 89 90 84 86 87 88 90 90 91 93 92 91 89 89 88 90 88 90 91 90 90 89 91 90 92
75 75 69 80 82 83 80 71 84 89 87 85 87 89 90 92 95 97 96 91 96 96 92 93 97 91 87 89 91 91 86 88 92 91 91 88 89 87 85 84 88 91 89 91 91 90 89 90 91
71 64 69 75 85 81 78 74 84 88 86 85 87 89 90 91 93 95 96 96 96 94 95 93 94 93 89 89 91 91 91 89 87 85 92 88 82 88 86 88 88 86 83 85 87 87 87 86 89
64 65 71 71 79 79 76 75 82 86 86 84 87 89 90 91 92 95 96 98 98 96 95 95 93 93 89 90 88 92 91 87 81 85 83 81 80 82 84 83 84 85 82 79 80 79 82 85 87
73 70 67 74 80 76 74 76 80 85 85 84 86 87 89 90 95 96 96 97 97 95 93 91 90 87 88 91 91 90 88 87 87 86 82 86 83 83 81 82 77 81 84 82 81 78 75 71 74
71 68 68 73 76 75 72 72 79 82 82 84 84 85 87 90 91 89 91 92 93 90 89 87 86 86 87 91 88 89 88 90 86 83 84 86 84 81 80 79 79 80 82 78 75 77 72 75 73
68 66 67 67 74 76 71 66 71 80 83 83 84 86 88 89 87 86 86 87 87 85 85 85 83 83 83 85 86 85 85 85 84 83 84 84 85 84 81 80 78 75 60 62 65 69 71 69 71
63 72 69 68 66 60 72 57 67 74 76 79 81 83 84 87 86 84 83 82 82 81 80 79 78 79 78 78 80 78 83 77 76 77 79 78 82 83 82 78 80 75 65 66 63 71 73 72 72
67 75 70 66 61 64 67 62 68 75 73 76 79 82 83 84 83 81 81 80 80 80 78 77 76 75 75 75 76 81 77 79 77 77 77 78 80 83 84 83 84 82 76 74 73 73 74 75 75
75 70 69 69 65 52 62 63 65 69 74 77 78 80 80 80 79 79 80 79 79 80 80 78 75 75 76 76 75 73 72 73 75 76 74 79 82 83 83 83 80 78 78 79 77 76 77 75 76
71 64 53 50 52 51 65 61 64 72 78 78 77 77 78 78 78 77 78 79 78 79 80 79 77 75 76 76 76 75 73 72 73 74 76 73 77 79 78 77 75 76 76 76 76 76 77 78 77
67 65 56 42 48 55 66 55 62 75 80 82 79 78 78 77 78 78 78 79 79 77 77 78 77 75 76 76 74 75 74 77 76 76 73 72 74 73 74 74 73 73 74 74 74 75 76 76 78
66 61 70 57 59 49 59 64 69 74 74 76 74 75 75 76 76 76 77 77 78 77 75 75 75 75 75 74 74 73 73 71 71 70 70 73 71 73 71 70 69 70 71 71 71 72 72 73 74
69 73 55 57 42 43 54 54 58 65 69 72 71 72 74 75 75 76 77 76 76 76 77 74 74 73 74 74 74 73 71 71 70 70 68 68 69 69 68 67 67 68 68 68 68 69 70 70 73
66 62 60 60 58 45 45 51 64 59 69 70 73 74 74 75 76 76 77 76 77 78 77 75 74 74 73 73 72 71 70 70 69 68 68 68 67 67 67 67 67 66 66 66 65 64 65 65 66
69 65 63 50 47 55 48 49 69 69 69 64 75 75 76 76 76 77 77 76 77 76 75 75 73 73 73 73 71 70 69 69 68 67 67 67 66 67 66 65 64 64 63 61 61 61 62 61 62

GFSSGP_sfc_temp_108.txt.gz
Temp
80 92 95 92 76 78 73 80 92 90 91 97 98 94 92 96 88 74 100 102 97 91 85 85 80 81 81 80 80 79 79 79 79 79 79 79 79 79 79 79 80 80 81 81 81 81 81 81 80
90 94 95 87 72 68 73 87 86 92 94 97 96 96 94 87 98 94 92 100 96 91 86 85 80 81 81 80 79 79 79 79 79 79 79 79 79 79 79 80 80 81 81 81 81 81 81 81 80
84 91 84 78 73 68 73 87 92 97 96 95 92 98 96 89 96 96 99 102 96 91 89 84 80 80 80 80 79 79 79 79 79 79 79 79 79 79 79 80 80 81 81 81 81 81 80 80 80
89 88 86 73 71 79 81 87 93 94 95 96 95 89 98 100 97 100 101 102 96 93 93 80 79 80 80 80 79 79 79 79 79 79 79 79 79 78 79 79 80 80 81 81 81 80 80 80 80
91 86 72 72 74 82 89 93 95 93 93 93 95 89 92 97 100 101 100 102 97 95 88 84 79 79 80 80 79 79 79 79 79 79 79 79 79 78 78 79 80 80 81 81 80 80 80 80 80
80 82 69 68 75 84 89 93 94 93 93 94 92 91 92 100 99 99 101 101 101 94 90 84 80 79 79 79 79 79 78 78 79 79 79 79 78 78 78 79 79 80 80 80 80 79 79 79 79
77 76 70 73 76 81 88 96 92 91 90 91 97 87 95 100 100 102 102 103 102 98 92 86 84 81 79 78 78 78 78 78 78 78 78 78 78 78 78 78 79 79 79 79 79 79 79 79 79
82 78 72 76 75 78 91 93 93 89 88 98 99 86 87 94 100 101 102 104 102 100 94 89 86 84 82 81 78 78 78 78 77 77 77 78 78 78 78 77 78 79 79 79 78 78 78 78 78
88 71 68 73 77 81 93 88 92 95 89 93 95 93 97 99 100 99 99 102 101 99 94 92 88 86 87 85 81 78 78 78 77 78 77 76 80 80 80 80 78 78 78 78 78 78 78 78 78
78 71 72 82 85 85 89 88 87 86 85 85 90 96 99 98 97 96 97 97 84 93 95 94 87 88 89 91 81 82 82 81 80 81 79 80 81 81 85 82 78 78 78 78 78 78 77 78 80
79 72 79 83 87 89 85 85 89 85 81 86 86 90 95 96 95 95 97 99 94 95 92 92 87 86 90 90 83 85 84 83 82 83 81 80 83 82 83 83 80 78 77 79 78 77 77 78 80
74 80 81 83 87 85 81 86 83 85 85 92 93 94 94 94 93 95 96 98 95 75 75 74 77 84 85 86 86 86 87 85 84 84 82 80 81 81 82 84 81 79 81 78 80 80 78 77 80
77 80 83 85 85 86 85 81 81 83 89 92 93 92 91 91 93 95 96 97 87 79 76 74 72 75 83 84 84 86 87 86 86 85 84 84 82 80 82 82 83 82 83 81 81 82 80 80 81
82 81 81 84 84 85 81 81 83 84 89 88 89 88 90 91 92 93 94 93 80 77 69 68 74 77 81 81 82 82 83 84 86 85 84 84 84 81 82 82 82 82 83 83 83 82 80 82 82
82 75 79 80 81 81 84 76 77 86 89 87 87 87 89 91 94 92 93 91 78 75 72 71 72 77 78 79 81 81 84 87 86 85 86 84 82 82 80 81 81 81 81 82 82 82 82 80 82
75 75 66 78 80 81 81 68 81 87 86 85 86 87 88 90 91 93 94 91 87 87 78 80 84 78 78 81 82 83 84 83 82 81 83 85 84 83 81 78 76 82 82 81 78 77 79 80 80
71 62 65 69 81 80 78 70 81 89 86 84 85 86 88 88 90 91 95 89 85 83 82 83 86 83 80 81 84 84 83 82 79 72 75 78 75 79 73 74 75 77 79 78 80 75 73 73 76
62 63 66 66 75 79 75 73 80 86 85 83 85 87 87 88 89 92 93 90 88 83 83 84 85 82 82 84 83 84 82 84 83 83 83 77 76 73 68 64 69 72 75 75 76 75 76 74 74
70 68 67 71 78 76 73 74 78 83 83 83 83 85 86 87 91 91 92 87 90 86 83 82 83 81 82 82 81 81 79 80 81 82 84 81 76 74 68 65 71 75 73 73 72 66 63 67 69
69 66 67 73 77 75 73 72 78 82 83 84 83 84 86 88 89 90 90 90 84 83 81 81 82 82 83 82 80 80 80 81 82 82 82 82 82 77 73 73 74 73 73 66 65 63 61 65 65
67 65 66 67 73 75 71 66 69 78 83 85 86 86 86 86 84 85 86 86 83 81 81 80 79 78 78 82 80 80 80 80 79 79 80 80 82 82 79 78 76 74 66 64 64 62 61 60 63
62 72 71 68 64 57 71 55 65 70 73 80 81 82 83 85 84 84 83 81 79 78 77 76 76 76 76 77 77 76 76 75 73 75 76 75 77 78 77 78 76 73 65 62 63 64 61 65 62
66 74 70 69 64 60 61 58 64 70 67 73 77 79 81 82 82 80 81 79 78 77 75 74 74 73 73 72 72 75 74 74 75 75 72 73 75 79 80 78 74 73 68 66 67 64 62 66 66
76 70 69 68 63 52 59 57 60 66 69 73 78 80 81 80 79 79 78 78 76 77 75 74 73 72 73 73 71 70 69 70 70 70 70 72 72 73 74 73 71 70 71 71 70 71 70 69 69
70 63 51 49 50 49 63 59 62 69 74 78 76 77 78 77 76 76 75 76 77 76 76 75 74 72 73 73 72 71 70 71 72 70 70 68 69 70 69 68 68 68 68 68 68 68 68 68 68
65 63 53 41 46 52 64 55 63 73 73 72 78 77 76 75 76 76 77 76 76 76 76 75 74 72 73 72 72 71 71 71 70 68 68 67 67 68 68 68 66 66 66 66 66 67 67 67 68
64 59 68 56 55 47 56 64 73 76 71 73 73 75 73 75 76 75 77 77 75 74 73 73 73 73 72 72 71 71 69 69 68 68 68 68 66 68 67 66 65 65 65 64 64 64 64 65 65
68 72 55 58 37 38 50 52 58 66 67 68 70 70 73 74 74 74 75 75 75 74 73 73 73 72 72 72 71 70 69 69 68 67 66 65 65 65 64 64 64 64 64 63 62 62 63 62 62
64 59 60 57 55 44 43 38 57 56 59 68 71 72 72 73 74 74 74 74 75 76 74 72 73 73 72 72 71 70 69 68 68 66 66 65 64 64 64 64 63 61 60 60 59 58 59 59 59
69 64 59 46 46 52 51 46 57 60 56 66 59 73 74 75 75 76 76 76 76 75 74 72 71 72 72 71 70 69 68 67 66 65 65 65 63 63 62 62 61 60 60 58 57 56 57 57 56

GFSSGP_sfc_temp_111.txt.gz
Temp
71 79 77 75 60 58 55 64 77 78 81 83 89 86 80 83 79 66 86 86 84 80 79 81 80 80 80 79 79 79 79 79 79 79 79 79 79 79 79 79 79 80 80 81 81 80 81 80 80
75 82 78 70 55 48 56 72 73 81 83 86 89 87 84 78 88 87 84 86 84 80 79 79 80 80 80 79 79 78 79 79 79 78 79 79 78 79 79 79 79 80 80 81 81 81 80 80 80
77 81 64 60 54 53 57 73 79 81 88 86 84 91 87 82 85 84 89 87 83 81 80 79 80 80 80 79 79 78 78 79 79 79 79 79 78 78 78 79 79 80 81 81 81 80 80 79 79
75 70 68 54 53 63 69 76 81 84 85 86 87 84 89 93 91 91 90 88 84 83 81 79 79 79 80 79 79 78 79 79 79 79 79 78 78 78 78 79 79 80 80 81 80 79 79 79 79
71 64 53 50 57 67 75 81 84 83 83 84 86 81 81 90 94 94 90 89 85 83 79 79 79 79 79 79 79 79 79 78 78 79 79 78 78 78 78 79 79 80 80 80 79 79 78 78 79
61 63 47 48 59 69 76 84 85 83 83 84 83 83 79 91 91 91 93 89 89 80 79 79 79 79 79 79 79 78 78 78 78 78 78 78 78 78 78 78 79 79 79 79 79 78 78 78 78
58 53 49 54 60 66 74 84 84 85 84 81 82 78 79 85 92 94 92 92 86 84 79 78 78 79 79 78 78 78 77 77 77 77 77 77 77 77 78 78 78 78 78 78 78 78 78 77 78
65 58 53 59 61 62 76 77 73 78 79 88 90 76 70 84 93 91 92 91 86 83 80 77 76 76 77 76 78 78 77 77 77 77 77 77 77 77 77 77 77 78 78 78 77 77 77 77 77
70 55 53 57 61 67 76 71 79 83 81 83 85 84 86 91 91 86 88 81 83 84 80 79 77 76 76 76 79 77 78 77 77 77 77 76 74 75 76 76 77 77 77 77 77 77 77 77 77
63 53 59 66 70 68 74 71 75 76 76 77 80 89 90 90 85 83 83 82 80 79 81 79 79 78 78 82 78 75 77 75 75 75 74 73 73 73 78 77 78 77 77 77 77 77 77 77 72
63 60 65 70 76 77 75 73 77 72 67 74 76 80 85 84 82 83 84 80 85 77 76 74 74 79 81 79 75 75 75 75 75 75 74 73 75 73 75 73 74 72 76 73 74 73 72 72 71
60 69 71 73 77 76 71 75 73 73 72 81 82 82 82 80 79 81 82 82 75 70 66 69 72 72 73 79 78 79 77 76 75 76 75 73 72 72 73 73 72 71 72 70 70 70 71 70 73
64 68 73 76 75 72 75 73 72 72 80 81 84 84 80 80 76 78 82 74 71 65 66 68 69 68 71 73 76 75 80 79 79 78 77 76 74 74 75 74 74 74 73 72 71 71 73 72 73
69 70 72 73 72 72 70 71 72 75 80 81 81 79 80 79 80 75 78 72 69 67 65 67 69 69 70 72 74 79 80 81 77 79 79 79 78 75 75 75 75 75 77 75 75 76 74 75 75
71 65 70 73 70 71 73 66 69 76 80 78 79 79 80 79 80 79 80 72 71 69 67 67 68 70 72 73 74 74 80 81 82 80 79 80 78 75 75 75 75 75 75 75 76 75 77 74 76
63 64 56 64 70 74 69 60 71 77 77 74 79 80 81 79 80 80 80 73 72 70 70 71 77 74 73 71 74 77 79 78 77 73 74 77 77 72 71 70 70 71 71 71 71 70 69 68 68
56 50 53 61 69 68 68 63 72 78 76 73 75 76 79 77 78 79 80 76 73 72 70 72 74 71 72 73 72 77 77 76 75 72 71 73 73 73 71 70 69 70 68 67 67 69 67 69 66
49 52 57 57 66 70 66 65 72 76 75 75 73 74 76 76 77 80 79 80 77 75 74 74 72 71 71 73 74 75 76 76 75 73 74 74 72 72 70 68 67 68 67 66 66 62 62 65 67
60 58 57 62 70 66 65 66 71 73 71 71 72 72 72 74 79 78 80 81 78 77 76 72 74 74 73 72 70 71 70 71 72 73 75 74 72 71 66 63 64 64 65 64 63 62 61 61 62
60 57 57 63 69 66 62 63 69 73 70 71 70 71 72 72 75 77 74 76 75 74 73 74 72 72 72 72 70 72 72 72 72 73 73 72 73 71 66 63 63 67 65 63 62 62 60 60 62
59 56 57 57 66 66 62 58 62 70 73 73 74 73 73 71 70 73 72 70 71 70 70 70 68 68 69 71 70 70 71 70 68 68 68 70 73 72 67 67 67 69 65 62 62 61 60 58 60
54 65 64 62 59 48 63 42 54 63 67 71 73 71 72 69 71 70 69 67 68 67 68 67 66 66 67 67 69 68 66 64 65 65 66 66 70 71 70 69 70 66 61 60 60 62 61 58 57
59 67 64 62 54 51 55 45 52 64 64 67 68 68 69 71 69 68 68 68 67 67 65 65 64 64 64 64 65 63 61 62 63 63 64 64 65 67 69 67 66 65 62 61 60 63 60 59 59
70 64 61 59 52 40 50 47 46 57 63 68 71 70 71 69 68 69 69 68 66 66 64 63 63 62 63 63 63 61 61 61 61 61 60 61 61 62 64 66 62 62 62 62 63 65 63 61 63
64 52 41 39 39 37 53 49 51 60 63 69 71 69 67 68 68 67 66 64 64 63 63 64 62 61 62 62 62 61 60 60 59 58 57 57 58 58 59 59 59 58 59 61 61 60 61 62 62
60 53 39 31 33 41 56 46 53 64 65 71 70 67 66 66 67 66 66 66 64 64 63 63 62 61 62 61 61 60 60 59 58 58 57 57 57 57 58 59 59 60 60 60 59 58 59 62 61
57 52 57 46 44 36 44 52 61 66 64 67 65 64 63 64 63 64 64 64 63 62 61 62 61 61 61 61 60 59 60 59 58 58 57 57 57 61 59 59 58 58 59 58 57 56 56 58 58
59 62 48 49 33 29 41 42 45 49 55 64 64 62 65 65 66 64 63 62 61 61 62 62 62 61 61 60 60 60 59 59 58 57 56 56 56 57 57 57 56 56 56 55 53 52 54 54 56
54 55 53 47 41 31 32 38 52 48 50 52 58 63 63 64 63 63 62 63 61 62 61 60 61 61 60 60 59 58 58 58 57 56 56 56 56 56 56 56 55 55 54 54 52 51 52 53 52
61 57 52 37 38 42 39 38 55 54 53 52 54 57 61 64 64 63 62 62 61 59 60 60 59 59 59 60 59 58 58 57 56 56 56 56 54 55 55 55 55 55 55 53 52 51 53 53 54

GFSSGP_sfc_temp_114.txt.gz
Temp
70 75 73 71 59 54 51 58 68 71 74 80 83 80 76 77 76 66 80 86 82 78 78 80 79 80 80 79 79 78 78 78 78 78 78 78 78 79 79 79 79 80 80 80 80 81 80 80 80
73 78 72 64 53 46 52 63 67 72 79 84 84 79 78 75 85 78 78 83 82 78 78 78 79 79 79 79 78 78 78 78 78 78 78 78 78 78 78 79 79 80 80 80 80 81 80 80 80
74 76 64 57 49 48 53 66 70 78 82 82 81 85 82 77 83 81 83 83 80 78 78 78 79 79 79 79 78 78 78 78 78 78 78 78 78 78 78 78 79 80 80 80 81 80 80 79 79
72 67 62 52 50 59 64 70 72 76 81 84 84 78 85 89 85 85 85 83 80 78 79 79 79 79 79 79 78 78 78 78 78 78 78 78 78 78 78 78 79 80 80 80 80 79 79 79 79
66 59 50 45 52 59 68 75 78 74 75 80 82 77 77 87 89 85 83 84 80 77 77 78 79 79 79 79 79 78 78 78 78 78 78 78 78 78 78 78 79 79 80 80 79 78 78 78 78
59 57 44 44 52 62 66 73 77 76 80 81 77 77 76 87 84 84 85 83 82 77 77 78 79 78 78 78 78 78 78 78 78 78 78 78 77 78 78 78 78 79 79 79 79 78 78 77 77
53 48 44 46 53 57 67 71 73 77 79 78 80 74 74 83 85 86 85 84 81 79 77 76 77 78 78 78 77 77 77 77 77 77 77 77 77 77 77 77 78 78 78 78 77 77 77 77 77
59 52 44 49 53 54 68 71 74 73 80 87 87 74 71 81 88 87 85 83 80 78 77 75 77 77 76 76 77 77 77 77 77 77 77 77 77 77 77 76 77 78 77 77 77 77 77 77 77
62 47 42 49 54 59 66 66 75 81 75 83 82 80 84 87 88 84 81 78 77 78 75 75 75 75 76 75 77 77 78 77 77 77 77 75 73 74 75 76 76 77 77 77 77 77 77 77 77
56 47 50 59 62 61 62 65 72 73 74 73 78 84 84 85 84 79 77 75 75 73 74 73 75 74 75 80 77 74 76 74 74 74 74 73 72 72 76 76 77 77 77 77 77 76 76 77 71
55 54 59 61 67 68 68 66 72 70 66 71 71 76 78 79 79 82 78 77 73 74 73 73 74 74 75 76 75 74 74 73 73 74 73 72 73 71 73 71 73 72 75 72 74 72 72 71 70
51 61 63 64 69 66 62 68 71 70 72 77 78 78 79 75 73 77 71 70 70 70 71 72 72 73 73 73 75 75 75 75 74 74 73 72 70 70 71 71 71 71 71 70 70 69 69 69 70
54 60 65 67 68 69 68 68 69 71 77 77 80 80 76 74 73 70 70 69 69 70 71 71 71 73 73 73 74 75 76 75 76 75 75 74 72 70 71 71 71 71 70 70 69 68 68 68 69
61 64 65 67 64 69 67 69 67 71 77 77 77 77 77 75 76 66 68 68 69 71 72 69 70 71 72 73 73 74 76 75 73 76 76 75 73 72 72 71 72 70 71 71 70 70 69 70 71
65 59 63 64 64 64 66 63 66 72 74 75 75 76 78 77 77 73 68 67 67 69 69 69 71 74 74 74 73 73 77 77 76 75 74 75 73 74 74 71 72 72 72 72 71 69 69 68 68
57 58 52 63 64 67 66 59 67 72 70 71 73 74 76 76 77 76 69 69 69 69 70 73 78 75 67 71 73 73 75 73 73 73 72 74 73 72 71 70 70 71 70 68 68 67 66 67 66
49 47 47 53 62 64 62 61 68 73 71 69 70 72 73 73 75 71 71 70 70 70 68 69 72 72 70 70 71 71 75 74 71 70 71 73 74 73 72 71 70 69 67 66 67 64 64 64 63
46 45 49 51 59 61 60 58 65 70 70 68 69 71 71 72 74 72 72 72 70 69 68 69 70 69 71 69 68 72 73 71 70 67 68 72 72 72 70 68 66 66 64 64 63 61 62 62 62
55 52 50 55 64 60 57 61 64 70 67 68 66 71 69 70 75 71 73 73 71 69 68 68 69 68 69 69 69 69 70 70 70 72 73 71 71 71 68 65 64 65 64 62 62 60 61 60 62
56 52 50 56 62 59 60 58 64 67 69 68 67 69 68 68 67 69 73 73 71 69 69 68 69 69 69 70 68 69 69 68 69 70 71 72 71 69 67 65 63 64 62 61 61 61 59 60 60
55 52 52 52 61 59 57 52 57 65 68 70 68 69 67 66 65 68 69 68 70 70 70 67 67 68 68 70 68 67 67 68 67 65 66 67 71 71 67 65 64 65 64 62 60 61 59 57 57
50 60 59 57 53 43 56 42 51 59 63 67 68 66 63 64 65 65 64 64 64 64 65 64 64 64 65 68 67 66 63 62 62 62 63 62 65 66 67 66 67 67 63 62 62 60 58 56 55
54 63 60 59 50 46 49 42 48 55 57 62 65 66 64 64 63 62 62 63 64 63 61 62 62 62 62 62 62 63 62 62 60 60 62 60 63 64 66 64 63 62 60 60 59 59 59 57 56
65 60 58 55 49 39 48 45 44 50 57 61 66 66 64 62 62 62 63 64 61 62 61 61 61 59 62 61 60 59 59 58 58 57 57 57 58 59 60 62 59 58 58 58 58 59 60 59 58
60 53 38 34 36 38 49 44 47 56 60 66 63 62 62 62 62 62 62 62 61 60 60 61 61 58 59 60 59 59 57 56 55 55 55 54 54 54 55 56 56 56 57 58 57 56 56 57 57
54 53 37 31 31 37 50 41 48 61 64 63 65 62 62 62 63 63 62 62 61 59 59 60 61 59 59 60 58 57 56 55 55 55 54 53 53 54 55 56 56 57 57 57 55 54 54 55 54
56 51 55 43 41 37 40 47 55 57 58 59 59 61 59 60 61 61 62 62 62 62 60 59 59 59 59 58 57 56 56 55 54 54 54 54 54 59 56 55 55 55 55 55 53 51 52 52 51
60 60 46 41 30 29 36 41 43 46 48 57 57 58 59 61 62 62 61 61 62 61 59 59 58 58 57 57 57 56 55 55 55 54 53 54 53 54 54 54 53 53 54 53 51 50 51 50 50
55 55 50 45 39 29 30 34 48 46 48 47 53 58 58 58 60 61 63 62 59 58 58 57 57 57 56 56 55 55 55 55 54 54 53 53 53 53 54 55 54 53 53 52 50 49 50 51 51
56 50 50 41 35 38 36 34 52 50 52 51 51 54 56 61 61 63 62 59 58 58 59 57 56 56 56 56 55 54 54 54 53 54 53 53 53 53 53 54 53 53 53 52 50 50 52 51 51

GFSSGP_sfc_temp_117.txt.gz
Temp
69 72 70 70 59 54 50 57 63 65 70 74 78 76 75 79 77 66 77 83 80 77 78 79 79 80 79 79 79 78 78 78 78 78 78 78 78 79 78 78 79 79 80 80 80 80 80 80 80
70 74 69 61 52 45 51 60 64 68 74 77 80 78 77 76 82 76 77 82 81 77 77 78 79 79 79 79 78 78 78 78 78 78 78 78 78 78 78 79 79 80 80 80 80 80 80 80 80
70 72 62 56 47 49 53 62 65 74 75 75 75 82 79 76 81 78 81 81 79 77 77 77 79 79 79 79 78 78 78 78 78 78 78 78 78 78 78 78 79 80 80 80 80 80 80 79 79
69 66 61 51 49 56 62 68 68 72 77 77 77 76 83 86 83 84 82 81 78 77 77 78 79 79 79 79 78 78 78 78 78 78 78 78 78 78 77 78 78 80 80 80 80 79 79 79 79
66 58 48 47 52 59 64 71 73 69 70 74 75 73 76 84 84 81 80 81 76 75 76 78 78 78 78 79 78 78 78 78 78 78 78 78 78 77 77 78 78 79 79 80 79 78 78 78 78
56 53 42 43 49 60 65 70 71 69 72 75 71 74 75 82 80 79 81 78 79 76 76 77 78 78 78 78 78 78 77 78 78 78 78 78 77 77 77 78 78 78 78 79 78 78 77 77 77
51 46 41 41 50 54 65 69 69 69 70 73 77 71 73 77 80 81 80 79 78 77 76 76 77 78 78 78 77 77 77 77 77 77 77 77 77 77 77 77 78 78 78 77 77 77 77 77 77
55 50 41 46 49 52 64 68 69 65 73 81 80 69 68 77 82 81 80 77 75 75 78 78 77 76 75 75 77 77 77 77 76 76 76 76 77 77 77 76 76 77 77 77 77 76 76 76 76
58 44 39 46 52 56 60 60 69 73 72 76 78 76 80 83 82 78 74 74 74 74 75 77 78 77 75 75 77 77 78 77 76 76 76 75 73 74 75 76 76 77 77 76 76 76 76 76 76
53 42 46 54 57 56 56 59 65 69 68 72 77 80 83 82 79 76 73 71 72 73 75 75 77 74 74 78 74 73 75 74 73 74 74 72 72 72 74 75 76 76 76 76 76 76 76 76 71
53 49 55 58 62 63 57 62 66 66 64 68 69 74 77 74 75 75 74 74 73 74 74 74 74 73 74 74 75 75 74 73 73 73 73 72 72 72 72 71 72 72 75 72 74 73 72 71 70
47 56 60 60 64 60 57 64 64 66 69 74 74 75 75 73 71 73 74 72 72 72 72 72 72 73 73 73 73 76 74 73 73 74 73 71 70 69 69 70 70 70 71 70 70 69 69 69 69
48 54 59 63 62 61 64 62 63 66 72 74 74 75 71 69 65 69 72 71 72 71 71 71 72 72 72 73 74 74 74 74 74 73 73 73 72 71 70 71 70 70 70 69 69 68 68 67 68
56 59 62 60 60 59 61 64 61 66 72 72 72 73 73 72 65 69 68 70 71 71 71 70 72 72 70 71 73 74 74 74 73 74 75 74 72 71 71 71 71 71 70 69 69 69 68 69 69
60 53 58 58 59 59 61 59 60 68 71 70 70 72 73 72 65 65 68 68 70 71 72 70 72 72 72 72 71 71 73 75 74 74 73 73 72 70 70 70 70 71 71 70 69 69 67 66 67
51 53 48 54 59 62 62 53 63 68 67 67 70 71 71 71 70 65 67 69 71 71 70 71 76 73 69 70 72 72 72 71 70 71 71 73 72 72 71 70 69 69 68 68 67 66 66 66 65
45 38 43 50 58 60 58 52 65 69 65 65 66 68 70 70 69 65 68 68 69 70 71 71 72 72 67 70 70 71 71 70 71 71 70 71 72 72 70 69 68 69 67 66 66 63 64 63 62
41 41 48 48 56 58 57 52 62 65 64 64 65 65 67 68 71 67 67 69 69 69 72 70 67 65 67 69 68 70 71 69 69 69 70 71 72 72 70 66 67 66 64 64 63 62 62 63 62
50 49 47 51 60 56 53 53 58 64 62 62 62 63 65 66 69 67 67 68 69 68 65 64 65 65 66 66 67 68 66 67 68 67 70 71 71 71 68 65 64 64 63 62 62 61 61 60 61
51 46 45 52 58 54 54 54 59 62 62 62 64 63 64 65 64 65 65 67 67 66 65 65 65 66 67 67 68 69 67 66 68 68 69 70 71 69 67 65 63 62 61 61 60 60 58 58 59
49 47 46 48 55 55 52 49 53 61 63 64 64 66 64 65 61 65 65 65 65 64 65 66 66 66 67 69 66 65 66 65 63 63 63 65 68 69 67 65 63 63 62 60 60 60 59 57 56
45 55 54 53 48 39 53 36 47 54 58 61 64 61 60 61 63 65 66 64 65 65 63 63 67 66 68 67 65 65 63 61 59 59 61 61 64 64 65 66 66 66 63 64 63 63 58 55 53
51 59 55 53 46 43 46 40 47 51 53 55 56 56 58 60 62 64 65 60 61 62 60 60 61 61 62 62 63 62 60 59 58 58 60 60 60 62 63 62 61 59 59 59 59 59 58 57 58
60 55 51 47 43 35 43 43 42 48 55 56 57 57 58 58 59 60 61 60 59 60 59 59 60 59 60 60 60 59 59 58 58 56 57 56 56 56 58 60 57 56 56 56 55 56 56 55 56
56 47 32 30 30 34 45 41 46 54 59 60 55 56 57 58 58 59 58 58 58 58 58 59 59 57 58 58 58 58 56 56 55 54 54 54 53 53 54 55 55 54 55 55 54 53 53 53 52
49 46 33 27 28 34 46 38 46 57 61 61 59 57 58 57 58 57 59 59 59 58 58 58 58 56 57 57 56 56 56 54 53 53 53 52 52 52 54 54 54 54 55 54 52 51 51 51 50
49 45 51 40 39 34 40 45 53 55 53 55 55 56 55 57 58 58 59 59 58 58 57 58 57 56 56 56 55 54 54 54 53 52 52 52 52 55 54 54 53 53 54 53 51 49 50 49 48
56 55 42 41 29 28 35 40 43 45 47 52 53 53 53 56 57 57 58 58 58 59 56 57 57 56 55 55 55 54 54 53 52 52 52 52 52 53 53 53 52 52 52 51 50 48 49 49 49
51 49 49 46 39 31 30 36 46 45 46 49 50 53 53 54 56 56 58 59 58 59 58 58 56 55 54 54 53 53 53 53 53 53 52 52 51 52 52 53 53 52 51 51 49 48 49 49 49
54 51 50 36 33 37 36 35 48 46 46 50 50 52 53 55 56 57 58 59 59 58 58 56 54 53 52 53 53 52 52 53 52 52 52 52 51 51 52 52 52 52 51 50 49 49 50 49 49

GFSSGP_sfc_temp_120.txt.gz
Temp
68 69 68 68 59 53 48 55 60 63 65 70 75 72 71 74 74 65 75 80 79 76 78 79 79 79 79 79 79 78 78 78 78 78 78 79 79 79 79 79 79 79 80 80 80 80 80 80 80
68 71 67 59 52 47 51 57 60 66 70 74 76 77 74 74 80 76 75 80 79 76 77 78 79 79 79 79 78 78 78 78 78 78 79 79 78 78 79 79 79 80 80 80 80 80 80 80 79
68 70 60 54 46 49 54 61 65 69 72 71 72 78 77 75 79 78 80 79 77 76 76 78 79 79 79 79 78 78 78 78 78 79 79 78 78 78 78 78 79 80 80 80 80 80 80 79 79
66 63 61 50 47 55 62 65 63 69 69 72 74 73 81 84 81 81 80 79 76 75 77 80 79 78 79 79 78 78 78 78 78 78 78 78 78 78 78 78 79 79 80 80 80 79 79 79 79
61 56 45 40 49 57 62 69 67 66 67 69 71 71 74 82 81 80 78 79 75 74 77 79 79 78 78 79 78 78 78 78 78 78 78 78 78 77 78 78 78 79 79 79 79 78 78 78 78
54 51 40 40 47 58 62 67 69 67 68 69 68 69 73 78 78 77 79 77 77 75 77 78 78 78 78 78 78 78 78 78 78 78 78 78 77 77 77 78 78 78 79 79 78 78 77 77 77
51 44 40 38 48 56 63 67 65 69 68 69 71 67 71 74 77 78 76 76 76 77 77 76 76 78 78 78 77 77 77 77 77 77 77 77 77 77 77 77 77 78 77 77 77 77 77 77 77
52 49 39 44 47 51 63 66 70 66 69 76 77 67 68 72 78 76 75 73 76 77 78 77 76 75 75 76 77 77 77 77 76 76 77 77 77 77 77 76 77 77 77 77 77 77 77 77 77
53 43 37 45 49 54 55 53 63 68 67 70 75 72 76 77 77 73 71 72 75 77 77 77 76 77 75 74 77 77 78 77 77 77 77 75 74 75 77 76 76 77 77 76 76 76 76 76 76
51 40 43 53 54 54 55 54 58 65 64 67 73 75 77 77 74 71 70 70 71 73 76 75 78 77 76 77 76 74 76 75 74 74 75 73 72 73 75 76 76 77 77 76 76 76 76 77 74
51 44 51 56 59 59 56 57 63 60 61 66 65 72 73 74 73 71 71 71 71 74 75 75 75 75 74 76 76 75 74 73 73 73 72 72 72 73 74 73 74 74 76 74 75 74 74 73 72
45 52 56 58 60 58 55 59 58 62 66 69 69 71 73 70 71 71 71 72 72 72 73 74 74 74 73 74 76 76 75 73 73 73 72 72 71 71 71 72 72 72 73 72 72 72 71 72 72
46 51 56 60 60 59 59 58 59 60 69 69 70 71 71 70 69 69 73 73 73 72 72 73 73 73 74 73 73 74 74 74 75 74 74 73 72 71 71 71 72 72 72 72 71 71 71 71 71
54 56 58 57 56 56 58 60 58 59 67 68 67 69 69 69 69 66 70 73 73 73 72 73 72 73 74 73 73 73 74 74 73 73 74 73 72 71 71 71 71 72 72 72 72 71 71 71 71
56 48 53 54 56 55 58 58 57 64 66 65 67 68 70 68 65 67 69 71 74 74 72 71 72 73 71 70 70 72 73 74 73 73 73 73 72 71 71 70 72 71 71 71 70 71 70 69 70
49 48 45 50 56 58 59 50 59 64 63 63 66 67 67 67 64 65 67 69 72 72 70 72 75 73 69 70 70 70 72 71 71 71 72 74 73 72 70 69 70 70 70 70 69 68 68 67 67
42 36 39 45 55 57 56 49 61 65 63 62 63 65 67 65 65 63 66 68 69 70 70 70 72 71 69 70 70 71 71 70 70 70 71 72 73 72 70 70 70 70 69 69 68 66 67 66 65
37 37 42 44 52 56 52 49 60 61 61 61 62 63 64 64 66 66 66 68 69 69 69 69 67 66 68 69 69 70 70 70 69 69 69 70 71 72 70 69 69 69 68 67 66 66 65 65 65
48 45 45 48 56 52 52 53 55 60 57 59 59 61 62 63 70 64 66 67 67 66 67 65 65 64 66 67 67 68 68 67 67 68 69 70 70 70 68 67 67 67 66 65 65 64 64 64 63
48 43 43 49 54 52 50 50 55 58 58 60 60 60 62 61 62 61 64 65 66 66 65 63 65 64 66 67 68 68 67 67 69 69 69 70 70 69 67 66 66 65 64 64 63 63 61 62 62
45 44 44 46 52 52 49 47 51 58 58 61 61 63 63 63 60 60 62 64 65 64 63 64 65 65 66 67 67 66 66 65 64 64 64 65 68 68 67 66 65 64 63 62 63 62 62 61 60
40 51 51 50 45 38 50 34 45 51 55 57 60 59 61 60 60 61 62 62 62 62 64 65 65 66 66 67 66 66 65 61 60 60 61 61 64 65 67 67 66 65 65 64 63 63 62 59 58
47 54 51 50 44 40 42 37 41 48 51 55 56 55 55 57 59 60 60 61 61 63 62 62 63 64 66 66 65 62 59 58 58 58 59 58 60 62 62 61 60 59 58 58 59 59 60 60 60
57 52 49 45 42 34 41 40 37 45 53 52 53 56 61 63 60 60 61 60 59 60 59 60 59 58 60 61 61 60 58 57 56 56 56 56 58 58 59 60 59 58 58 57 57 56 57 56 56
52 45 29 29 29 31 43 39 42 51 55 57 54 58 60 60 59 59 59 59 58 58 59 59 58 56 58 59 58 59 58 57 56 56 56 56 56 56 56 57 56 57 57 57 56 55 55 55 54
48 46 29 25 27 30 42 35 44 59 56 56 56 58 58 59 60 59 58 57 57 57 59 58 57 57 58 58 58 58 57 56 55 56 55 55 54 55 56 56 56 56 56 56 55 54 54 55 54
45 43 47 36 36 33 37 43 50 51 51 52 54 57 55 56 56 56 58 57 57 57 57 57 56 56 57 57 56 56 56 56 55 55 54 54 54 57 56 56 55 55 55 55 54 54 53 53 53
53 55 40 36 28 28 32 37 40 44 46 52 54 55 54 55 55 54 54 55 56 56 56 57 58 56 56 56 56 55 55 55 54 54 54 54 54 56 55 55 54 54 54 54 53 52 53 52 53
47 47 45 43 35 28 28 32 43 44 47 50 54 54 53 53 53 53 53 54 55 57 57 57 57 57 55 55 54 55 55 55 55 54 54 54 55 55 55 55 55 54 54 54 52 52 52 52 52
53 49 42 38 31 33 31 33 46 45 47 49 51 52 53 53 52 53 54 55 56 56 56 55 55 54 54 54 54 54 54 54 54 54 54 54 54 54 54 55 54 54 54 53 52 52 52 52 51

GFSSGP_sfc_temp_123.txt.gz
Temp
77 81 84 85 74 72 68 71 75 76 78 83 85 84 84 85 84 81 87 90 89 88 86 83 79 79 80 80 79 79 79 79 79 79 79 79 79 79 79 79 79 80 81 81 81 80 80 80 80
80 81 84 79 70 64 69 75 74 81 84 85 87 86 82 84 88 84 86 87 89 87 85 86 79 79 79 79 79 79 79 79 79 79 79 79 79 79 79 79 79 80 80 81 80 81 80 80 79
79 79 79 74 68 64 68 75 78 82 83 83 84 88 87 84 88 88 91 88 88 86 86 84 79 79 79 79 78 78 78 78 78 79 79 79 79 78 79 79 79 80 80 81 81 80 80 79 79
80 81 75 66 65 67 72 80 77 78 82 83 85 83 91 92 90 91 89 88 87 86 87 81 79 79 79 79 78 78 78 78 78 79 78 78 78 78 78 78 79 80 80 81 80 79 79 79 79
78 75 66 62 64 65 69 76 79 78 79 82 85 82 86 90 89 88 87 88 87 87 88 85 78 78 79 79 79 78 78 78 78 78 78 78 78 78 78 78 79 79 80 80 79 79 78 78 78
71 71 61 61 65 70 72 76 78 79 81 82 80 81 86 87 87 87 89 88 89 87 87 85 79 78 78 78 78 78 78 78 78 78 78 78 77 77 78 78 78 79 79 79 79 78 78 77 78
69 65 63 62 63 65 72 78 75 79 80 81 86 80 88 84 86 87 88 88 88 89 87 86 86 82 78 78 78 77 77 77 77 77 77 77 77 77 77 77 78 78 78 78 77 77 77 77 77
71 68 59 62 63 65 74 76 81 81 80 86 86 79 83 82 84 86 87 87 88 87 87 84 85 87 86 85 77 77 77 77 77 77 77 77 77 77 77 76 77 77 77 77 77 77 77 77 77
68 62 60 63 62 69 72 73 79 81 79 81 84 82 86 84 84 82 81 84 85 85 85 83 84 85 87 87 83 78 78 77 77 78 77 77 85 83 82 81 77 77 77 77 77 77 77 77 77
67 61 63 66 71 71 73 74 75 76 76 78 81 80 82 82 82 80 77 78 79 82 83 81 83 84 85 86 84 85 85 85 84 84 82 85 84 84 85 81 77 77 77 77 77 77 77 77 88
66 60 65 66 70 73 73 72 75 74 74 79 78 80 77 79 80 81 81 82 81 82 79 81 82 82 84 86 84 85 85 84 84 83 83 83 83 83 84 85 84 83 79 85 83 83 85 85 86
59 63 67 70 72 70 69 75 71 75 78 82 79 81 82 79 81 83 83 82 81 78 78 79 81 81 80 85 84 84 84 84 84 84 82 82 82 81 82 84 84 82 85 83 83 85 83 82 83
60 64 66 71 72 71 71 70 72 72 80 82 82 81 82 84 82 83 85 84 82 79 77 79 79 77 77 80 82 83 84 83 84 84 83 84 83 81 82 82 83 83 83 83 81 82 82 82 83
65 65 67 69 69 70 68 70 70 73 78 78 78 81 83 83 82 81 82 82 81 81 79 79 77 76 79 81 79 81 81 82 83 83 82 82 83 81 82 81 81 81 81 83 80 81 83 83 82
64 60 62 65 68 67 68 63 65 73 77 76 78 80 82 83 83 81 83 82 82 82 82 79 75 76 79 80 78 79 80 83 83 83 82 82 81 80 80 81 79 79 79 78 78 78 80 78 81
58 59 54 65 64 66 67 60 70 77 74 73 76 79 80 82 83 84 84 83 82 83 79 77 79 79 79 77 78 80 82 83 82 82 83 82 81 80 79 79 79 76 74 75 75 75 75 75 79
57 54 52 58 67 67 64 63 72 76 72 72 75 78 80 81 81 81 81 81 82 81 79 76 79 81 79 78 79 80 80 81 82 82 82 81 81 81 79 77 72 72 71 72 72 73 72 73 75
52 50 54 55 62 64 62 62 68 72 73 74 77 78 79 79 80 82 81 82 81 80 78 77 78 79 77 78 79 80 80 79 80 77 77 77 76 77 73 73 70 70 69 70 71 70 72 75 76
58 54 54 58 65 62 61 63 66 73 71 73 74 75 77 78 83 81 80 81 79 78 77 75 76 75 77 77 76 78 72 73 74 74 76 73 72 71 68 68 67 69 68 69 70 71 70 73 74
55 53 53 59 64 61 62 61 67 68 71 73 74 75 77 79 79 76 79 78 77 77 77 75 75 74 76 77 79 80 74 77 77 77 73 73 69 66 69 69 67 68 68 68 69 70 73 74 74
51 52 52 55 59 63 60 59 62 68 71 73 76 78 79 79 79 76 75 76 77 77 75 74 74 74 75 77 78 73 73 71 70 71 68 70 69 68 69 70 69 67 68 69 71 71 70 72 72
45 55 55 56 56 51 61 52 58 66 68 69 73 74 77 77 78 78 75 75 75 77 76 73 73 73 74 75 76 74 75 74 71 71 69 68 71 70 69 68 68 68 68 67 67 68 66 65 67
51 57 54 57 55 54 54 51 61 63 63 68 71 75 75 76 77 77 76 76 74 71 71 71 72 73 74 74 76 77 71 69 71 70 67 64 65 66 66 65 63 63 64 65 66 66 66 68 67
58 55 53 55 53 43 53 52 56 60 64 70 70 70 71 73 74 74 73 67 62 63 63 64 64 64 69 73 73 70 68 66 66 66 65 65 66 67 67 67 66 66 66 65 65 65 64 64 65
55 50 38 37 38 42 55 50 58 64 68 73 72 67 68 66 63 63 63 61 60 61 63 64 64 59 60 62 65 66 66 66 64 65 64 66 67 68 65 66 66 67 65 65 65 64 64 64 63
50 51 43 33 36 43 51 46 56 68 70 68 68 66 64 65 64 64 62 59 61 66 68 67 65 63 60 57 59 61 63 62 61 61 62 62 65 66 65 65 65 65 66 65 64 67 66 63 64
51 46 58 47 50 44 48 53 59 65 61 62 61 59 59 60 61 59 59 61 65 66 66 66 63 61 60 57 57 59 61 61 60 60 62 65 64 64 63 64 64 64 64 64 63 65 63 63 63
55 60 46 50 36 37 45 50 55 56 56 59 57 56 55 56 56 57 58 63 65 66 66 65 63 59 58 57 59 62 60 61 63 63 62 63 64 64 64 64 64 63 64 64 63 64 64 61 63
45 49 53 54 49 42 39 46 55 59 59 59 58 56 55 55 55 56 61 64 64 66 66 65 64 60 60 61 63 65 65 64 64 63 63 63 63 63 63 63 63 63 63 63 62 61 62 61 61
50 52 53 46 43 49 50 46 54 56 59 60 55 54 55 56 59 61 62 64 64 66 66 65 65 64 63 61 61 61 63 64 63 63 63 63 63 63 62 63 63 63 62 62 61 60 61 60 60